     2.11           OBSERVATION DATA    G (GPS)             RINEX VERSION / TYPE
teqc 2010Oct21 OPUS Account 20111027 20:39:53UTC            PGM / RUN BY / DATE
Q 1525                                                      MARKER NAME
3023                                                        MARKER NUMBER
CSMIDDLETON NGS                                             OBSERVER / AGENCY
4820152812 TRIMBLE R7 2.32                                  REC # / TYPE / VERS
60244996 TRM41249.00 NONE                                   ANT # / TYPE
  -761515.4520 -5552547.7464  3034588.2115                  APPROX POSITION XYZ
        2.0030        0.0000        0.0000                  ANTENNA: DELTA H/E/N
     1     1                                                WAVELENGTH FACT L1/2
     5    L1    L2    C1    P1    P2                        # / TYPES OF OBSERV
    15                                                      LEAP SECONDS
  2011     8    20     0     0   30.0000000     GPS         TIME OF FIRST OBS
                                                            END OF HEADER
 11  8 20  0  0 30.0000000  0  7G10G17G04G12G05G09G02
 -11607030.29358  -9030099.09856  20941123.9064                   20941121.7624
   9426838.80157   7363536.72755  22754216.3054                   22754214.4024
  -5251532.05158  -4071145.02356  21085028.4144                   21085026.1644
  -9253338.57057  -7196155.61356  21899198.4694                   21899195.1804
  -7056985.74257  -5493642.12555  22666714.6254                   22666714.0084
   3439785.33657   2699109.76654  23041750.7504                   23041750.0864
 -12421717.60558  -9662374.15656  20612646.3524                   20612641.3754
 11  8 20  0  1  0.0000000  0  7G10G17G04G12G05G09G02
 -11594969.36748  -9020700.95346  20943419.0314                   20943416.8524
   9510769.14847   7428936.94945  22770188.4304                   22770186.1884
  -5145094.83648  -3988206.94546  21105282.6884                   21105280.1804
  -9291511.94948  -7225901.07046  21891934.0704                   21891931.0634
  -7119844.26647  -5542622.68745  22654753.6174                   22654752.5984
   3545759.30947   2781686.81644  23061917.2114                   23061916.4414
 -12397647.13348  -9643617.92246  20617226.5864                   20617221.5474
 11  8 20  0  1 30.0000000  0  7G10G17G04G12G05G09G02
 -11582241.48848  -9010783.09046  20945841.3524                   20945838.8754
   9594900.56647   7494493.87145  22786198.2894                   22786195.1644
  -5038364.19948  -3905040.24246  21125592.7664                   21125590.8444
  -9329285.12948  -7255334.69146  21884746.2584                   21884743.0514
  -7182447.80547  -5591404.55945  22642840.3984                   22642839.6334
   3652103.88347   2864552.64544  23082154.2344                   23082152.7464
 -12373176.61348  -9624549.97746  20621883.1024                   20621877.9844
 11  8 20  0  2  0.0000000  0  7G10G17G04G12G05G09G02
 -11568850.21948  -9000348.32046  20948389.5634                   20948386.8404
   9679228.82047   7560204.17245  22802245.2194                   22802242.3204
  -4931347.50048  -3821650.62146  21145957.1174                   21145954.6294
  -9366660.48048  -7284458.31646  21877633.7894                   21877630.3794
  -7244798.27347  -5639989.26645  22630975.1254                   22630973.6994
   3758810.59447   2947700.66844  23102458.6954                   23102458.6294
 -12348311.76248  -9605174.73846  20626615.0474                   20626610.1024
 11  8 20  0  2 30.0000000  0  7G10G17G04G12G05G09G02
 -11554788.26248  -8989390.95346  20951064.9144                   20951063.0514
   9763760.12947   7626072.68845  22818331.4924                   22818328.2664
  -4824040.81248  -3738035.03946  21166376.9694                   21166375.1724
  -9403629.36748  -7313265.21146  21870599.2034                   21870596.0784
  -7306886.51247  -5688369.61345  22619159.6644                   22619158.9454
   3865882.17647   3031132.98844  23122834.3524                   23122833.7664
 -12323047.56248  -9585488.34446  20631422.6254                   20631417.6294
 11  8 20  0  3  0.0000000  0  7G10G17G04G12G05G09G02
 -11540055.08648  -8977910.54746  20953868.6254                   20953866.4654
   9848494.59047   7692099.50845  22834455.6414                   22834453.0354
  -4716447.28548  -3654195.94146  21186851.5084                   21186848.8914
  -9440190.19948  -7341754.14846  21863641.5164                   21863638.5904
  -7368710.59847  -5736544.13345  22607395.4224                   22607394.1994
   3973314.38347   3114846.31344  23143278.0634                   23143278.1804
 -12297385.81248  -9565492.15246  20636305.7584                   20636300.7974
 11  8 20  0  3 30.0000000  0  7G10G17G04G12G05G09G02
 -11524654.43748  -8965910.00846  20956799.2734                   20956797.3754
   9933427.80247   7758281.18745  22850617.8594                   22850615.7234
  -4608574.25848  -3570139.04746  21207379.1024                   21207377.0204
  -9476345.28548  -7369926.90646  21856761.3204                   21856758.5744
  -7430272.46547  -5784514.31645  22595680.4454                   22595679.0784
   4081098.65647   3198833.98444  23163788.7664                   23163788.4064
 -12271332.05548  -9545190.52046  20641263.4304                   20641258.5204
 11  8 20  0  4  0.0000000  0  7G10G17G04G12G05G09G02
 -11508581.65848  -8953385.73846  20959857.6804                   20959855.8594
  10018564.02947   7824621.06245  22866818.3284                   22866816.1484
  -4500420.44948  -3485863.37146  21227960.0474                   21227957.7664
  -9512088.64148  -7397778.84046  21849959.6024                   21849956.8364
  -7491565.39847  -5832274.96545  22584017.0234                   22584015.8794
   4189235.14147   3283096.11744  23184366.4304                   23184365.6724
 -12244883.73548  -9524581.42546  20646296.2664                   20646290.8914
 11  8 20  0  4 30.0000000  0  8G10G17G04G30G12G05G09G02
 -11491839.38348  -8940339.78946  20963043.8834                   20963041.4774
  10103899.64547   7891116.29345  22883057.0944                   22883055.0824
  -4391992.00448  -3401373.69146  21248593.1724                   21248591.0704
   -112235.88356    -73262.21953  24346584.8674                   24346583.4774
  -9547421.70748  -7425311.06646  21843236.2034                   21843232.8874
  -7552590.65647  -5879827.02345  22572404.0394                   22572402.3404
   4297716.89847   3367627.27744  23205009.8674                   23205009.3284
 -12218045.83648  -9503668.76646  20651403.4844                   20651399.0084
 11  8 20  0  5  0.0000000  0  8G10G17G04G30G12G05G09G02
 -11474433.50048  -8926776.73046  20966355.8914                   20966353.6764
  10189428.33247   7957762.02345  22899332.8444                   22899330.3324
  -4283297.99648  -3316677.08246  21269277.1024                   21269275.3914
   -180097.53546   -126141.41043  24333671.7344                   24333670.1644
  -9582348.85247  -7452527.00046  21836589.0004                   21836586.5314
  -7613351.80947  -5927173.27345  22560841.1804                   22560840.5204
   4406533.37147   3452419.25844  23225717.2664                   23225716.7194
 -12190826.28948  -9482458.71946  20656583.3284                   20656578.6134
 11  8 20  0  5 30.0000000  0  8G10G17G04G30G12G05G09G02
 -11456357.34048  -8912691.39546  20969795.4694                   20969793.5474
  10275155.96147   8024562.68445  22915646.3674                   22915643.7894
  -4174336.07048  -3231771.69545  21290011.8754                   21290009.3674
   -247723.71146   -178837.07043  24320801.9774                   24320800.9494
  -9616862.74248  -7479420.91046  21830022.0944                   21830018.8634
  -7673841.39147  -5974307.92245  22549330.5944                   22549329.5084
   4515686.03147   3537473.20744  23246488.0554                   23246487.9414
 -12163221.30148  -9460948.32446  20661836.3914                   20661831.3754
 11  8 20  0  6  0.0000000  0  8G10G17G04G30G12G05G09G02
 -11437610.19948  -8898083.22346  20973363.3524                   20973360.9734
  10361082.74247   8091518.59845  22931998.2194                   22931995.6604
  -4065108.37948  -3146659.24246  21310796.6644                   21310794.9344
   -315111.81646   -231347.21543  24307978.8364                   24307978.4694
  -9650960.72748  -7505990.73446  21823533.0944                   21823529.8164
  -7734056.30147  -6021228.55145  22537871.7424                   22537870.5664
   4625171.46547   3622786.46144  23267322.4224                   23267322.5434
 -12135231.85948  -9439138.36746  20667162.7504                   20667157.3714
 11  8 20  0  6 30.0000000  0  8G10G17G04G30G12G05G09G02
 -11418192.86348  -8882952.81646  20977058.1564                   20977055.6024
  10447207.49247   8158628.73445  22948387.1094                   22948384.4224
  -3955619.18748  -3061343.00046  21331632.3364                   21331630.1024
   -382260.77046   -283671.06643  24295201.0474                   24295199.8364
  -9684641.94948  -7532235.81246  21817123.3364                   21817120.7234
  -7793995.54747  -6067934.35945  22526465.8834                   22526464.4064
   4734984.39147   3708354.88344  23288219.3754                   23288218.6094
 -12106860.64148  -9417030.90646  20672561.2034                   20672556.3834
 11  8 20  0  7  0.0000000  0  9G10G17G04G30G12G05G25G09G02
 -11398107.54348  -8867301.88346  20980880.5164                   20980877.7664
  10533527.60247   8225891.10545  22964813.0084                   22964810.8364
  -3845873.58248  -2975826.96546  21352516.1954                   21352514.1884
   -449171.11746   -335808.93043  24282467.9144                   24282467.3094
  -9717907.39548  -7558156.91046  21810793.6484                   21810790.3134
  -7853659.38347  -6114425.57845  22515111.9774                   22515111.0634
   -106398.96956    -67516.03953  24690133.2734                   24690133.5084
   4845118.09047   3794173.28144  23309177.5554                   23309177.0904
 -12078111.91848  -9394629.30546  20678031.9064                   20678027.1334
 11  8 20  0  7 30.0000000  0  9G10G17G04G30G12G05G25G09G02
 -11377344.85548  -8851123.14546  20984831.2344                   20984828.9144
  10620052.05547   8293312.72545  22981277.8444                   22981275.9144
  -3735865.64548  -2890106.52346  21373449.7344                   21373447.7114
   -515831.76646   -387752.26643  24269782.7424                   24269782.6914
  -9750746.34448  -7583745.66846  21804544.4534                   21804541.2194
  -7913036.59047  -6160693.45745  22503812.4694                   22503811.7934
   -171910.24646   -118563.74643  24677666.5164                   24677666.9844
   4955577.44447   3880245.42244  23330197.3364                   23330197.3164
 -12048978.14548  -9371927.66446  20683576.3054                   20683571.0824
 11  8 20  0  8  0.0000000  0  9G10G17G04G30G12G05G25G09G02
 -11355914.35248  -8834424.02746  20988909.5864                   20988907.0944
  10706770.68047   8360885.64545  22997780.3054                   22997777.8954
  -3625608.60948  -2804191.96546  21394431.1094                   21394429.0044
   -582250.80146   -439507.30543  24257144.6954                   24257142.6604
  -9783166.93048  -7609008.43446  21798375.0784                   21798371.6884
  -7972134.72347  -6206743.86345  22492567.0084                   22492565.8324
   -237261.59846   -169486.80544  24665230.7274                   24665232.2854
   5066348.51646   3966560.46544  23351275.7274                   23351276.0594
 -12019471.20348  -9348935.23846  20689191.0784                   20689186.0944
 11  8 20  0  8 30.0000000  0  9G10G17G04G30G12G05G25G09G02
 -11333811.84448  -8817201.26646  20993115.6174                   20993112.9344
  10793687.25847   8428612.82045  23014320.3594                   23014317.6644
  -3515101.05948  -2718082.20746  21415460.5004                   21415458.2504
   -648422.16446   -491069.35943  24244552.0004                   24244550.8484
  -9815163.29348  -7633940.62546  21792286.1954                   21792282.7114
  -8030947.68047  -6252572.05545  22481375.2424                   22481373.8874
   -302447.31646   -220280.83644  24652826.3364                   24652827.7384
   5177430.74647   4053117.98044  23372414.5554                   23372414.0634
 -11989588.97748  -9325650.37946  20694877.5474                   20694872.6684
 11  8 20  0  9  0.0000000  0  9G10G17G04G30G12G05G25G09G02
 -11311031.42248  -8799450.27046  20997450.4694                   20997447.6054
  10880807.69247   8496498.81745  23030898.7974                   23030896.3134
  -3404340.30148  -2631775.13745  21436537.5004                   21436534.9924
   -714337.93846   -542432.21143  24232008.8524                   24232007.4184
  -9846727.82848  -7658536.34446  21786279.8444                   21786276.4844
  -8089467.22947  -6298171.61945  22470238.6484                   22470237.8014
   -367459.78246   -270939.85043  24640454.6644                   24640456.0664
   5288826.13047   4139919.49844  23393612.1884                   23393612.2344
 -11959327.17548  -9302069.74446  20700636.0084                   20700630.6564
 11  8 20  0  9 30.0000000  0  9G10G17G04G30G12G05G25G09G02
 -11287566.50848  -8781165.89546  21001915.8594                   21001913.3134
  10968137.87547   8564548.26645  23047516.6884                   23047514.8444
  -3293322.80148  -2545268.02046  21457663.5084                   21457661.1994
   -779989.94946   -593589.55142  24219515.3984                   24219513.3524
  -9877852.46148  -7682789.27746  21780357.1254                   21780354.0084
  -8147685.03547  -6343536.07845  22459160.6954                   22459158.8094
   -432291.08246   -321457.68744  24628117.3134                   24628119.0434
   5400536.84447   4226966.72744  23414870.2504                   23414869.8674
 -11928681.39148  -9278189.90646  20706467.7814                   20706462.5634
 11  8 20  0 10  0.0000000  0  9G10G17G04G30G12G05G25G09G02
 -11263415.37948  -8762346.81646  21006511.5314                   21006509.3204
  11055678.91847   8632762.03145  23064175.6644                   23064172.5944
  -3182050.56648  -2458562.40646  21478837.7894                   21478835.4454
   -845374.78946   -644538.74243  24207072.6024                   24207070.7034
  -9908534.35948  -7706697.23446  21774518.2664                   21774515.3444
  -8205597.80547  -6388662.82845  22448140.2194                   22448138.2194
   -496938.12546   -371831.94143  24615815.4774                   24615817.1294
   5512559.91047   4314257.34844  23436187.9924                   23436187.3714
 -11897652.11748  -9254011.24246  20712372.2274                   20712367.2894
 11  8 20  0 10 30.0000000  0  9G10G17G04G30G12G05G25G09G02
 -11238583.61748  -8742997.38346  21011236.6254                   21011234.3594
  11143425.52747   8701135.98844  23080873.8054                   23080870.2344
  -3070531.88348  -2371664.74245  21500058.9384                   21500057.2424
   -910495.81646   -695282.33643  24194680.2194                   24194678.7504
  -9938777.30947  -7730263.14146  21768763.0784                   21768760.1804
  -8263208.42647  -6433554.14845  22437177.0474                   22437175.3284
   -561404.72746   -422065.60943  24603548.8364                   24603549.5784
   5624885.94547   4401784.03144  23457562.8594                   23457562.5904
 -11866246.27748  -9229539.14146  20718348.9304                   20718343.8634
 11  8 20  0 11  0.0000000  0  9G10G17G04G30G12G05G25G09G02
 -11213060.55148  -8723109.25446  21016093.2974                   21016091.5084
  11231387.97747   8769678.12944  23097611.4844                   23097609.8914
  -2958758.83248  -2284568.87946  21521328.6884                   21521326.4924
   -975340.46446   -745810.58842  24182341.2504                   24182338.4064
  -9968568.60248  -7753477.11346  21763093.9774                   21763091.0944
  -8320504.32047  -6478200.22745  22426273.9844                   22426272.3754
   -625678.48046   -472149.00843  24591317.3134                   24591318.4224
   5737521.20347   4489551.69944  23478996.6564                   23478996.4024
 -11834455.36748  -9204767.00046  20724398.3674                   20724393.7344
 11  8 20  0 11 30.0000000  0  9G10G17G04G30G12G05G25G09G02
 -11186846.29748  -8702682.54746  21021082.0554                   21021079.9574
  11319565.74246   8838388.05945  23114391.5554                   23114390.3244
  -2846734.96548  -2197277.56246  21542646.4454                   21542644.0744
  -1039907.26646   -796122.31643  24170053.8914                   24170052.3094
  -9997907.37948  -7776338.47746  21757511.2894                   21757507.9144
  -8377483.64147  -6522599.62145  22415431.2664                   22415429.8324
   -689758.07446   -522081.09443  24579123.6564                   24579124.6914
   5850460.96147   4577556.59444  23500488.3594                   23500488.8554
 -11802281.44548  -9179696.39846  20730520.9144                   20730515.7934
 11  8 20  0 12  0.0000000  0  9G10G17G04G30G12G05G25G09G02
 -11159939.64848  -8681716.31246  21026201.9694                   21026199.6094
  11407959.59847   8907266.38345  23131212.3204                   23131210.2154
  -2734461.90648  -2109792.08646  21564011.1564                   21564008.7664
  -1104192.78146   -846214.86743  24157821.0704                   24157819.7584
 -10026790.52348  -7798844.80946  21752014.5784                   21752011.6094
  -8434143.19947  -6566749.84445  22404649.0634                   22404647.2274
   -753640.54747   -571859.56643  24566966.9924                   24566967.7704
   5963702.22747   4665796.47344  23522037.6724                   23522037.1844
 -11769725.29748  -9154327.95746  20736716.0944                   20736711.2704
 11  8 20  0 12 30.0000000  0  9G10G17G04G30G12G05G25G09G02
 -11132340.87948  -8660210.77046  21031453.9534                   21031451.3244
  11496569.25047   8976312.81345  23148073.7894                   23148072.3714
  -2621942.75848  -2022114.82446  21585422.4844                   21585420.8594
  -1168195.25446   -896086.85943  24145642.1484                   24145640.0824
 -10055216.36348  -7820994.80146  21746605.4774                   21746602.3134
  -8490480.25847  -6610648.77045  22393928.6644                   22393927.2774
   -817324.36746   -621483.31643  24554848.3204                   24554848.0744
   6077240.81347   4754268.03144  23543643.5474                   23543642.8364
 -11736788.62948  -9128663.01246  20742983.6094                   20742978.6334
 11  8 20  0 13  0.0000000  0  9G10G17G04G30G12G05G25G09G02
 -11104055.50048  -8638170.20746  21036836.7584                   21036833.8554
  11585389.30947   9045523.24645  23164976.2584                   23164974.4494
  -2509186.11348  -1934252.53145  21606879.7814                   21606877.0664
  -1231918.18446   -945741.02743  24133516.2814                   24133514.4064
 -10083188.91448  -7842791.57446  21741282.8284                   21741279.6214
  -8546498.81647  -6654299.51245  22383268.6484                   22383266.8054
   -880813.42246   -670955.20743  24542766.6884                   24542767.1994
   6191066.69547   4842963.41844  23565303.5004                   23565303.4494
 -11703478.99648  -9102707.44146  20749322.4694                   20749317.2704
 11  8 20  0 13 30.0000000  0  9G10G17G04G30G12G05G25G09G02
 -11075085.31648  -8615596.03146  21042349.5704                   21042347.2624
  11674417.43447   9114895.76245  23181917.9534                   23181915.1094
  -2396196.76248  -1846208.89545  21628381.1254                   21628378.1884
  -1295361.56246   -995177.38743  24121443.3134                   24121441.3874
 -10110708.61748  -7864235.48046  21736045.7274                   21736042.5434
  -8602198.99247  -6697702.16845  22372669.0234                   22372667.3794
   -944107.87546   -720275.50443  24530722.1094                   24530722.5944
   6305173.72747   4931877.87144  23587017.0234                   23587017.3754
 -11669800.23048  -9076464.23046  20755731.3984                   20755725.7854
 11  8 20  0 14  0.0000000  0  9G10G17G04G30G12G05G25G09G02
 -11045418.78548  -8592479.25046  21047994.7274                   21047992.6374
  11763665.22347   9184439.44545  23198901.5864                   23198898.7344
  -2282965.83648  -1757977.01645  21649927.8364                   21649925.4414
  -1358511.50446  -1044385.06643  24109426.1174                   24109424.2304
 -10137761.78948  -7885315.86746  21730897.2344                   21730894.6414
  -8657566.39547  -6740845.52045  22362132.6334                   22362131.2154
  -1007194.15246   -769433.60543  24518716.9924                   24518717.4104
   6419569.76647   5021017.55944  23608786.3134                   23608786.4264
 -11635742.19948  -9049925.48846  20762212.0394                   20762207.1254
 11  8 20  0 14 30.0000000  0  9G10G17G04G30G12G05G25G09G02
 -11015066.18048  -8568827.85246  21053770.5474                   21053768.3674
  11853122.55547   9254146.43444  23215924.0164                   23215921.3244
  -2169506.17648  -1669566.90645  21671518.6954                   21671516.4224
  -1421375.89546  -1093370.25444  24097463.2034                   24097461.5274
 -10164356.76248  -7906039.20746  21725836.8754                   21725833.7894
  -8712608.08247  -6783735.06245  22351658.3204                   22351657.0864
  -1070080.39547   -818435.81643  24506750.1094                   24506751.0554
   6534240.73846   5110371.46544  23630607.9144                   23630607.3794
 -11601316.64148  -9023100.37146  20768762.8444                   20768757.9414
 11  8 20  0 15  0.0000000  0  9G10G17G04G30G12G05G25G09G02
 -12559446.14848  -9772240.80546  20759884.8444                   20759882.3874
  10367372.43047   8096419.02045  22933194.5314                   22933192.9734
  -3631236.68048  -2808577.70345  21393360.2894                   21393358.4694
  -3059374.63346  -2369732.82443  23785762.2814                   23785761.4964
 -11765912.51248  -9154004.71546  21421071.0944                   21421067.6024
 -10342744.49247  -8053971.15245  22041453.7034                   22041452.4574
  -2708186.80146  -2094882.30544  24195028.2894                   24195029.8874
   5073766.29347   3972339.34444  23352688.6484                   23352689.1644
 -13141944.18048 -10223589.34846  20475591.3054                   20475586.2664
 11  8 20  0 15 30.0000000  0  9G10G17G04G30G12G05G25G09G02
 -12527707.98848  -9747509.76246  20765924.9774                   20765922.0394
  10457261.56347   8166462.44945  22950301.0084                   22950298.5594
  -3517314.77048  -2719807.39145  21415039.5164                   21415036.7464
  -3121648.48846  -2418257.83243  23773911.8834                   23773910.5824
 -11791572.57848  -9173999.54746  21416187.8594                   21416184.5044
 -10397117.00447  -8096339.26245  22031107.1414                   22031105.7504
  -2770654.45347  -2143558.33244  24183141.6804                   24183142.0084
   5188987.72347   4062122.18844  23374614.7734                   23374615.1954
 -13106775.98048 -10196185.54346  20482283.7194                   20482278.7074
 11  8 20  0 16  0.0000000  0  9G10G17G04G30G12G05G25G09G02
 -12495276.67648  -9722238.59046  20772096.0944                   20772093.3754
  10547367.14147   8236674.57444  22967447.2344                   22967445.7424
  -3403165.36748  -2630859.81645  21436761.0314                   21436758.8364
  -3183623.44946  -2466549.90243  23762117.9144                   23762116.8634
 -11816762.10548  -9193627.73446  21411394.6564                   21411391.5204
 -10451150.55947  -8138443.24245  22020824.8524                   22020823.8364
  -2832909.43747  -2192068.63344  24171294.6724                   24171296.0004
   5304478.53146   4152114.92644  23396591.3134                   23396592.5204
 -13071238.52348 -10168494.00046  20489046.0394                   20489040.8954
 11  8 20  0 16 30.0000000  0  9G10G17G04G30G12G05G25G09G02
 -12462145.49647  -9696422.06246  20778400.6334                   20778397.7544
  10637695.82847   8307060.50844  22984636.6334                   22984633.8164
  -3288784.82848  -2541732.14545  21458527.1334                   21458524.1844
  -3245290.64846  -2514602.23943  23750382.5634                   23750381.2734
 -11841472.83248  -9212882.83246  21406692.1414                   21406689.0394
 -10504836.49247  -8180276.35945  22010608.3674                   22010607.2774
  -2894943.26247  -2240406.61744  24159490.1644                   24159490.9844
   5420241.46047   4242319.72944  23418621.2274                   23418621.2664
 -13035326.77048 -10140510.79746  20495879.8594                   20495874.6644
 11  8 20  0 17  0.0000000  0  9G10G17G04G30G12G05G25G09G02
 -12428316.04747  -9670061.43746  20784837.8674                   20784835.0904
  10728246.07047   8377619.09044  23001867.3754                   23001864.9734
  -3174176.43748  -2452426.92645  21480336.1094                   21480334.2774
  -3306648.78446  -2562413.72843  23738707.0004                   23738705.0984
 -11865704.08648  -9231764.31146  21402080.9224                   21402077.7934
 -10558173.49247  -8221837.59445  22000459.0864                   22000457.6174
  -2956755.15247  -2288571.68044  24147727.3834                   24147728.2854
   5536271.72746   4332732.83244  23440699.7034                   23440700.4454
 -12999043.75848 -10112238.30546  20502784.4144                   20502779.4224
 11  8 20  0 17 30.0000000  0  9G10G17G04G30G12G05G25G09G02
 -12393785.17648  -9643154.26246  20791409.2034                   20791406.1454
  10819021.07047   8448352.81644  23019140.9844                   23019139.3324
  -3059340.19548  -2362944.15245  21502188.8284                   21502186.1024
  -3367692.74246  -2609980.37143  23727090.5704                   23727088.8094
 -11889450.78948  -9250268.21946  21397562.4774                   21397559.0044
 -10611156.07047  -8263122.63745  21990377.0084                   21990375.0124
  -3018339.88347  -2336559.69144  24136008.2424                   24136009.4884
   5652567.84447   4423353.11343  23462831.1174                   23462831.3754
 -12962387.86748 -10083675.25446  20509760.0084                   20509754.5744
 11  8 20  0 18  0.0000000  0  9G10G17G04G30G12G05G25G09G02
 -12358549.81248  -9615698.11746  20798114.1644                   20798111.1954
  10910023.96947   8519264.12144  23036458.5474                   23036456.3874
  -2944275.59848  -2273283.44545  21524084.8674                   21524082.3094
  -3428417.26246  -2657298.12943  23715536.1024                   23715534.5044
 -11912708.28148  -9268390.93446  21393136.6484                   21393133.4144
 -10663779.02347  -8304127.46545  21980362.4384                   21980361.1214
  -3079692.60246  -2384366.94944  24124333.0634                   24124334.1174
   5769128.98846   4514179.89544  23485012.6094                   23485012.7584
 -12925358.23048 -10054820.97346  20516806.3914                   20516801.5164
 11  8 20  0 18 30.0000000  0  9G10G17G04G30G12G05G25G09G02
 -12322604.27348  -9587688.59446  20804954.0554                   20804951.6094
  11001260.46547   8590357.46144  23053820.9304                   23053818.0634
  -2828979.47348  -2183442.32445  21546025.0164                   21546023.1484
  -3488814.26246  -2704360.67643  23704041.1484                   23704040.9774
 -11935468.85248  -9286126.41846  21388804.9454                   21388801.9534
 -10716034.09447  -8344845.62546  21970419.0704                   21970417.2814
  -3140805.40246  -2431987.25844  24112703.6644                   24112704.7584
   5885957.28147   4605214.85244  23507244.0004                   23507244.4264
 -12887950.42648 -10025672.01246  20523924.6094                   20523919.5594
 11  8 20  0 19  0.0000000  0  9G10G17G04G30G12G05G25G09G02
 -12285952.32047  -9559128.62546  20811928.6644                   20811926.3404
  11092727.18447   8661630.20745  23071226.2584                   23071224.4534
  -2713457.84848  -2093425.49245  21568008.2034                   21568006.2624
  -3548884.84046  -2751168.85944  23692611.3204                   23692610.0314
 -11957734.07448  -9303475.93046  21384568.0474                   21384565.0824
 -10767922.58247  -8385278.14145  21960544.9144                   21960543.1134
  -3201679.77046  -2479421.76244  24101119.9224                   24101120.8284
   6003045.02047   4696451.94944  23529525.3754                   23529525.4534
 -12850169.25048  -9996232.11746  20531114.8984                   20531108.8204
 11  8 20  0 19 30.0000000  0  9G10G17G04G30G12G05G25G09G02
 -12248586.46548  -9530012.35246  20819039.5634                   20819037.1254
  11184431.85547   8733088.34444  23088676.9454                   23088674.9414
  -2597705.52348  -2003228.89145  21590035.4064                   21590032.6914
  -3608619.07447  -2797714.95343  23681244.0234                   23681242.8984
 -11979494.46148  -9320432.04746  21380427.4454                   21380424.5744
 -10819434.36347  -8425417.12546  21950742.4534                   21950740.8204
  -3262305.92246  -2526662.87543  24089582.5784                   24089584.1954
   6120395.95346   4787894.14144  23551855.7034                   23551856.6024
 -12812008.84448  -9966496.72346  20538376.1644                   20538370.6884
 11  8 20  0 20  0.0000000  0  9G10G17G04G30G12G05G25G09G02
 -12210510.74248  -9500342.94146  20826284.6334                   20826282.8404
  11276370.55147   8804728.82845  23106172.3524                   23106170.8794
  -2481729.14548  -1912857.69945  21612105.0394                   21612102.4884
  -3668018.44547  -2844000.12944  23669941.5084                   23669939.4774
 -12000752.27348  -9336996.55946  21376382.0784                   21376378.8244
 -10870570.84047  -8465263.65245  21941011.3364                   21941009.5664
  -3322685.71946  -2573712.02043  24078091.9534                   24078093.5784
   6238002.40647   4879535.43044  23574236.2814                   23574236.3134
 -12773474.95348  -9936470.29346  20545708.5784                   20545703.7624
 11  8 20  0 20 30.0000000  0  9G10G17G04G30G12G05G25G09G02
 -12171720.44548  -9470116.72746  20833666.4224                   20833663.6414
  11368548.22347   8876555.55945  23123712.7034                   23123711.7624
  -2365526.46148  -1822310.17645  21634217.3134                   21634215.1804
  -3727075.98447  -2890018.93044  23658703.1024                   23658701.2624
 -12021500.57448  -9353164.04746  21372433.7584                   21372431.1414
 -10921324.99647  -8504812.27746  21931353.0944                   21931350.9184
  -3382812.32046  -2620563.87544  24066650.4144                   24066651.7774
   6355865.07446   4971376.38744  23596665.0634                   23596665.0314
 -12734564.25448  -9906150.25446  20553113.1334                   20553107.9264
 11  8 20  0 21  0.0000000  0  9G10G17G04G30G12G05G25G09G02
 -12132216.09648  -9439334.09846  20841183.4064                   20841181.0904
  11460964.89147   8948568.52344  23141299.7814                   23141297.7154
  -2249100.11848  -1731588.37745  21656373.1174                   21656369.9144
  -3785789.50847  -2935769.68444  23647529.8754                   23647528.0984
 -12041738.02948  -9368933.47046  21368582.8914                   21368579.8834
 -10971694.25047  -8544060.96946  21921768.7974                   21921766.9774
  -3442683.73447  -2667216.87944  24055257.7894                   24055259.3914
   6473980.03847   5063413.93844  23619141.3834                   23619141.5664
 -12695278.53948  -9875537.99646  20560588.9614                   20560583.8914
 11  8 20  0 21 30.0000000  0  9G10G17G04G30G12G05G25G09G02
 -12091997.78448  -9407995.14446  20848837.2814                   20848834.7624
  11553620.58947   9020767.73044  23158931.1484                   23158929.2934
  -2132452.28648  -1640693.98445  21678569.9844                   21678567.8484
  -3844156.43647  -2981250.37643  23636422.7194                   23636420.7074
 -12061462.47848  -9384303.16046  21364829.6954                   21364826.4344
 -11021676.43047  -8583008.05546  21912256.6724                   21912254.7774
  -3502297.70747  -2713669.24244  24043913.7274                   24043915.3754
   6592343.62147   5155645.22844  23641664.7194                   23641665.5204
 -12655619.21148  -9844634.61146  20568135.6724                   20568130.9964
 11  8 20  0 22  0.0000000  0  9G10G17G04G30G12G05G25G09G02
 -12051062.70348  -9376097.67246  20856626.7274                   20856624.2424
  11646518.20347   9093155.43844  23176608.7114                   23176606.5984
  -2015582.73848  -1549626.82845  21700809.5394                   21700807.1054
  -3902171.57847  -3026456.91443  23625382.3754                   23625380.9774
 -12080669.12948  -9399269.35246  21361174.6724                   21361171.2344
 -11071266.05147  -8621649.26246  21902820.0314                   21902818.5474
  -3561649.14847  -2759917.07044  24032619.6254                   24032621.0394
   6710954.66447   5248069.32444  23664235.7894                   23664236.7464
 -12615585.05148  -9813439.16046  20575754.1644                   20575749.2114
 11  8 20  0 22 30.0000000  0  9G10G17G04G30G12G05G25G09G02
 -12009415.58648  -9343645.36746  20864552.4144                   20864549.2854
  11739653.20747   9165728.09844  23194331.6334                   23194330.2704
  -1898498.24647  -1458392.19545  21723090.0554                   21723087.7034
  -3959836.93746  -3071390.92643  23614409.0314                   23614408.2344
 -12099360.71148  -9413834.20746  21357617.9144                   21357614.7034
 -11120465.50048  -8659986.41446  21893457.8674                   21893456.0554
  -3620740.56247  -2805962.25444  24021375.2894                   24021375.8554
   6829804.94146   5340679.85244  23686852.9064                   23686853.2734
 -12575182.00048  -9781956.26646  20583442.9384                   20583437.7114
 11  8 20  0 23  0.0000000  0  9G10G17G04G30G12G05G25G09G02
 -11967055.59048  -9310637.55546  20872612.9924                   20872610.2424
  11833027.34447   9238487.12944  23212100.5314                   23212098.4574
  -1781200.04348  -1366991.02345  21745411.3364                   21745408.5744
  -4017148.88746  -3116049.50843  23603503.2894                   23603502.2194
 -12117534.03947  -9427995.22346  21354159.3134                   21354156.1954
 -11169270.71547  -8698016.39146  21884170.4454                   21884169.0824
  -3679568.28547  -2851801.98444  24010180.9144                   24010181.3914
   6948891.90047   5433474.78144  23709514.5474                   23709514.5634
 -12534410.23048  -9750186.05546  20591201.3134                   20591195.8914
 11  8 20  0 23 30.0000000  0  9G10G17G04G30G12G05G25G09G02
 -11923978.82848  -9277071.24246  20880810.0784                   20880807.4184
  11926644.82047   9311435.75844  23229915.2664                   23229914.0634
  -1663686.19548  -1275421.82045  21767772.7344                   21767770.7114
  -4074100.91446  -3160427.64543  23592665.4064                   23592664.5314
 -12135183.25448  -9441747.83646  21350800.7504                   21350797.4774
 -11217675.35947  -8735734.22346  21874959.5164                   21874957.3444
  -3738126.12147  -2897431.39844  23999037.5704                   23999038.3874
   7068215.66447   5526454.23444  23732220.7194                   23732220.5554
 -12493267.55148  -9718126.80946  20599030.2504                   20599025.0554
 11  8 20  0 24  0.0000000  0  9G10G17G04G30G12G05G25G09G02
 -11880183.07448  -9242944.66846  20889143.8284                   20889141.1724
  12020508.36347   9384576.13344  23247777.4224                   23247775.1374
  -1545956.60948  -1183684.50845  21790176.2584                   21790173.9614
  -4130687.79746  -3204521.27343  23581897.5634                   23581895.9494
 -12152303.60247  -9455088.35246  21347543.0704                   21347539.9494
 -11265673.98447  -8773135.67246  21865825.5784                   21865823.4024
  -3796408.90247  -2942846.50044  23987946.5314                   23987947.1954
   7187775.30147   5619617.49244  23754972.6724                   23754972.6644
 -12451752.59448  -9685777.48446  20606930.5084                   20606924.8794
 11  8 20  0 24 30.0000000  0  9G10G17G04G30G12G05G25G09G02
 -11835675.42647  -9208263.37546  20897613.4454                   20897611.4804
  12114611.11347   9457902.94544  23265683.8134                   23265682.3594
  -1428020.71548  -1091786.43445  21812618.7734                   21812616.6804
  -4186914.35546  -3248334.12543  23571197.4614                   23571196.7504
 -12168900.48448  -9468020.96546  21344384.3914                   21344381.4574
 -11313271.62547  -8810224.69546  21856767.7034                   21856766.0124
  -3854421.96547  -2988051.41844  23976906.8444                   23976907.7544
   7307559.80947   5712955.97743  23777766.3204                   23777766.9454
 -12409874.34048  -9653145.07246  20614899.4924                   20614894.4264
 11  8 20  0 25  0.0000000  0  9G10G17G04G30G12G05G25G09G02
 -11790453.09047  -9173025.18446  20906219.0004                   20906216.9494
  12208956.22747   9531418.55544  23283637.1024                   23283635.9694
  -1309877.71948   -999726.98845  21835100.8134                   21835098.8714
  -4242774.92646  -3291861.75343  23560568.0164                   23560566.5904
 -12184968.93448  -9480541.82046  21341327.4844                   21341323.7894
 -11360462.56247  -8846996.78546  21847787.8914                   21847786.4534
  -3912159.71547  -3033041.82444  23965919.2274                   23965920.1684
   7427568.71546   5806469.31644  23800603.6024                   23800604.5904
 -12367630.91448  -9620228.10046  20622937.9924                   20622933.3524
 11  8 20  0 25 30.0000000  0  9G10G17G04G30G12G05G25G09G02
 -11744518.25247  -9137231.78846  20914960.4064                   20914958.5314
  12303542.62947   9605122.20544  23301636.3284                   23301635.1524
  -1191531.60648   -907509.26345  21857621.7274                   21857618.9924
  -4298268.66647  -3335103.56744  23550007.9844                   23550005.8244
 -12200508.56048  -9492650.60346  21338370.0004                   21338366.6174
 -11407245.94047  -8883451.30046  21838885.1254                   21838883.1994
  -3969621.44247  -3077817.17144  23954984.8594                   23954984.7464
   7547796.58746   5900153.24543  23823481.8204                   23823483.1054
 -12325025.42648  -9587029.01346  20631045.8914                   20631040.6054
 11  8 20  0 26  0.0000000  0  9G10G17G04G30G12G05G25G09G02
 -11697868.85248  -9100881.59846  20923837.2114                   20923834.5744
  12398372.43847   9679015.52044  23319682.3594                   23319680.3524
  -1072981.96948   -815132.96145  21880180.9774                   21880178.3204
  -4353390.51647  -3378055.57444  23539518.1644                   23539516.1254
 -12215514.98447  -9504343.90646  21335513.9614                   21335510.6174
 -11453617.00847  -8919584.54346  21830061.1094                   21830058.8524
  -4026802.36747  -3122373.64544  23944102.8754                   23944104.5164
   7668242.10546   5994006.78143  23846402.4384                   23846402.5354
 -12282056.78548  -9553546.94946  20639222.3524                   20639217.5234
 11  8 20  0 26 30.0000000  0  9G10G17G04G30G12G05G25G09G02
 -11650506.11348  -9063975.56246  20932850.4384                   20932847.6054
  12493444.86747   9753097.90644  23337774.5864                   23337771.9614
   -954232.20348   -722600.70745  21902777.8674                   21902775.8404
  -4408139.09447  -3420716.73843  23529100.0704                   23529098.6054
 -12229987.36347  -9515621.05946  21332760.0474                   21332756.9534
 -11499574.13747  -8955395.21946  21821315.3834                   21821313.9734
  -4083701.27346  -3166710.37944  23933274.8284                   23933277.2544
   7788900.68846   6088026.36344  23869363.2034                   23869363.2504
 -12238727.68748  -9519784.01246  20647467.8834                   20647462.4654
 11  8 20  0 27  0.0000000  0  9G10G17G04G30G12G05G25G09G02
 -11602426.83648  -9026511.18446  20941999.3054                   20941997.1884
  12588763.89547   9827372.43844  23355912.6334                   23355910.4694
   -835280.64548   -629911.21145  21925413.9534                   21925411.4144
  -4462508.26647  -3463082.28144  23518754.0474                   23518751.9964
 -12243920.39548  -9526477.94946  21330109.1484                   21330105.7624
 -11545111.12947  -8990878.53546  21812649.9774                   21812648.1684
  -4140312.21546  -3210822.72344  23922502.9064                   23922503.8164
   7909772.47347   6182212.06644  23892364.9454                   23892365.4304
 -12195035.91848  -9485738.46146  20655782.1564                   20655776.8444
 11  8 20  0 27 30.0000000  0  9G10G17G04G30G12G05G25G09G02
 -11553635.19948  -8988491.71546  20951284.1024                   20951281.6804
  12684326.55547   9901836.75844  23374097.5784                   23374096.0944
   -716133.18448   -537069.07045  21948086.6564                   21948085.0164
  -4516499.02747  -3505152.90644  23508479.6804                   23508477.9224
 -12257315.60248  -9536915.76646  21327559.4454                   21327556.5904
 -11590229.13748  -9026035.36346  21804064.4534                   21804062.5044
  -4196636.30147  -3254711.56244  23911785.1644                   23911785.6334
   8030849.99647   6276558.09443  23915404.5784                   23915405.6024
 -12150986.46948  -9451414.20346  20664164.4844                   20664159.1454
 11  8 20  0 28  0.0000000  0  9G10G17G04G30G12G05G25G09G02
 -11504124.39848  -8949911.86346  20960705.7274                   20960703.3484
  12780139.48447   9976496.10944  23392330.6804                   23392328.5204
   -596785.43448   -444070.84845  21970798.4384                   21970795.4924
  -4570101.95347  -3546921.38744  23498279.4534                   23498278.4184
 -12270164.17647  -9546927.62546  21325114.4304                   21325111.4804
 -11634918.80147  -9060858.40246  21795560.0784                   21795558.1604
  -4252664.54347  -3298369.87144  23901122.6954                   23901123.8134
   8152136.21546   6371066.72344  23938484.7034                   23938485.3364
 -12106574.10548  -9416807.15646  20672615.3444                   20672610.6454
 11  8 20  0 28 30.0000000  0  9G10G17G04G30G12G05G25G09G02
 -11453900.16448  -8910776.09846  20970262.9144                   20970260.5394
  12876197.48447  10051346.45044  23410609.6024                   23410607.8954
   -477244.47348   -350922.07045  21993545.8284                   21993543.7114
  -4623319.82847  -3588389.80944  23488152.2584                   23488150.6024
 -12282469.13348  -9556515.89546  21322773.0554                   21322769.8754
 -11679182.85548  -9095349.82446  21787137.1954                   21787135.1604
  -4308399.60947  -3341799.71544  23890517.1644                   23890518.1054
   8273622.39847   6465731.19944  23961603.4774                   23961603.7344
 -12061805.78548  -9381922.74246  20681134.9064                   20681129.5274
 11  8 20  0 29  0.0000000  0  9G10G17G04G30G12G05G25G09G02
 -11402959.67648  -8871082.19946  20979956.9064                   20979954.4534
  12972504.42647  10126390.76644  23428936.3134                   23428934.4064
   -357509.21548   -257621.89545  22016330.8054                   22016328.6414
  -4676146.65247  -3629553.53144  23478100.0634                   23478098.1644
 -12294226.07848  -9565677.14146  21320535.8524                   21320532.4104
 -11723015.31248  -9129504.91446  21778796.0314                   21778794.2274
  -4363835.92647  -3384996.77744  23879967.8444                   23879968.3954
   8395308.25447   6560551.24643  23984759.3524                   23984760.1334
 -12016679.09048  -9346759.07846  20689722.1414                   20689717.1764
 11  8 20  0 29 30.0000000  0  9G10G17G04G30G12G05G25G09G02
 -11351310.25448  -8830835.87946  20989785.6884                   20989782.6954
  13069053.88747  10201624.04744  23447309.5474                   23447307.1214
   -237588.44148   -164177.15645  22039151.2114                   22039148.8554
  -4728586.45347  -3670415.67644  23468120.8284                   23468119.1024
 -12305439.37747  -9574414.76846  21318401.9844                   21318398.7074
 -11766420.37947  -9163326.98646  21770535.7734                   21770534.6174
  -4418977.61247  -3427964.25744  23869475.2664                   23869475.7894
   8517183.66347   6655518.99743  24007951.8674                   24007952.1414
 -11971202.06648  -9311322.42646  20698376.3134                   20698370.6844
 11  8 20  0 30  0.0000000  0  9G10G17G04G30G12G05G25G09G02
 -11298952.46148  -8790037.59446  20999748.5554                   20999746.3324
  13165846.05147  10277046.43844  23465728.5944                   23465726.3444
   -117484.54348    -70589.73045  22062005.7734                   22062003.5864
  -4780636.99247  -3710974.51644  23458215.6024                   23458213.7384
 -12316107.04748  -9582727.22746  21316371.8524                   21316368.7504
 -11809395.82848  -9196814.28146  21762357.8914                   21762356.2894
  -4473822.52747  -3470700.51644  23859038.7974                   23859038.7624
   8639244.81647   6750631.50444  24031179.0084                   24031178.8954
 -11925376.48848  -9275614.18446  20707096.7664                   20707091.0944
 11  8 20  0 30 30.0000000  0  9G10G17G04G30G12G05G25G09G02
 -11245888.78148  -8748689.26246  21009846.2034                   21009843.8134
  13262878.95347  10352656.45245  23484193.1174                   23484191.0984
      2798.45348     23137.26445  22084894.9384                   22084893.2234
  -4832297.62747  -3751229.52044  23448384.9454                   23448383.1024
 -12326229.70748  -9590615.01146  21314445.8204                   21314442.3164
 -11851941.45747  -9229966.65646  21754261.7194                   21754260.7544
  -4528370.29747  -3513205.22344  23848658.0164                   23848658.0594
   8761485.96947   6845884.23044  24054440.1564                   24054441.4184
 -11879205.76048  -9239636.98946  20715882.1254                   20715877.2894
 11  8 20  0 31  0.0000000  0  9G10G17G04G30G12G05G25G09G02
 -11192111.40248  -8706784.79346  21020079.8284                   21020076.9614
  13360161.33247  10428460.86345  23502706.3834                   23502704.3324
    123266.59448    117008.53545  22107819.4304                   22107817.3404
  -4883557.66446  -3791172.38344  23438631.0234                   23438629.2114
 -12335797.35548  -9598070.30946  21312624.8594                   21312621.7664
 -11894046.36348  -9262775.61746  21746249.6414                   21746247.0784
  -4582610.25047  -3555470.09044  23838336.9454                   23838337.2504
   8883911.78547   6941280.87143  24077738.2274                   24077738.4024
 -11832683.43448  -9203385.82046  20724735.4304                   20724730.0904
 11  8 20  0 31 30.0000000  0  9G10G17G04G30G12G05G25G09G02
 -11137627.93448  -8664330.13346  21030447.8134                   21030444.8754
  13457686.21547  10504454.23445  23521264.5084                   23521262.4924
    243911.14848    211017.23045  22130777.4534                   22130775.8364
  -4934421.24246  -3830806.29743  23428951.2974                   23428949.9304
 -12344814.55147  -9605096.69146  21310909.0864                   21310905.5434
 -11935714.64547  -9295244.35546  21738320.3134                   21738318.4224
  -4636546.82447  -3597498.55544  23828072.8204                   23828073.0164
   9006511.73047   7036813.21143  24101067.7504                   24101068.6884
 -11785817.66848  -9166867.04746  20733653.4224                   20733648.1414
 11  8 20  0 32  0.0000000  0  9G10G17G04G30G12G05G25G09G02
 -11082437.07448  -8621324.25446  21040950.2734                   21040947.4534
  13555455.83647  10580638.31644  23539868.5704                   23539866.8484
    364731.96147    305163.31345  22153768.9924                   22153766.9534
  -4984883.91846  -3870127.83644  23419348.6024                   23419347.0984
 -12353277.79348  -9611691.42646  21309298.5004                   21309295.3674
 -11976942.22348  -9327369.67646  21730474.5474                   21730472.8164
  -4690175.64147  -3639287.22344  23817866.9534                   23817867.9534
   9129284.28546   7132480.04743  24124431.1884                   24124431.4534
 -11738607.50848  -9130079.89846  20742637.1954                   20742632.1914
 11  8 20  0 32 30.0000000  0  9G10G17G04G30G12G05G25G09G02
 -11026540.19548  -8577768.23446  21051587.0864                   21051583.7854
  13653469.76647  10657012.75444  23558519.8204                   23558518.0664
    485726.42647    399444.68845  22176793.4924                   22176791.0664
  -5034943.62346  -3909135.36744  23409821.7974                   23409820.5234
 -12361185.82047  -9617853.51246  21307793.7194                   21307790.5784
 -12017726.77748  -9359149.78946  21722713.7664                   21722711.7894
  -4743494.82447  -3680834.61344  23807721.1024                   23807721.9104
   9252225.55946   7228278.35943  24147825.6254                   24147825.9964
 -11691055.64848  -9093026.49246  20751686.1884                   20751681.2344
 11  8 20  0 33  0.0000000  0  9G10G17G04G30G12G05G25G09G02
 -10969937.03148  -8533661.84846  21062358.0314                   21062355.2504
  13751729.54747  10733578.76644  23577218.4924                   23577217.4384
    606893.32047    493860.43445  22199850.6414                   22199848.4224
  -5084596.90646  -3947826.19144  23400373.1804                   23400371.8834
 -12368535.80948  -9623580.77346  21306394.9064                   21306391.3444
 -12058065.14548  -9390582.23446  21715037.5944                   21715035.1564
  -4796501.10247  -3722138.17244  23797633.8364                   23797635.1054
   9375332.70346   7324205.89843  24171252.3284                   24171253.2194
 -11643162.18748  -9055706.91846  20760799.9454                   20760794.8634
 11  8 20  0 33 30.0000000  0  9G10G17G04G30G12G05G25G09G02
 -10912628.50048  -8489005.82446  21073263.6334                   21073260.8164
  13850234.76247  10810336.01244  23595963.3674                   23595961.0904
    728230.40247    588408.78545  22222940.4774                   22222938.2544
  -5133841.64847  -3986198.66844  23391003.1644                   23391000.6334
 -12375326.27348  -9628872.03946  21305103.1334                   21305099.2814
 -12097955.34048  -9421665.44546  21707446.7974                   21707444.4454
  -4849192.35547  -3763196.24244  23787607.2664                   23787607.4144
   9498601.80546   7420259.61743  24194708.9304                   24194710.7154
 -11594928.87148  -9018122.50046  20769978.5864                   20769973.4884
 11  8 20  0 34  0.0000000  0  9G10G17G04G30G12G05G25G09G02
 -10854615.32448  -8443800.74246  21084303.5234                   21084300.2154
  13948985.30547  10887284.43844  23614755.1484                   23614752.4574
    849735.38747    683087.96945  22246061.9694                   22246060.2234
  -5182675.30147  -4024250.79344  23381709.6644                   23381708.3164
 -12381555.71148  -9633726.13746  21303917.3364                   21303914.0744
 -12137394.79347  -9452397.41846  21699941.5864                   21699939.5394
  -4901566.21947  -3804007.03944  23777641.2894                   23777641.7034
   9622029.16046   7516436.65243  24218196.4064                   24218198.1134
 -11546357.22348  -8980274.45746  20779221.2974                   20779216.2664
 11  8 20  0 34 30.0000000  0  9G10G17G04G30G12G05G25G09G02
 -12371315.97348  -9625645.38746  20795684.6954                   20795681.9104
  12472565.87146   9736827.68444  23333801.3984                   23333799.5274
   -604009.00447   -449699.87945  21969423.5864                   21969421.5904
  -6806516.36347  -5289581.42244  23072703.0634                   23072701.9844
 -13962641.80548 -10865741.26246  21003046.9304                   21003043.9064
 -13751802.21948 -10710377.17646  21392730.0394                   21392728.0594
  -6529041.52047  -5072169.55144  23467943.5084                   23467943.5904
   8170195.84446   6385137.83643  23941922.3674                   23941923.6954
 -13072866.68048 -10169762.34046  20488736.1024                   20488730.8484
 11  8 20  0 35  0.0000000  0  9G10G17G04G30G12G05G25G09G02
 -12311899.57848  -9579346.86746  20806991.1024                   20806988.3444
  12571805.51246   9814157.20344  23352685.7194                   23352684.9304
   -482177.53547   -354766.28145  21992606.7664                   21992605.4304
  -6854523.71147  -5326989.68444  23063567.3524                   23063566.2734
 -13967747.20348 -10869719.46946  21002075.1414                   21002071.7114
 -13790337.12548 -10740404.31246  21385396.6484                   21385395.0784
  -6580776.98047  -5112482.83244  23458098.0084                   23458097.7584
   8293925.34846   6481550.32843  23965467.7114                   23965468.2154
 -13023626.69548 -10131393.51646  20498106.5704                   20498101.6334
 11  8 20  0 35 30.0000000  0  9G10G17G04G30G12G05G25G09G02
 -12251783.57448  -9532503.20746  20818430.7194                   20818428.1564
  12671288.14147   9891676.09044  23371618.0634                   23371616.2234
   -360186.84847   -259708.62945  22015821.5164                   22015820.2664
  -6902115.02347  -5364073.73444  23054511.5784                   23054509.6764
 -13972289.14848 -10873258.64546  21001210.7814                   21001207.3914
 -13828416.56648 -10770076.55546  21378150.9454                   21378148.6564
  -6632190.49647  -5152545.22344  23448314.4534                   23448313.4844
   8417800.04346   6578075.97343  23989040.7274                   23989041.2854
 -12974055.49648 -10092766.59446  20507539.4694                   20507534.2774
 11  8 20  0 36  0.0000000  0  9G10G17G04G30G12G05G25G09G02
 -12190971.77748  -9485117.37146  20830002.9304                   20830000.3554
  12771011.64546   9969382.62544  23390593.6334                   23390592.7424
   -238041.69147   -164530.61745  22039064.9694                   22039062.8484
  -6949290.63747  -5400833.91044  23045534.3054                   23045531.7624
 -13976268.72348 -10876359.60946  21000453.4694                   21000450.3014
 -13866041.62547 -10799394.71546  21370990.3364                   21370988.9694
  -6683282.54347  -5192357.17244  23438591.3134                   23438590.9184
   8541813.24246   6674709.52043  24012639.3754                   24012640.4964
 -12924157.35948 -10053884.91846  20517034.6804                   20517029.7814
 11  8 20  0 36 30.0000000  0  9G10G17G04G30G12G05G25G09G02
 -12129459.35248  -9437185.58246  20841708.1484                   20841705.5864
  12870982.25046  10047281.68444  23409617.8984                   23409616.7544
   -115738.23447    -69229.24645  22062338.4614                   22062336.1414
  -6996042.25047  -5437263.68444  23036637.9384                   23036636.0904
 -13979678.41048 -10879016.50046  20999804.8914                   20999801.7704
 -13903203.85248 -10828352.24246  21363919.1564                   21363916.9574
  -6734044.88747  -5231912.18044  23428931.9924                   23428931.5514
   8665967.31346   6771452.85243  24036265.2194                   24036265.9884
 -12873927.87948 -10014745.05546  20526592.9844                   20526587.9734
 11  8 20  0 37  0.0000000  0  9G10G17G04G30G12G05G25G09G02
 -12067242.44948  -9388704.85946  20853548.3674                   20853545.3524
  12971204.16047  10125376.62144  23428689.5474                   23428688.3164
      6726.14147     26197.48445  22085643.1024                   22085640.8404
  -7042362.68447  -5473357.45744  23027823.1884                   23027821.7584
 -13982511.73048 -10881224.28546  20999265.8594                   20999262.4694
 -13939896.30148 -10856943.69946  21356936.7664                   21356934.5594
  -6784470.43447  -5271204.76644  23419336.3834                   23419335.9614
   8790263.41446   6868306.83243  24059917.6564                   24059918.8594
 -12823364.25048  -9975344.81646  20536215.0004                   20536210.0744
 11  8 20  0 37 30.0000000  0  9G10G17G04G30G12G05G25G09G02
 -12004335.23848  -9339686.24246  20865518.7974                   20865515.9964
  13071664.44947  10203657.31644  23447806.2664                   23447805.2624
    129335.93848    121737.56645  22108975.0164                   22108972.6054
  -7088262.82047  -5509123.76644  23019087.8284                   23019086.7194
 -13984780.54348 -10882992.17646  20998833.7734                   20998830.5314
 -13976130.25048 -10885177.88746  21350041.3204                   21350039.0864
  -6834570.27047  -5310243.51644  23409802.2734                   23409802.9654
   8914684.57446   6965258.27743  24083594.5474                   24083595.4774
 -12772480.96148  -9935695.48846  20545897.6644                   20545892.8134
 11  8 20  0 38  0.0000000  0  9G10G17G04G30G12G05G25G09G02
 -11940734.05148  -9290126.85246  20877621.7274                   20877619.5784
  13172368.10247  10282127.63744  23466969.4224                   23466968.5274
    252094.37947    217393.46145  22132335.0474                   22132332.1804
  -7133735.30947  -5544556.80944  23010435.3204                   23010433.8874
 -13986478.35948 -10884315.14846  20998510.8054                   20998507.5004
 -14011898.23848 -10913049.00446  21343234.8834                   21343232.6334
  -6884336.97747  -5349022.70344  23400332.1174                   23400332.3634
   9039232.11347   7062308.19143  24107295.1254                   24107295.4344
 -12721274.68048  -9895794.47746  20555641.9924                   20555636.6454
 11  8 20  0 38 30.0000000  0  9G10G17G04G30G12G05G25G09G02
 -11876442.06248  -9240029.17646  20889855.8054                   20889853.3594
  13273313.53147  10360786.37944  23486179.4614                   23486177.7504
    374997.35547    313161.99245  22155722.6254                   22155721.0044
  -7178779.43047  -5579656.10544  23001864.0164                   23001862.1334
 -13987605.54348 -10885193.46546  20998296.5004                   20998293.5434
 -14047199.80548 -10940556.66446  21336516.7584                   21336515.0554
  -6933770.09047  -5387541.95744  23390925.5164                   23390925.1054
   9163900.53947   7159452.30943  24131019.0004                   24131019.9224
 -12669748.69548  -9855644.35946  20565446.6024                   20565442.0904
 11  8 20  0 39  0.0000000  0  9G10G17G04G30G12G05G25G09G02
 -11811457.78148  -9189392.04746  20902222.0004                   20902218.9774
  13374503.07446  10439635.29344  23505434.5234                   23505433.5234
    498045.30147    409043.48845  22179138.2974                   22179136.3134
  -7223390.44147  -5614417.88744  22993374.3364                   22993373.1214
 -13988158.27048 -10885624.15646  20998191.0704                   20998188.2034
 -14082030.23848 -10967697.20346  21329889.1094                   21329886.9924
  -6982864.91447  -5425797.60944  23381582.1174                   23381582.8244
   9288688.78947   7256689.80143  24154765.4064                   24154766.6914
 -12617902.48848  -9815244.70746  20575312.9384                   20575307.5664
 11  8 20  0 39 30.0000000  0  9G10G17G04G30G12G05G25G09G02
 -11745779.20348  -9138213.92646  20914720.4614                   20914717.5164
  13475940.09447  10518677.07844  23524738.3754                   23524736.5704
    621239.32047    505038.80145  22202580.9534                   22202579.3714
  -7267562.94547  -5648838.00844  22984968.6804                   22984966.9694
 -13988131.93748 -10885603.62946  20998195.8134                   20998193.0704
 -14116384.12548 -10994466.41846  21323352.1564                   21323349.8364
  -7031616.14147  -5463785.54744  23372305.2274                   23372306.3634
   9413596.18446   7354020.12143  24178534.2734                   24178535.4964
 -12565734.66848  -9774594.44946  20585239.8984                   20585235.1334
 11  8 20  0 40  0.0000000  0  9G10G17G04G30G12G05G25G09G02
 -11679414.41048  -9086501.08646  20927349.1484                   20927346.3364
  13577617.59447  10597906.21544  23544086.9534                   23544085.8204
    744570.36747    601140.89545  22226049.8134                   22226048.0434
  -7311301.28547  -5682919.80544  22976645.4844                   22976643.8674
 -13987531.77748 -10885135.97346  20998310.3834                   20998307.0744
 -14150266.58248 -11020868.27746  21316904.3134                   21316902.2114
  -7080028.19147  -5501509.16445  23363092.9534                   23363094.0554
   9538612.53546   7451435.37943  24202324.2584                   24202325.7974
 -12513253.41848  -9733699.96146  20595227.1724                   20595221.8984
 11  8 20  0 40 30.0000000  0  9G10G17G04G30G12G05G25G09G02
 -11612359.29748  -9034250.34046  20940108.8834                   20940106.3134
  13679540.96547  10677326.96544  23563482.0084                   23563480.5234
    868041.89547    697352.47345  22249546.1954                   22249544.2074
  -7354597.94147  -5716657.44544  22968406.1884                   22968404.5634
 -13986350.97348 -10884215.86346  20998535.0314                   20998531.7734
 -14183670.02048 -11046896.88346  21310547.7114                   21310545.2344
  -7128093.49247  -5538962.64144  23353946.7034                   23353947.1254
   9663739.33646   7548936.71143  24226135.4144                   24226136.3594
 -12460454.65248  -9692558.06646  20605274.2894                   20605269.2734
 11  8 20  0 41  0.0000000  0  9G10G17G04G30G12G05G25G09G02
 -11544614.98048  -8981462.54746  20953000.4924                   20952997.9534
  13781710.15546  10756939.26044  23582924.9384                   23582923.0664
    991652.07847    793672.08645  22273068.2504                   22273066.4184
  -7397450.17647  -5750048.75844  22960252.0084                   22960250.5704
 -13984588.22348 -10882842.28946  20998870.3204                   20998866.8754
 -14216592.05948 -11072550.35546  21304282.8054                   21304280.3404
  -7175809.54347  -5576143.93744  23344866.1884                   23344867.4614
   9788972.87546   7646521.18843  24249966.3594                   24249967.6524
 -12407340.03548  -9651170.05146  20615381.5084                   20615376.7774
 11  8 20  0 41 30.0000000  0  9G10G17G04G30G12G05G25G09G02
 -11476191.87948  -8928145.82846  20966020.6954                   20966018.1764
  13884116.10247  10836736.07444  23602411.4534                   23602409.7704
   1115389.72347    890091.00845  22296614.3674                   22296612.6484
  -7439865.00047  -5783099.24244  22952180.5394                   22952179.2664
 -13982251.06648 -10881021.13746  20999315.2504                   20999312.1214
 -14249039.78948 -11097834.25446  21298108.2274                   21298105.8484
  -7223183.25447  -5613058.48045  23335850.9614                   23335852.1174
   9914300.79746   7744179.23443  24273815.9694                   24273816.7734
 -12353920.40248  -9609544.35246  20625547.0474                   20625541.9454
 11  8 20  0 42  0.0000000  0  9G10G17G04G30G12G05G25G09G02
 -11407087.51648  -8874298.26246  20979170.5864                   20979168.1804
  13986762.84446  10916720.49244  23621944.2584                   23621943.5004
   1239256.79347    986610.78545  22320185.9064                   22320183.6844
  -7481835.98447  -5815803.87144  22944193.9534                   22944191.9184
 -13979334.37548 -10878748.38346  20999870.3284                   20999867.0234
 -14281006.83248 -11122743.58646  21292025.1024                   21292022.7734
  -7270208.41447  -5649701.42644  23326902.6644                   23326903.2894
  10039723.57046   7841911.16043  24297683.8524                   24297683.8444
 -12300193.58648  -9567679.29746  20635770.7894                   20635766.0594
 11  8 20  0 42 30.0000000  0  9G10G17G04G30G12G05G25G09G02
 -11337292.92248  -8819912.85946  20992452.1724                   20992449.6764
  14089660.54747  10996900.48444  23641525.2274                   23641524.0944
   1363261.46547   1083237.77045  22343783.0314                   22343780.7114
  -7523350.70347  -5848152.97744  22936293.8134                   22936292.0124
 -13975826.60248 -10876015.04346  21000537.5704                   21000534.9964
 -14312481.26648 -11147269.07046  21286035.5164                   21286033.4694
  -7316872.55947  -5686063.05945  23318022.8204                   23318023.4534
  10165247.43846   7939721.86343  24321569.6254                   24321570.5514
 -12246150.92648  -9525568.13746  20646055.0554                   20646049.9654
 11  8 20  0 43  0.0000000  0  9G10G17G04G30G12G05G25G09G02
 -11266823.61348  -8765001.72246  21005862.2584                   21005859.4574
  14192794.58147  11077264.59844  23661150.9384                   23661150.2734
   1487387.26247   1179959.15244  22367403.0784                   22367401.0124
  -7564421.10247  -5880155.85244  22928478.3524                   22928476.1914
 -13971740.62248 -10872831.16646  21001315.2814                   21001312.1524
 -14343475.12048 -11171420.08046  21280137.4694                   21280135.5784
  -7363187.69847  -5722152.74445  23309209.5164                   23309209.9454
  10290854.28146   8037597.22743  24345471.3444                   24345473.3134
 -12191808.47948  -9483223.36946  20656395.7424                   20656391.2424
 11  8 20  0 43 30.0000000  0  9G10G17G04G30G12G05G25G09G02
 -11195674.32048  -8709560.70746  21019401.8524                   21019398.9184
  14296172.15747  11157818.52345  23680824.0864                   23680822.5124
   1611639.26147   1276778.85944  22391047.7814                   22391045.4574
  -7605038.02747  -5911805.35444  22920749.2114                   22920747.4064
 -13967068.24048 -10869190.34146  21002204.5784                   21002201.4924
 -14373979.65048 -11195189.78946  21274333.1024                   21274330.3094
  -7409144.73547  -5757963.38845  23300464.2194                   23300464.0824
  10416547.95347   8135540.26643  24369391.1724                   24369391.5434
 -12137160.34048  -9440640.39846  20666795.3444                   20666790.2034
 11  8 20  0 44  0.0000000  0  9G10G17G04G30G12G05G25G09G02
 -11123855.94948  -8653598.33646  21033068.2274                   21033065.3364
  14399783.60947  11238554.68444  23700540.7034                   23700539.2664
   1736005.92247   1373687.92645  22414713.7584                   22414711.7814
  -7645208.59447  -5943107.04544  22913105.0004                   22913103.2464
 -13961817.83248 -10865099.10946  21003203.3284                   21003200.6094
 -14404002.21148 -11218583.94146  21268619.7344                   21268617.5554
  -7454750.78547  -5793500.53145  23291785.7424                   23291785.5004
  10542315.51647   8233540.85243  24393323.0864                   24393324.6024
 -12082217.91248  -9397828.10546  20677250.4534                   20677245.2114
 11  8 20  0 44 30.0000000  0  9G10G17G04G30G12G05G25G09G02
 -11051369.73048  -8597115.57046  21046861.6884                   21046859.1604
  14503628.83647  11319472.98844  23720301.4614                   23720300.0904
   1860485.50847   1470684.98844  22438401.5234                   22438399.6644
  -7684930.60247  -5974059.21944  22905545.6174                   22905544.1524
 -13955988.26248 -10860556.58246  21004312.6564                   21004309.8524
 -14433540.97748 -11241601.10946  21262998.6094                   21262996.3244
  -7500003.63347  -5828762.44144  23283173.7504                   23283174.5204
  10668152.84646   8331595.81343  24417269.5234                   24417271.1524
 -12026983.00448  -9354787.92646  20687760.9384                   20687755.8834
 11  8 20  0 45  0.0000000  0  9G10G17G04G30G12G05G25G09G02
 -10978215.07448  -8540111.94546  21060782.5634                   21060780.3324
  14607710.36746  11400575.42644  23740107.5864                   23740106.0704
   1985078.28947   1567770.25045  22462110.5474                   22462108.9884
  -7724199.26247  -6004658.11344  22898073.3054                   22898072.2154
 -13949575.55948 -10855559.66446  21005533.1174                   21005529.8134
 -14462591.31248 -11264237.69146  21257470.4304                   21257468.4344
  -7544898.58247  -5863745.46944  23274630.8914                   23274631.2854
  10794058.93846   8429704.35943  24441229.4924                   24441230.5634
 -11971454.44148  -9311518.90246  20698328.1414                   20698322.9104
 11  8 20  0 45 30.0000000  0  9G10G17G04G30G12G05G25G09G02
 -10904392.48448  -8482587.85246  21074830.5394                   21074828.3984
  14712029.18447  11481862.73844  23759958.1024                   23759956.8914
   2109783.41847   1664943.05545  22485841.4064                   22485839.8364
  -7763011.22347  -6034901.14544  22890687.8204                   22890685.5554
 -13942577.34048 -10850106.50446  21006865.0084                   21006861.5984
 -14491150.05148 -11286491.19946  21252035.5634                   21252033.7344
  -7589432.26247  -5898446.98844  23266156.3284                   23266156.2584
  10920031.46546   8527864.67643  24465200.8594                   24465201.8634
 -11915633.19548  -9268021.82446  20708950.1954                   20708945.6374
 11  8 20  0 46  0.0000000  0  9G10G17G04G30G12G05G25G09G02
 -10829897.73048  -8424539.99246  21089006.8914                   21089004.2774
  14816590.81646  11563339.33644  23779855.1724                   23779853.6844
   2234604.58647   1762206.29745  22509594.4384                   22509592.1994
  -7801358.56647  -6064782.14844  22883390.9064                   22883388.5204
 -13934987.17248 -10844192.07446  21008309.4614                   21008306.0274
 -14519209.45748 -11308355.61746  21246696.5004                   21246694.1804
  -7633596.73847  -5932860.81644  23257751.9384                   23257752.3484
  11046072.34846   8626078.21943  24489184.7894                   24489186.6884
 -11859515.14848  -9224293.47346  20719629.3364                   20719624.6054
 11  8 20  0 46 30.0000000  0  9G10G17G04G30G12G05G25G09G02
 -10754736.04348  -8365972.44546  21103309.1174                   21103306.8324
  14921391.51646  11645002.14544  23799799.7034                   23799798.2974
   2359536.26247   1859555.65245  22533368.0864                   22533365.6564
  -7839242.73047  -6094302.25044  22876180.8524                   22876179.2074
 -13926807.14548 -10837818.01246  21009865.6724                   21009862.3484
 -14546771.62548 -11329832.57846  21241451.3594                   21241449.0554
  -7677393.55147  -5966988.14844  23249418.1024                   23249417.9884
  11172174.62946   8724339.62943  24513181.7034                   24513183.5084
 -11803105.60548  -9180337.97746  20730363.6484                   20730358.5234
 11  8 20  0 47  0.0000000  0  9G10G17G04G30G12G05G25G09G02
 -10678907.98048  -8306885.65246  21117738.8914                   21117736.3094
  15026432.28546  11726852.05544  23819787.7194                   23819786.2234
   2484577.47347   1956990.34045  22557162.3834                   22557160.6454
  -7876660.52347  -6123458.93444  22869060.5314                   22869058.6334
 -13918034.98048 -10830982.54746  21011534.8754                   21011531.8554
 -14573833.20748 -11350919.48446  21236301.9454                   21236299.2464
  -7720819.41447  -6000826.45344  23241154.3284                   23241154.5594
  11298335.45346   8822646.68043  24537189.9144                   24537190.7074
 -11746404.73048  -9136155.46946  20741153.5164                   20741148.9064
 11  8 20  0 47 30.0000000  0  9G10G17G04G30G12G05G25G09G02
 -10602421.87548  -8247286.09046  21132293.5704                   21132291.1884
  15131706.19146  11808883.59844  23839819.6954                   23839819.4104
   2609719.77047   2054503.79745  22580976.5084                   22580974.7774
  -7913616.34847  -6152255.62944  22862028.2974                   22862026.9224
 -13908676.53148 -10823690.25046  21013316.1174                   21013312.7154
 -14600398.88348 -11371619.96146  21231246.7504                   21231244.1174
  -7763878.66847  -6034379.05944  23232960.2894                   23232960.3754
  11424544.67646   8920991.39543  24561206.5784                   24561208.4574
 -11689421.30148  -9091752.78946  20751997.0314                   20751992.1484
 11  8 20  0 48  0.0000000  0  9G10G17G04G30G12G05G25G09G02
 -10525273.35948  -8187170.35946  21146974.6884                   21146972.3874
  15237219.15246  11891101.39844  23859898.1884                   23859897.7734
   2734967.14147   2152099.14845  22604810.0164                   22604808.4224
  -7950101.88747  -6180685.89544  22855085.0554                   22855083.8914
 -13898724.70748 -10815935.55946  21015209.5704                   21015206.8204
 -14626460.99648 -11391928.05546  21226287.1334                   21226284.1914
  -7806563.14547  -6067639.64845  23224837.7504                   23224837.9104
  11550804.76246   9019375.71143  24585233.0004                   24585235.4964
 -11632150.50448  -9047126.17646  20762895.2344                   20762890.4494
 11  8 20  0 48 30.0000000  0  9G10G17G04G30G12G05G25G09G02
 -10447466.22748  -8126541.43046  21161780.4534                   21161777.9964
  15342969.41046  11973504.13743  23880022.8054                   23880021.7854
   2860315.84847   2249773.44544  22628663.1564                   22628661.2234
  -7986116.82847  -6208749.41844  22848231.0084                   22848230.5204
 -13888180.04348 -10807718.91846  21017216.2974                   21017212.6214
 -14652019.75448 -11411843.91846  21221423.1174                   21221420.7504
  -7848872.43047  -6100607.86744  23216786.3834                   23216786.0514
  11677110.45746   9117795.62543  24609268.5004                   24609270.4844
 -11574595.68748  -9002278.25846  20773847.4384                   20773842.3984
 11  8 20  0 49  0.0000000  0  9G10G17G04G30G12G05G25G09G02
 -10369003.99948  -8065402.02846  21176711.5864                   21176708.6374
  15448954.91046  12056090.18443  23900190.4144                   23900189.0004
   2985762.33247   2347523.92244  22652535.1414                   22652532.7544
  -8021660.62547  -6236445.84044  22841468.0704                   22841466.2304
 -13877043.32548 -10799040.95246  21019335.4064                   21019332.0664
 -14677074.32848 -11431366.92246  21216655.5944                   21216653.1374
  -7890805.99247  -6133283.34045  23208806.1174                   23208806.2664
  11803456.47746   9216246.99243  24633310.8364                   24633312.7034
 -11516761.00848  -8957212.25846  20784852.8914                   20784847.7424
 11  8 20  0 49 30.0000000  0  9G10G17G04G30G12G05G25G09G02
 -10289890.85948  -8003755.42646  21191766.3914                   21191763.9104
  15555172.63746  12138857.27043  23920403.8754                   23920401.0394
   3111301.93447   2445346.98844  22676423.9384                   22676422.2194
  -8056733.94947  -6263775.67244  22834793.7814                   22834791.5164
 -13865316.21948 -10789902.92246  21021567.1484                   21021563.9224
 -14701625.63748 -11450497.77346  21211983.2894                   21211981.2504
  -7932364.40647  -6165666.50044  23200897.9384                   23200897.8984
  11929836.65646   9314724.91443  24657360.5314                   24657362.7504
 -11458650.41848  -8911931.26246  20795911.0784                   20795905.8444
 11  8 20  0 50  0.0000000  0  9G10G17G04G30G12G05G25G09G02
 -10210124.61348  -7941599.90646  21206945.2894                   21206942.8404
  15661626.56646  12221808.33644  23940661.3674                   23940659.3714
   3236936.66047   2543244.17244  22700331.8674                   22700329.3364
  -8091330.59047  -6290734.05144  22828210.5164                   22828208.0434
 -13852993.94148 -10780301.12946  21023912.1094                   21023908.7544
 -14725668.41048 -11469232.35246  21207408.0004                   21207405.6334
  -7973541.56247  -6197752.55545  23193062.1954                   23193062.3134
  12056251.11346   9413229.53943  24681417.5704                   24681418.8554
 -11400261.41448  -8866433.33246  20807022.2974                   20807017.1294
 11  8 20  0 50 30.0000000  0  9G10G17G04G30G12G05G25G09G02
 -10129707.45748  -7878937.18746  21222248.2424                   21222245.6524
  15768316.56647  12304943.41444  23960963.6724                   23960962.4494
   3362664.55947   2641213.93044  22724256.5394                   22724254.7504
  -8125448.71547  -6317319.54744  22821717.4454                   22821715.3674
 -13840075.29348 -10770234.64846  21026370.3204                   21026367.4064
 -14749201.01648 -11487569.40246  21202930.0234                   21202927.5744
  -8014335.38347  -6229539.89545  23185299.8834                   23185299.7114
  12182696.44146   9511758.25443  24705478.0634                   24705480.1294
 -11341595.80148  -8820719.85946  20818186.1484                   20818180.6914
 11  8 20  0 51  0.0000000  0  9G10G17G04G30G12G05G25G09G02
 -10048640.57848  -7815768.18046  21237674.9224                   21237672.2774
  15875242.94147  12388262.61744  23981311.2894                   23981309.2584
   3488484.25847   2739255.23844  22748200.1024                   22748197.1454
  -8159085.46947  -6343529.94944  22815316.8674                   22815314.8674
 -13826559.07048 -10759702.51246  21028942.4224                   21028938.7074
 -14772220.89548 -11505506.93046  21198549.1954                   21198547.0784
  -8054743.16047  -6261026.41845  23177610.3914                   23177610.1914
  12309169.75446   9610308.78543  24729545.6174                   24729547.6454
 -11282655.03148  -8774791.97346  20829402.0864                   20829397.1134
 11  8 20  0 51 30.0000000  0  9G10G17G04G30G12G05G25G09G02
  -9966924.56648  -7752093.37546  21253224.7274                   21253222.1294
  15982406.57047  12471766.69944  24001704.1174                   24001702.5744
   3614395.24647   2837367.67244  22772159.6804                   22772157.8984
  -8192237.53547  -6369362.68444  22809008.6564                   22809006.5744
 -13812442.81648 -10748702.82046  21031628.6254                   21031625.5824
 -14794724.91448 -11523042.48446  21194267.2114                   21194265.0474
  -8094761.47347  -6292209.48045  23169995.1954                   23169995.3674
  12435668.80146   9708879.32443  24753617.7274                   24753619.8284
 -11223439.30548  -8728649.83646  20840670.3754                   20840665.3134
 11  8 20  0 52  0.0000000  0  9G10G17G04G30G12G05G25G09G02
  -9884562.32848  -7687914.99246  21268897.7974                   21268895.6764
  16089806.51247  12555454.87544  24022141.5704                   24022140.1954
   3740394.74647   2935549.09044  22796136.8444                   22796135.0664
  -8224903.59047  -6394816.70344  22802792.3674                   22802790.2154
 -13797726.71548 -10737235.71546  21034428.8834                   21034425.5944
 -14816712.00848 -11540175.24246  21190083.2344                   21190080.7894
  -8134388.92247  -6323087.95345  23162454.2344                   23162453.7584
  12562189.00046   9807466.35543  24777693.3754                   24777696.3594
 -11163951.06648  -8682295.34846  20851990.9454                   20851985.4964
 11  8 20  0 52 30.0000000  0  9G10G17G04G30G12G05G25G09G02
 -11376972.78148  -8850832.22346  20984901.3754                   20984899.2544
  14622026.23846  11411729.96144  23742832.2584                   23742830.6054
   2291065.13347   1806201.30545  22520338.4384                   22520336.9774
  -9832502.73847  -7647491.32044  22496875.9224                   22496874.3524
 -15357829.32848 -11952900.07846  20737551.3674                   20737547.6294
 -16413601.31248 -12784504.52346  20886205.4064                   20886203.2664
  -9749044.65647  -7581261.20745  22855195.5314                   22855194.7734
  11113311.27346   8678470.58243  24501982.0234                   24501983.8834
 -12679609.91448  -9863328.20346  20563570.2814                   20563565.2114
 11  8 20  0 53  0.0000000  0  9G10G17G04G30G12G05G25G09G02
 -11293328.86748  -8785655.14146  21000818.2274                   21000816.1914
  14729892.99646  11495781.98044  23763358.6804                   23763357.6254
   2417230.73447   1904512.14544  22544347.5234                   22544345.4224
  -9864195.94947  -7672187.28944  22490845.3284                   22490842.9344
 -15341916.10948 -11940500.16046  20740579.1644                   20740575.7154
 -16434555.14548 -12800832.13746  20882217.7664                   20882214.8324
  -9787889.28147  -7611529.68745  22847803.2734                   22847803.3754
  11239858.25446   8777078.48843  24526063.1254                   24526065.0704
 -12619586.91848  -9816557.02346  20574992.4304                   20574987.2344
 11  8 20  0 53 30.0000000  0  9G10G17G04G30G12G05G25G09G02
 -11209046.59048  -8719980.64146  21016857.1024                   21016854.2854
  14837992.63747  11580015.45744  23783929.4454                   23783928.2034
   2543476.98447   2002885.82844  22568371.3674                   22568369.0124
  -9895399.44947  -7696501.64544  22484907.2734                   22484904.7234
 -15325402.71548 -11927632.57446  20743721.7424                   20743718.4304
 -16454989.42248 -12816754.89846  20878329.1174                   20878326.7974
  -9826339.07047  -7641490.52045  22840486.1094                   22840486.7504
  11366413.44146   8875692.80943  24550145.3204                   24550147.9224
 -12559298.87548  -9769579.32846  20586464.6884                   20586459.8914
 11  8 20  0 54  0.0000000  0  9G10G17G04G30G12G05G25G09G02
 -11124133.07048  -8653814.25046  21033015.3834                   21033013.0744
  14946320.68146  11664426.90744  23804542.8134                   23804542.2114
   2669797.02347   2101317.01344  22592408.8444                   22592407.0084
  -9926115.98647  -7720436.57845  22479062.3984                   22479059.9104
 -15308293.10748 -11914300.40346  20746977.6954                   20746974.2734
 -16474907.45248 -12832275.38746  20874538.5084                   20874536.6684
  -9864396.70647  -7671145.77545  22833244.4224                   22833244.2734
  11492968.50846   8974307.01543  24574228.7504                   24574231.3204
 -12498752.18848  -9722400.08246  20597986.4534                   20597981.3594
 11  8 20  0 54 30.0000000  0  9G10G17G04G30G12G05G25G09G02
 -11038588.06248  -8587155.80146  21049294.1094                   21049291.6524
  15054879.28146  11749017.97744  23825201.3834                   23825200.8874
   2796191.73447   2199806.37544  22616461.1564                   22616458.6484
  -9956340.85947  -7743988.38744  22473310.5704                   22473308.5124
 -15290584.01648 -11900501.10946  20750347.6724                   20750344.3204
 -16494304.87548 -12847390.22346  20870847.7664                   20870845.0434
  -9902057.43447  -7700491.73445  22826077.6564                   22826077.7814
  11619522.73046   9072920.56643  24598311.0634                   24598313.3484
 -12437945.73048  -9675018.41846  20609557.5084                   20609552.3324
 11  8 20  0 55  0.0000000  0  9G10G17G04G30G12G05G25G09G02
 -10952414.24648  -8520007.36745  21065692.3754                   21065689.5704
  15163667.48046  11833787.95043  23845902.9694                   23845902.4344
   2922658.73847   2298352.06244  22640526.8984                   22640524.5904
  -9986072.71947  -7767156.01645  22467652.7894                   22467650.9384
 -15272275.27048 -11886234.54746  20753831.6884                   20753828.3244
 -16513180.73048 -12862098.63746  20867255.8914                   20867253.1564
  -9939319.77347  -7729527.29945  22818987.3674                   22818987.1334
  11746072.03146   9171530.28543  24622393.0944                   24622395.1484
 -12376882.20348  -9627436.44146  20621177.5314                   20621172.4024
 11  8 20  0 55 30.0000000  0  9G10G17G04G30G12G05G25G09G02
 -10865612.28148  -8452369.47746  21082210.2584                   21082207.6954
  15272686.24647  11918737.58244  23866648.7344                   23866647.4734
   3049197.45347   2396953.64544  22664606.2814                   22664604.3594
 -10015308.21947  -7789936.90244  22462089.1024                   22462087.0554
 -15253364.90648 -11871499.19546  20757430.0704                   20757426.3014
 -16531532.16448 -12876398.41846  20863763.4694                   20863761.0124
  -9976180.37947  -7758249.80945  22811972.2734                   22811972.3524
  11872614.07046   9270134.34043  24646473.2664                   24646475.1254
 -12315561.73448  -9579654.25046  20632846.3204                   20632841.4694
 11  8 20  0 56  0.0000000  0  9G10G17G04G30G12G05G25G09G02
 -10778181.84448  -8384241.84446  21098847.4694                   21098844.9574
  15381937.60946  12003868.46944  23887437.8754                   23887437.4774
   3175808.31647   2495611.42244  22688699.7894                   22688697.6954
 -10044043.14547  -7812327.71544  22456620.4614                   22456619.6054
 -15233849.68048 -11856292.52746  20761143.9144                   20761140.3954
 -16549355.38748 -12890286.59846  20860371.6644                   20860369.5234
 -10012634.75847  -7786655.79345  22805035.2504                   22805035.4614
  11999147.88746   9368731.96143  24670551.7894                   24670554.0824
 -12253983.60248  -9531671.28546  20644564.5084                   20644559.2774
 11  8 20  0 56 30.0000000  0  9G10G17G04G30G12G05G25G09G02
 -10690128.50848  -8315628.84545  21115603.7034                   21115601.4064
  15491418.06246  12089177.86044  23908272.0314                   23908271.3164
   3302486.33947   2594321.56244  22712805.3674                   22712803.7384
 -10072278.91247  -7834329.57244  22451248.0314                   22451245.8134
 -15213732.59348 -11840616.87146  20764971.9694                   20764968.2854
 -16566652.07748 -12903764.48946  20857080.0394                   20857077.8094
 -10048684.30947  -7814746.32445  22798175.3284                   22798175.5434
  12125666.77146   9467318.00843  24694627.1954                   24694629.9414
 -12192152.98248  -9483491.57446  20656330.1804                   20656325.3524
 11  8 20  0 57  0.0000000  0  9G10G17G04G30G12G05G25G09G02
 -10601459.12548  -8246535.80946  21132477.0084                   21132474.3094
  15601122.71946  12174661.96544  23929147.8524                   23929147.8954
   3429224.96547   2693078.91844  22736923.1954                   22736921.5554
 -10100018.12547  -7855944.53145  22445969.4924                   22445967.0004
 -15193017.60548 -11824475.30946  20768913.9614                   20768910.7974
 -16583425.31248 -12916834.50046  20853888.1174                   20853886.0314
 -10084331.49247  -7842523.32445  22791392.2034                   22791391.6914
  12252162.43046   9565885.93442  24718698.3754                   24718701.8134
 -12130076.26248  -9435120.09846  20668142.9144                   20668137.8554
 11  8 20  0 57 30.0000000  0  9G10G17G04G30G12G05G25G09G02
 -10512167.30947  -8176957.76646  21149468.8674                   21149466.0514
  15711059.59846  12260327.05544  23950068.0864                   23950067.5234
   3556030.82847   2791888.66844  22761053.7734                   22761051.6804
 -10127250.44547  -7877164.50044  22440787.2194                   22440784.6374
 -15171695.59448 -11807860.75846  20772971.4614                   20772968.1954
 -16599665.05548 -12929488.80546  20850798.1334                   20850795.3874
 -10119565.89547  -7869978.67245  22784687.0474                   22784687.2234
  12378639.63346   9664439.45743  24742766.3284                   24742769.3484
 -12067746.53548  -9386551.49246  20680003.8674                   20679998.8054
 11  8 20  0 58  0.0000000  0  9G10G17G04G30G12G05G25G09G02
 -10422261.77748  -8106901.48446  21166576.9774                   21166574.6454
  15821222.21546  12346167.99644  23971031.6024                   23971030.9494
   3682895.91847   2890744.58244  22785195.1954                   22785194.0124
 -10153980.05947  -7897992.74645  22435700.6334                   22435698.4264
 -15149772.09048 -11790777.50446  20777143.2114                   20777139.9344
 -16615376.04748 -12941731.09446  20847808.1804                   20847805.7584
 -10154391.52347  -7897115.48845  22778060.1954                   22778059.8634
  12505088.96146   9762971.23043  24766829.1884                   24766831.4414
 -12005171.45348  -9337791.68046  20691911.4304                   20691906.5664
 11  8 20  0 58 30.0000000  0  9G10G17G04G30G12G05G25G09G02
 -10331742.24648  -8036366.76646  21183802.2504                   21183799.4734
  15931612.53547  12432186.41843  23992038.1884                   23992037.4654
   3809821.07847   2989647.29344  22809347.7344                   22809346.3094
 -10180202.65247  -7918425.90244  22430709.8834                   22430708.3204
 -15127244.05948 -11773223.18746  20781430.2974                   20781426.9654
 -16630554.17248 -12953558.16846  20844920.0474                   20844917.4264
 -10188803.90647  -7923930.31245  22771511.5554                   22771511.4924
  12631509.54346   9861480.72742  24790886.2504                   24790888.4224
 -11942350.71548  -9288840.45746  20703866.2424                   20703861.2894
 11  8 20  0 59  0.0000000  0  9G10G17G04G30G12G05G25G09G02
 -10240613.90648  -7965357.63346  21201143.3134                   21201140.7464
  16042227.03146  12518379.55543  24013087.2974                   24013086.1684
   3936801.27747   3088592.88344  22833511.6024                   22833510.5164
 -10205919.52747  -7938465.00045  22425816.7894                   22425814.5084
 -15104114.09848 -11755199.84446  20785831.7584                   20785828.3204
 -16645201.46948 -12964971.59846  20842132.7274                   20842130.1094
 -10222804.24247  -7950424.05945  22765041.0004                   22765041.9304
  12757894.73446   9959962.57442  24814936.9144                   24814939.1174
 -11879288.98448  -9239701.44946  20715866.1174                   20715861.2384
 11  8 20  0 59 30.0000000  0  8G10G17G04G30G12G05G25G02
 -10148878.79748  -7893875.71146  21218600.0394                   21218597.5984
  16153065.98047  12604747.55943  24034179.7424                   24034177.9104
   4063835.12147   3187580.27044  22857685.7034                   22857684.1134
 -10231128.37947  -7958108.23445  22421019.9144                   22421017.5394
 -15080381.13348 -11736706.62146  20790347.8914                   20790344.4844
 -16659316.02748 -12975969.91446  20839446.7274                   20839444.4384
 -10256390.11347  -7976594.83645  22758650.1414                   22758650.7894
 -11815987.15648  -9190375.35246  20727911.9924                   20727907.5084
 11  8 20  1  0  0.0000000  0  8G10G17G04G30G12G05G25G02
 -10056535.01648  -7821919.51246  21236172.4774                   21236169.9694
  16264133.13347  12691293.34443  24055315.0084                   24055312.7344
   4190925.07447   3286611.37144  22881870.0784                   22881868.6174
 -10255823.31247  -7977351.01245  22416320.8134                   22416318.3134
 -15056040.79348 -11717740.12546  20794979.7894                   20794976.3524
 -16672892.22748 -12986548.71946  20836862.8444                   20836860.8284
 -10289555.21547  -8002437.76645  22752339.0164                   22752339.0824
 -11752443.22348  -9140860.59846  20740004.4384                   20739999.3364
 11  8 20  1  0 30.0000000  0  8G10G17G04G30G12G05G25G02
  -9963588.18448  -7749493.38746  21253859.7664                   21253857.2274
  16375425.14547  12778014.36743  24076493.5554                   24076491.1684
   4318066.66047   3385682.70344  22906064.3594                   22906063.0314
 -10280005.19547  -7996194.02345  22411718.6254                   22411717.2304
 -15031095.41848 -11698302.16846  20799726.9534                   20799723.5124
 -16685931.37948 -12996709.05946  20834381.9454                   20834379.3984
 -10322300.55947  -8027953.59845  22746107.8284                   22746107.9924
 -11688661.35248  -9091160.44146  20752141.3054                   20752136.5984
 11  8 20  1  1  0.0000000  0  8G10G17G04G30G12G05G25G02
  -9870033.97348  -7676593.99246  21271662.8364                   21271660.0084
  16486947.75047  12864915.07843  24097715.8834                   24097713.5744
   4445264.32447   3484797.73044  22930269.5864                   22930268.2234
 -10303666.06247  -8014631.05945  22407216.1334                   22407213.9264
 -15005538.24248 -11678387.48846  20804590.0864                   20804586.5554
 -16698426.23448 -13006445.28546  20832004.3754                   20832001.4924
 -10354617.84447  -8053135.87145  22739957.8754                   22739958.3244
 -11624637.07848  -9041271.40246  20764325.1564                   20764319.7814
 11  8 20  1  1 30.0000000  0  8G10G17G04G30G12G05G25G02
  -9775880.58248  -7603227.69546  21289579.2974                   21289577.0824
  16598695.17846  12951990.92644  24118980.1484                   24118978.6954
   4572510.44947   3583950.50844  22954483.4384                   22954482.8984
 -10326809.68447  -8032665.02745  22402812.2274                   22402809.9654
 -14979374.33248 -11658000.02346  20809569.4144                   20809565.8914
 -16710380.60548 -13015760.34446  20829729.4534                   20829726.8914
 -10386510.68747  -8077987.42245  22733889.2344                   22733889.4804
 -11560378.19548  -8991199.53946  20776552.6644                   20776548.0274
 11  8 20  1  2  0.0000000  0  8G10G17G04G30G12G05G25G02
  -9681128.55948  -7529394.94545  21307610.0634                   21307607.4774
  16710669.13346  13039243.28543  24140287.7274                   24140287.2504
   4699805.56647   3683141.47344  22978707.5704                   22978706.0004
 -10349432.10947  -8050292.89145  22398507.9924                   22398504.9924
 -14952601.58248 -11637138.14546  20814663.6254                   20814660.3984
 -16721791.21948 -13024651.68046  20827557.9304                   20827555.6524
 -10417975.00847  -8102505.05545  22727901.6954                   22727901.5704
 -11495883.85548  -8940944.21946  20788825.6954                   20788820.9694
 11  8 20  1  2 30.0000000  0  8G10G17G04G30G12G05G25G02
  -9585782.09048  -7455098.99645  21325753.3984                   21325751.1254
  16822866.74646  13126670.00043  24161637.8134                   24161638.0314
   4827145.89147   3782367.66044  23002939.2344                   23002937.9964
 -10371533.80147  -8067514.96545  22394301.8524                   22394299.6484
 -14925221.51648 -11615803.02046  20819873.7424                   20819870.4144
 -16732659.27748 -13033120.25446  20825489.7344                   20825487.3794
 -10449010.98447  -8126688.91845  22721995.8364                   22721996.1214
 -11431157.74648  -8890508.28946  20801143.1804                   20801138.0824
 11  8 20  1  3  0.0000000  0  8G10G17G04G30G12G05G25G02
  -9489841.52747  -7380340.12146  21344010.7034                   21344008.0394
  16935290.24246  13214272.67243  24183031.0084                   24183031.4104
   4954531.94147   3881629.46944  23027180.0944                   23027177.9804
 -10393110.52747  -8084327.97745  22390195.3674                   22390193.4224
 -14897231.09448 -11593992.30946  20825200.2974                   20825197.0594
 -16742980.37548 -13041162.62546  20823525.5234                   20823523.1604
 -10479614.22347  -8150535.56645  22716171.8204                   22716171.5434
 -11366199.18048  -8839891.22346  20813503.9144                   20813499.1254
 11  8 20  1  3 30.0000000  0  8G10G17G04G30G12G05G25G02
  -9393316.53148  -7305125.84446  21362378.7584                   21362376.4924
  17047931.82846  13302045.27343  24204466.3284                   24204466.8914
   5081955.09447   3980920.20744  23051427.9304                   23051425.4414
 -10414167.79347  -8100736.21145  22386188.8364                   22386186.4734
 -14868637.55148 -11571711.62146  20830641.5474                   20830638.0704
 -16752760.95748 -13048783.82846  20821664.6644                   20821662.1644
 -10509790.07447  -8174049.19945  22710429.6174                   22710429.2304
 -11301016.96148  -8789099.87146  20825907.4064                   20825903.1214
 11  8 20  1  4  0.0000000  0  8G10G17G04G30G12G05G25G02
  -9296201.93448  -7229452.12546  21380858.9064                   21380856.5274
  17160798.80146  13389993.53943  24225945.2504                   24225945.0514
   5209421.23446   4080244.44144  23075683.3674                   23075681.9414
 -10434696.18447  -8116732.35945  22382282.3444                   22382279.7934
 -14839432.94948 -11548954.77746  20836198.6954                   20836195.7504
 -16761992.20748 -13055976.96946  20819907.8984                   20819905.6414
 -10539528.83648  -8197222.24645  22704770.6254                   22704770.8444
 -11235605.30148  -8738129.74646  20838355.1094                   20838350.3874
 11  8 20  1  4 30.0000000  0  8G10G17G04G30G12G05G25G02
  -9198495.96547  -7153317.61345  21399451.9144                   21399449.4884
  17273895.43046  13478120.75043  24247467.1174                   24247465.8134
   5336933.21947   4179604.39544  23099948.2114                   23099945.9614
 -10454689.45347  -8132311.53545  22378478.0704                   22378475.0904
 -14809612.43048 -11525718.02046  20841873.4454                   20841870.0904
 -16770668.02748 -13062737.32046  20818257.0704                   20818253.9734
 -10568824.10948  -8220049.71145  22699196.0394                   22699195.6524
 -11169961.39848  -8686978.64546  20850846.8754                   20850841.7034
 11  8 20  1  5  0.0000000  0  8G10G17G04G30G12G05G25G02
  -9100219.66447  -7076738.68445  21418153.3754                   21418150.3404
  17387202.64546  13566412.06343  24269028.7814                   24269027.0634
   5464470.78947   4278984.27344  23124218.1254                   23124215.8554
 -10474164.52047  -8147486.89545  22374771.5704                   22374768.4734
 -14779194.27048 -11502015.56246  20847661.7424                   20847658.4694
 -16778806.00448 -13069078.55546  20816708.3364                   20816705.5274
 -10597692.47347  -8242544.54345  22693702.5784                   22693702.7504
 -11104105.18048  -8635662.10546  20863378.7194                   20863373.9534
 11  8 20  1  5 30.0000000  0  8G10G17G04G30G12G05G25G02
  -9001363.76647  -6999708.10545  21436964.6564                   21436962.0234
  17500731.25446  13654875.85943  24290632.6174                   24290631.5984
   5592044.02047   4378391.94544  23148494.6254                   23148492.1644
 -10493108.01647  -8162248.05145  22371166.9304                   22371164.1644
 -14748166.41848 -11477838.02046  20853566.4224                   20853563.0474
 -16786393.28948 -13074990.68446  20815264.4304                   20815261.9694
 -10626120.33247  -8264696.10245  22688292.8054                   22688293.0784
 -11038026.76248  -8584172.41846  20875952.9224                   20875948.1844
 11  8 20  1  6  0.0000000  0  8G10G17G04G30G12G05G25G02
  -8901938.34447  -6922233.75846  21455885.2504                   21455882.5204
  17614473.55147  13743506.20344  24312276.9844                   24312275.8054
   5719643.75447   4477820.24644  23172776.1414                   23172774.2704
 -10511525.65647  -8176599.45745  22367662.1024                   22367659.8484
 -14716536.37148 -11453191.24246  20859585.4924                   20859581.6884
 -16793435.97348 -13080478.45346  20813924.2114                   20813921.9144
 -10654113.28547  -8286508.78145  22682966.0314                   22682965.6604
 -10971735.41448  -8532516.81646  20888567.8674                   20888563.0514
 11  8 20  1  6 30.0000000  0  8G10G17G04G30G12G05G25G02
  -8801935.48848  -6844309.45745  21474914.8204                   21474911.9964
  17728439.67246  13832310.92644  24333963.5784                   24333961.6644
   5847278.76647   4577276.07044  23197064.4384                   23197062.1954
 -10529405.41047  -8190531.71145  22364259.3984                   22364257.5704
 -14684293.57848 -11428066.98446  20865720.7664                   20865717.4454
 -16799922.59448 -13085532.92646  20812689.5004                   20812687.2304
 -10681659.01648  -8307972.97345  22677723.7584                   22677723.9654
 -10905222.13348  -8480688.28946  20901224.9454                   20901220.0314
 11  8 20  1  7  0.0000000  0  8G10G17G04G30G12G05G25G02
  -8701359.10548  -6765938.24645  21494053.6174                   21494050.9884
  17842627.80547  13921288.62143  24355692.3524                   24355691.0514
   5974946.59447   4676757.45344  23221358.5944                   23221356.6844
 -10546746.69147  -8204044.38345  22360959.6024                   22360957.5744
 -14651439.08248 -11402466.08246  20871973.2344                   20871969.6914
 -16805853.13748 -13090154.09446  20811561.0314                   20811558.9964
 -10708756.63747  -8329087.98445  22672567.8444                   22672566.7584
 -10838489.67648  -8428688.97746  20913923.8914                   20913918.8244
 11  8 20  1  7 30.0000000  0  8G10G17G04G30G12G05G25G02
  -8600210.67248  -6687121.29345  21513301.9534                   21513298.8634
  17957039.25047  14010440.35543  24377465.0314                   24377463.4064
   6102646.64547   4776263.97344  23245658.5004                   23245657.1254
 -10563546.74647  -8217135.30145  22357762.7504                   22357760.8484
 -14617971.05148 -11376387.10246  20878341.6484                   20878338.2154
 -16811225.32048 -13094340.17246  20810538.8524                   20810536.5704
 -10735403.19547  -8349851.50845  22667497.1804                   22667496.6414
 -10771538.49648  -8376519.22746  20926664.1884                   20926659.0164
 11  8 20  1  8  0.0000000  0  8G10G17G04G30G12G05G25G02
  -8498500.56648  -6607866.66845  21532656.4774                   21532653.9494
  18071665.15246  14099759.21943  24399276.7974                   24399276.8244
   6230369.56647   4875788.28544  23269964.1954                   23269962.0274
 -10579811.71547  -8229809.29345  22354667.3364                   22354665.1254
 -14583897.42248 -11349836.23046  20884825.5474                   20884822.6414
 -16816045.79748 -13098096.35246  20809621.5554                   20809618.9734
 -10761604.51647  -8370268.12145  22662510.8284                   22662510.6094
 -10704378.09848  -8324186.44146  20939444.6564                   20939439.5704
 11  8 20  1  8 30.0000000  0  8G10G17G04G30G12G05G25G02
  -8396227.81648  -6528173.60945  21552118.0634                   21552115.6604
  18186508.48346  14189247.51643  24421130.7734                   24421130.3914
   6358117.40246   4975332.00844  23294273.3754                   23294272.2934
 -10595536.48047  -8242062.33645  22351674.3834                   22351672.7304
 -14549214.80548 -11322810.81646  20891425.4614                   20891421.9534
 -16820310.02748 -13101419.09446  20808810.1884                   20808807.4574
 -10787355.19947  -8390333.56245  22657610.2894                   22657610.5784
 -10637006.25448  -8271688.89546  20952264.7274                   20952260.1374
 11  8 20  1  9  0.0000000  0  8G10G17G04G30G12G05G25G02
  -8293392.31347  -6448042.04745  21571687.3594                   21571684.7974
  18301571.67246  14278907.12944  24443027.4224                   24443026.3954
   6485891.27047   5074896.02344  23318588.5004                   23318586.5944
 -10610716.63747  -8253891.00445  22348786.1254                   22348784.1214
 -14513920.17648 -11295308.51646  20898142.1884                   20898138.4494
 -16824014.11348 -13104305.35546  20808104.9534                   20808102.5004
 -10812650.55547  -8410044.20345  22652797.3594                   22652796.7734
 -10569422.14848  -8219025.95346  20965125.5944                   20965120.9384
 11  8 20  1  9 30.0000000  0  8G10G17G04G30G12G05G25G02
  -8190001.71147  -6367477.94145  21591362.0784                   21591359.1914
  18416849.47746  14368734.01643  24464963.8674                   24464963.0314
   6613684.81647   5174475.35244  23342906.7814                   23342904.5704
 -10625355.34847  -8265297.75445  22346000.4144                   22345998.1134
 -14478017.91048 -11267332.72746  20904973.8284                   20904970.7304
 -16827161.54748 -13106757.86346  20807506.1954                   20807503.7234
 -10837493.46547  -8429402.27745  22648069.7734                   22648069.7584
 -10501631.79748  -8166202.31246  20978025.6804                   20978020.3794
 11  8 20  1 10  0.0000000  0  9G10G17G04G30G12G05G25G29G02
  -8086060.62948  -6286484.89145  21611141.1094                   21611138.7704
  18532339.30946  14458726.07843  24486939.7974                   24486940.3874
   6741494.68447   5274067.38744  23367227.7504                   23367226.5784
 -10639453.14147  -8276283.03145  22343318.0234                   22343315.4494
 -14441510.20748 -11238885.18046  20911921.1414                   20911918.2114
 -16829753.82848 -13108777.78146  20807012.6724                   20807010.1294
 -10861884.16447  -8448408.00845  22643428.2894                   22643428.2234
  -4789769.50856  -3725236.18453  24786427.5784                   24786426.4574
 -10433638.99248  -8113220.90246  20990964.8674                   20990959.6134
 11  8 20  1 10 30.0000000  0  9G10G17G04G30G12G05G25G29G02
  -9556988.04348  -7432662.09045  21331233.0474                   21331230.7114
  17072625.18846  13321286.46944  24209166.7194                   24209166.0664
   5293904.06347   4146074.64844  23091760.5704                   23091759.2194
 -12228428.44147  -9514445.56645  22040946.2274                   22040943.6764
 -15979815.64548 -12437564.74646  20619191.4064                   20619187.5984
 -18407208.96148 -14337963.56246  20506833.0394                   20506830.7034
 -12461241.19947  -9694660.19945  22339080.5084                   22339080.8404
  -6399254.57447  -4979380.30943  24480152.5864                   24480151.8794
 -11940862.59448  -9287680.85546  20704149.2814                   20704143.9924
 11  8 20  1 11  0.0000000  0  9G10G17G04G30G12G05G25G29G02
  -9451956.40248  -7350819.25045  21351219.6564                   21351217.7894
  17188535.57846  13411606.21144  24231223.3524                   24231223.5634
   5421739.55947   4245686.67644  23116086.4614                   23116085.2034
 -12241441.97347  -9524585.94945  22038469.3914                   22038467.3914
 -15942099.60548 -12408175.62146  20626368.3444                   20626364.8834
 -18408689.03948 -14339116.82846  20506551.5004                   20506548.7424
 -12484724.18047  -9712958.58245  22334612.2034                   22334611.6804
  -6433372.93746  -5005965.97343  24473660.2424                   24473659.7154
 -11872471.70748  -9234389.25046  20717163.6954                   20717159.0554
 11  8 20  1 11 30.0000000  0  9G10G17G04G30G12G05G25G29G02
  -9346390.43048  -7268560.04345  21371308.5394                   21371306.6334
  17304648.58646  13502083.86743  24253318.1174                   24253318.9614
   5549578.86747   4345301.69544  23140413.4304                   23140412.4804
 -12253917.75447  -9534307.28945  22036095.4224                   22036093.2074
 -15903786.13748 -12378320.97346  20633659.3834                   20633655.4224
 -18409618.79748 -14339841.28546  20506374.9454                   20506371.9494
 -12507757.26247  -9730906.39145  22330229.1174                   22330228.2074
  -6467551.02346  -5032598.20343  24467156.2894                   24467155.8524
 -11803891.06648  -9180949.80146  20730214.0314                   20730209.0204
 11  8 20  1 12  0.0000000  0  9G10G17G04G30G12G05G25G29G02
  -9240282.53247  -7185878.54945  21391500.1334                   21391498.2734
  17420974.04246  13592727.02843  24275454.9694                   24275454.5314
   5677430.96547   4444926.63344  23164743.3914                   23164741.6414
 -12265844.24247  -9543600.61345  22033825.9384                   22033823.6724
 -15864865.26648 -12347993.02346  20641065.8134                   20641062.7034
 -18409986.91848 -14340128.09446  20506304.4924                   20506302.1334
 -12530328.49647  -9748494.32445  22325934.1174                   22325933.1844
  -6501778.43146  -5059268.84543  24460642.9454                   24460642.5044
 -11735111.87548  -9127355.62946  20743302.0234                   20743297.6764
 11  8 20  1 12 30.0000000  0  9G10G17G04G30G12G05G25G29G02
  -9133634.57447  -7102776.25045  21411794.5394                   21411791.9414
  17537512.37946  13683536.02743  24297632.0164                   24297629.6414
   5805295.22747   4544561.07444  23189075.8134                   23189073.9924
 -12277218.73847  -9552463.82045  22031661.2194                   22031658.8984
 -15825335.54748 -12317190.65246  20648588.2344                   20648584.7274
 -18409791.18448 -14339975.53546  20506341.1884                   20506339.3244
 -12552434.85547  -9765720.02345  22321727.1724                   22321726.9884
  -6536054.15647  -5085977.15644  24454120.5554                   24454120.2304
 -11666134.68048  -9073607.17246  20756428.2274                   20756423.0594
 11  8 20  1 13  0.0000000  0  9G10G17G04G30G12G05G25G29G02
  -9026455.46147  -7019260.05145  21432190.2034                   21432187.6484
  17654256.71546  13774505.65643  24319847.3594                   24319845.0354
   5933163.96947   4644199.00444  23213408.3674                   23213406.2114
 -12288046.13747  -9560900.73445  22029601.3364                   22029599.0004
 -15785203.67648 -12285919.06646  20656224.5314                   20656221.4884
 -18409037.39148 -14339388.13746  20506484.8364                   20506482.0664
 -12574080.96147  -9782587.07045  22317607.6484                   22317607.1484
  -6570384.16847  -5112727.75044  24447587.2734                   24447586.5204
 -11596967.23448  -9019710.45346  20769590.4694                   20769585.2934
 11  8 20  1 13 30.0000000  0  9G10G17G04G30G12G05G25G29G02
  -8918745.81247  -6935330.43445  21452686.1414                   21452684.0944
  17771208.76646  13865637.12143  24342102.1644                   24342101.1134
   6061037.87947   4743840.98044  23237741.8444                   23237740.0704
 -12298322.78547  -9568908.47745  22027645.1954                   22027643.3204
 -15744467.38348 -12254176.49246  20663976.1564                   20663973.0354
 -18407722.16848 -14338363.24246  20506735.2814                   20506732.7304
 -12595262.73047  -9799092.30145  22313576.9384                   22313577.0234
  -6604766.14547  -5139518.84044  24441044.7584                   24441043.8094
 -11527608.91048  -8965665.01646  20782789.0554                   20782783.8164
 11  8 20  1 14  0.0000000  0  9G10G17G04G30G12G05G25G29G02
  -8810505.86747  -6850987.61745  21473283.7734                   21473280.9964
  17888370.54346  13956931.96943  24364397.7344                   24364397.2304
   6188918.15647   4843487.91844  23262075.9844                   23262074.7034
 -12308044.67647  -9576483.92645  22025795.5704                   22025793.3794
 -15703124.64848 -12221961.37146  20671843.8284                   20671840.5394
 -18405842.00448 -14336898.14846  20507093.0004                   20507090.6254
 -12615975.79347  -9815232.31245  22309635.7734                   22309635.4734
  -6639197.63747  -5166348.50444  24434492.8524                   24434492.6294
 -11458058.70348  -8911470.04746  20796023.8524                   20796018.7504
 11  8 20  1 14 30.0000000  0  9G10G17G04G30G12G05G25G29G02
  -8701736.92647  -6766232.59445  21493982.0004                   21493979.4804
  18005743.11746  14048391.10943  24386732.4924                   24386731.6454
   6316805.05946   4943140.02344  23286411.8674                   23286411.2194
 -12317208.80947  -9583624.79745  22024051.3914                   22024049.2934
 -15661173.46148 -12189272.13746  20679827.2664                   20679823.5664
 -18403394.60548 -14334991.05146  20507558.6174                   20507555.8714
 -12636216.95347  -9831004.59445  22305784.0394                   22305783.6294
  -6673676.99647  -5193215.45743  24427932.0314                   24427931.4104
 -11388316.35548  -8857125.36346  20809295.2274                   20809290.1334
 11  8 20  1 15  0.0000000  0  9G10G17G04G30G12G05G25G29G02
  -8592440.87947  -6681066.83245  21514780.3204                   21514777.6524
  18123327.19146  14140015.03144  24409109.1804                   24409108.0394
   6444697.98847   5042796.84044  23310749.4224                   23310748.2704
 -12325812.81247  -9590329.19145  22022414.1094                   22022411.8364
 -15618613.84048 -12156108.79746  20687925.6884                   20687921.9804
 -18400378.19548 -14332640.57046  20508132.8674                   20508130.1374
 -12655983.32448  -9846406.93045  22302022.6334                   22302022.0004
  -6708202.96546  -5220118.73843  24421361.7274                   24421360.2344
 -11318382.62548  -8802631.55146  20822603.3984                   20822598.1094
 11  8 20  1 15 30.0000000  0  9G10G17G04G30G12G05G25G29G02
  -8482623.11347  -6595494.53945  21535678.2894                   21535675.3404
  18241119.42246  14231801.18043  24431524.1254                   24431523.5554
   6572593.49246   5142455.67244  23335086.8134                   23335086.5474
 -12333857.64847  -9596597.86345  22020883.2274                   22020880.8484
 -15575447.87548 -12122472.98046  20696139.7664                   20696136.5554
 -18396793.96548 -14329847.62946  20508814.4224                   20508811.9104
 -12675275.50847  -9861439.76245  22298351.6484                   22298351.2734
  -6742777.79746  -5247060.10243  24414781.4614                   24414780.9024
 -11248261.14848  -8747991.43446  20835947.0704                   20835941.9694
 11  8 20  1 16  0.0000000  0  9G10G17G04G30G12G05G25G29G02
  -8372285.47748  -6509517.15645  21556674.7504                   21556672.0234
  18359120.06346  14323749.75043  24453978.6334                   24453978.1914
   6700490.67647   5242115.81344  23359425.6254                   23359424.3364
 -12341341.13347  -9602429.13745  22019459.1174                   22019456.7504
 -15531675.20748 -12088364.40246  20704469.7274                   20704466.1804
 -18392640.80948 -14326611.36746  20509605.1174                   20509602.4024
 -12694091.09047  -9876101.21545  22294770.4924                   22294770.5514
  -6777400.71546  -5274038.89143  24408192.4924                   24408192.2304
 -11177952.92248  -8693205.79746  20849325.9774                   20849320.8484
 11  8 20  1 16 30.0000000  0  8G10G04G30G12G05G25G29G02
  -8261428.09848  -6423134.78145  21577769.8914                   21577767.5314
   6828391.12147   5341778.47344  23383764.0784                   23383762.6884
 -12348259.22747  -9607819.84045  22018142.7344                   22018140.4064
 -15487293.05548 -12053780.90646  20712915.5474                   20712911.5434
 -18387914.86748 -14322928.78147  20510504.0704                   20510501.6214
 -12712425.46947  -9890387.70745  22291281.7664                   22291281.2894
  -6812068.66046  -5301052.79743  24401595.3834                   24401595.2344
 -11107456.54748  -8638273.54746  20862741.2504                   20862736.0474
 11  8 20  1 17  0.0000000  0  8G10G04G30G12G05G25G29G02
  -8150057.79747  -6336352.73445  21598963.0314                   21598960.3914
   6956289.57047   5441439.60244  23408102.1804                   23408100.3244
 -12354614.48847  -9612771.96545  22016932.8984                   22016931.3984
 -15442305.91048 -12018725.98846  20721475.9844                   20721472.5594
 -18382619.58248 -14318802.55146  20511512.0554                   20511509.4384
 -12730280.81247  -9904300.93745  22287884.0474                   22287883.7424
  -6846785.36746  -5328104.71943  24394989.6724                   24394989.3164
 -11036777.48448  -8583198.94146  20876190.6174                   20876186.1604
 11  8 20  1 17 30.0000000  0  8G10G04G30G12G05G25G29G02
  -8038170.02048  -6249167.45745  21620254.5394                   21620251.9654
   7084192.02346   5541103.83243  23432441.2114                   23432439.8244
 -12360398.03947  -9617278.63345  22015833.1024                   22015830.3754
 -15396706.55948 -11983194.01646  20730153.1174                   20730150.0984
 -18376746.59848 -14314226.16446  20512629.5314                   20512626.8554
 -12747648.06247  -9917833.84445  22284578.8674                   22284578.6644
  -6881543.02046  -5355188.60543  24388375.3364                   24388374.4144
 -10965909.56248  -8527977.17646  20889676.5084                   20889671.8524
 11  8 20  1 18  0.0000000  0  8G10G04G30G12G05G25G29G02
  -7925770.17248  -6161583.14845  21641643.5634                   21641640.9494
   7212095.20746   5640768.62944  23456780.6254                   23456779.7154
 -12365610.82847  -9621340.53945  22014841.1094                   22014838.6914
 -15350497.39848 -11947186.87946  20738946.8134                   20738943.4494
 -18370297.39548 -14309200.77746  20513856.6094                   20513854.2854
 -12764527.51647  -9930986.63745  22281367.0084                   22281366.6524
  -6916343.73046  -5382305.99644  24381753.5394                   24381752.4924
 -10894856.37948  -8472611.05946  20903197.5784                   20903192.6024
 11  8 20  1 18 30.0000000  0  8G10G04G30G12G05G25G29G02
  -7812850.78547  -6073594.02345  21663131.7664                   21663128.3524
   7340007.76247   5740440.78143  23481121.9844                   23481120.4384
 -12370241.47748  -9624948.81245  22013959.3204                   22013957.4734
 -15303668.68048 -11910696.95746  20747857.9144                   20747854.5744
 -18363261.10248 -14303717.91846  20515195.7584                   20515193.0784
 -12780907.44947  -9943750.21145  22278249.8134                   22278249.2154
  -6951177.24647  -5409448.94944  24375124.5554                   24375124.4844
 -10823609.55148  -8417094.03946  20916755.5474                   20916750.2504
 11  8 20  1 19  0.0000000  0  8G10G04G30G12G05G25G29G02
  -7699428.73447  -5985213.21145  21684715.0474                   21684712.3404
   7467914.52747   5840108.41444  23505461.7584                   23505460.6374
 -12374302.66447  -9628113.37145  22013186.4064                   22013184.6844
 -15256234.84048 -11873735.51646  20756884.2584                   20756880.7624
 -18355650.70748 -14297787.69946  20516643.5554                   20516641.0944
 -12796800.21947  -9956134.17645  22275225.5634                   22275225.7384
  -6986056.96146  -5436627.88344  24368487.5234                   24368487.2424
 -10752184.36748  -8361438.03546  20930347.0704                   20930342.4414
 11  8 20  1 19 30.0000000  0  8G10G04G30G12G05G25G29G02
  -7585499.05548  -5896436.83645  21706394.7894                   21706392.5634
   7595821.98446   5939776.55944  23529801.3594                   23529800.7974
 -12377785.25447  -9630827.07845  22012523.9064                   22012521.7234
 -15208188.21548 -11836296.58646  20766027.1484                   20766023.7934
 -18347458.49248 -14291404.12547  20518202.4454                   20518199.9534
 -12812196.20748  -9968131.04745  22272295.7894                   22272295.9414
  -7020975.26246  -5463836.93743  24361842.2194                   24361841.2114
 -10680574.26648  -8305637.94146  20943973.9224                   20943969.2384
 11  8 20  1 20  0.0000000  0  8G10G04G30G12G05G25G29G02
  -7471072.07048  -5807272.96145  21728169.6334                   21728167.1884
   7723721.59447   6039438.58244  23554139.9924                   23554138.1524
 -12380695.43048  -9633094.75045  22011970.0864                   22011967.5704
 -15159536.66848 -11798386.28546  20775285.2194                   20775281.8674
 -18338690.96948 -14284572.24646  20519871.2274                   20519868.8204
 -12827101.13747  -9979745.28145  22269459.3054                   22269459.0944
  -7055939.14546  -5491081.44143  24355188.8364                   24355188.1294
 -10608788.07448  -8249700.64146  20957634.2194                   20957629.5944
 11  8 20  1 20 30.0000000  0  8G10G04G30G12G05G25G29G02
  -7356146.80147  -5717720.78945  21750039.2894                   21750036.6254
   7851616.12146   6139096.64844  23578477.5704                   23578475.4884
 -12383028.02347  -9634912.36345  22011526.1024                   22011524.1024
 -15110277.10248 -11760002.20346  20784659.0784                   20784656.0044
 -18329343.51248 -14277288.47746  20521650.0554                   20521647.1454
 -12841509.38748  -9990972.49245  22266717.7274                   22266717.7544
  -7090944.20747  -5518358.05943  24348528.5394                   24348526.7154
 -10536823.42648  -8193624.28146  20971328.9534                   20971324.3244
 11  8 20  1 21  0.0000000  0  8G10G04G30G12G05G25G29G02
  -7240723.98047  -5627780.92645  21772003.7274                   21772000.5824
   7979506.43046   6238751.46144  23602813.9774                   23602812.6094
 -12384779.59847  -9636277.22745  22011193.3984                   22011190.6094
 -15060407.37148 -11721142.67646  20794148.9534                   20794145.4494
 -18319412.96948 -14269550.34847  20523539.4844                   20523536.6564
 -12855417.02748 -10001809.61345  22264070.9384                   22264070.5984
  -7125987.89147  -5545664.75444  24341858.9384                   24341858.5204
 -10464679.51248  -8137408.22746  20985057.6484                   20985052.6844
 11  8 20  1 21 30.0000000  0  8G10G04G30G12G05G25G29G02
  -7124811.11348  -5537459.20745  21794060.9144                   21794057.8094
   8107386.67646   6338398.41444  23627149.5084                   23627147.2114
 -12385953.39847  -9637191.85945  22010969.7034                   22010967.5354
 -15009932.41048 -11681811.52746  20803754.2194                   20803750.5434
 -18308903.52048 -14261361.13747  20525539.1724                   20525536.9064
 -12868826.99648 -10012258.94945  22261518.9144                   22261519.1174
  -7161074.62546  -5573005.01243  24335182.6644                   24335180.8984
 -10392362.03148  -8081056.94146  20998819.0704                   20998814.1254
 11  8 20  1 22  0.0000000  0  8G10G04G30G12G05G25G29G02
  -7008414.65248  -5446760.67245  21816210.6254                   21816207.8834
   8235252.28947   6438033.98444  23651480.7344                   23651478.8954
 -12386551.92247  -9637658.25045  22010855.9614                   22010853.9224
 -14958856.41048 -11642012.05546  20813473.5164                   20813469.8834
 -18297818.11548 -14252723.12646  20527648.6174                   20527646.2074
 -12881741.24648 -10022322.00845  22259061.9384                   22259061.4964
  -7196207.57946  -5600381.30043  24328496.5554                   24328494.7974
 -10319875.89848  -8024574.23446  21012612.6254                   21012607.2624
 11  8 20  1 22 30.0000000  0  8G10G04G30G12G05G25G29G02
  -6891532.76648  -5355683.87145  21838452.1564                   21838449.8164
   8363106.94947   6537660.98044  23675810.7424                   23675809.5394
 -12386569.10548  -9637671.62945  22010852.2344                   22010850.3364
 -14907175.19148 -11601740.98046  20823308.0164                   20823304.6914
 -18286151.27048 -14243632.03947  20529869.3754                   20529866.5474
 -12894153.24648 -10031993.68745  22256699.9924                   22256699.8914
  -7231381.50446  -5627789.46544  24321802.6254                   24321801.6134
 -10247217.74648  -7967957.48846  21026439.1724                   21026434.0004
 11  8 20  1 23  0.0000000  0  8G10G04G30G12G05G25G29G02
  -6774166.55948  -5264229.68445  21860786.4774                   21860783.7734
   8490951.35547   6637279.96144  23700138.4774                   23700137.0594
 -12386001.86748  -9637229.62945  22010960.3674                   22010958.1214
 -14854887.27348 -11560997.14546  20833258.1334                   20833254.9184
 -18273900.30148 -14234085.78147  20532200.1484                   20532197.3794
 -12906059.48048 -10041271.27045  22254434.0234                   22254433.9884
  -7266593.97746  -5655227.69943  24315102.2814                   24315101.6174
 -10174387.18448  -7911206.39146  21040298.2974                   21040293.5704
 11  8 20  1 23 30.0000000  0  8G10G04G30G12G05G25G29G02
  -6656322.69548  -5172403.30145  21883211.3834                   21883208.4574
   8618780.65247   6736887.18844  23724463.6884                   23724462.2504
 -12384852.92648  -9636334.35545  22011179.0944                   22011176.6994
 -14801997.00048 -11519783.95346  20843322.9384                   20843319.3984
 -18261069.32048 -14224087.58647  20534641.8524                   20534638.9884
 -12917462.10548 -10050156.44945  22252264.5084                   22252264.0354
  -7301848.64146  -5682698.80544  24308394.2114                   24308391.7274
 -10101389.14848  -7854324.80546  21054189.2344                   21054184.6374
 11  8 20  1 24  0.0000000  0  8G10G04G30G12G05G25G29G02
  -6538007.87548  -5080209.93445  21905725.7424                   21905722.9064
   8746590.32047   6836479.10944  23748785.4774                   23748784.3204
 -12383124.42247  -9634987.44945  22011508.2034                   22011506.1054
 -14748508.10948 -11478104.29746  20853501.2734                   20853498.1024
 -18247660.62148 -14213639.21147  20537193.4384                   20537190.4614
 -12928362.87148 -10058650.53545  22250190.0944                   22250189.9844
  -7337148.78546  -5710205.36344  24301676.4534                   24301675.1884
 -10028228.27748  -7797316.32846  21068111.3364                   21068106.3954
 11  8 20  1 24 30.0000000  0  8G10G04G30G12G05G25G29G02
  -6419215.45747  -4987644.42645  21928331.3524                   21928328.7624
   8874388.73047   6936062.29744  23773104.1724                   23773103.2034
 -12380805.98447  -9633180.87145  22011949.0474                   22011946.8404
 -14694411.79748 -11435951.32846  20863795.5314                   20863792.1334
 -18233664.44548 -14202733.06647  20539856.7664                   20539854.0864
 -12938750.77348 -10066744.98845  22248213.1644                   22248213.2664
  -7372483.73046  -5737739.03544  24294952.3914                   24294951.2194
  -9954896.46148  -7740174.64846  21082066.0634                   21082060.7544
 11  8 20  1 25  0.0000000  0  8G10G04G30G12G05G25G29G02
  -6299956.65647  -4894715.51245  21951025.4614                   21951022.8634
   9002166.25447   7035629.16844  23797419.7664                   23797419.1724
 -12377904.89548  -9630920.28145  22012501.3444                   22012498.9304
 -14639717.39548 -11393332.31646  20874203.6644                   20874200.2424
 -18219088.77748 -14191375.36747  20542630.1804                   20542627.7034
 -12948632.71148 -10074445.18046  22246332.8134                   22246332.4384
  -7407862.06246  -5765306.49244  24288219.8134                   24288218.8284
  -9881403.53548  -7682907.43746  21096051.1804                   21096045.9614
 11  8 20  1 25 30.0000000  0  8G10G04G30G12G05G25G29G02
  -6180231.35547  -4801423.08645  21973808.8754                   21973806.2114
   9129925.19547   7135181.56344  23821732.1174                   23821731.1374
 -12374416.82848  -9628202.30145  22013164.8284                   22013162.9964
 -14584422.26248 -11350245.20346  20884725.8134                   20884722.6724
 -18203929.66048 -14179563.05147  20545514.8444                   20545512.3284
 -12958003.81248 -10081747.33246  22244549.5784                   22244549.3634
  -7443279.91046  -5792904.77344  24281480.1804                   24281479.1174
  -9807747.51648  -7625513.13746  21110067.2734                   21110062.2974
 11  8 20  1 26  0.0000000  0  8G10G04G30G12G05G25G29G02
  -6060044.52748  -4707771.02345  21996679.4144                   21996676.5864
   9257662.43447   7234717.05144  23846039.0944                   23846038.6024
 -12370342.64848  -9625027.60945  22013940.3984                   22013937.8714
 -14528528.68048 -11306691.76246  20895362.1564                   20895358.8204
 -18188188.84848 -14167297.45347  20548510.6174                   20548507.1524
 -12966864.38348 -10088651.65646  22242863.8524                   22242863.3284
  -7478738.66046  -5820534.89544  24274732.9144                   24274731.3794
  -9733931.49248  -7567994.16446  21124114.2424                   21124109.6684
 11  8 20  1 26 30.0000000  0  8G10G04G30G12G05G25G29G02
  -5939390.97747  -4613755.26245  22019638.7274                   22019636.3754
   9385385.16847   7334241.23444  23870344.2664                   23870343.7464
 -12365673.25848  -9621389.12145  22014828.5234                   22014826.6214
 -14472029.13348 -11262666.14546  20906113.5394                   20906110.1764
 -18171857.73448 -14154571.87547  20551618.0554                   20551614.9964
 -12975204.94548 -10095150.77346  22241276.4224                   22241276.1914
  -7514229.82846  -5848190.30544  24267979.4384                   24267977.3364
  -9659948.79348  -7510345.30946  21138192.7974                   21138187.8404
 11  8 20  1 27  0.0000000  0  8G10G04G30G12G05G25G29G02
  -5818283.77048  -4519386.04345  22042684.7814                   22042682.2894
   9513082.56346   7433745.69544  23894643.4454                   23894643.6174
 -12360417.46948  -9617293.69545  22015828.8364                   22015826.6724
 -14414934.59848 -11218176.89846  20916978.4064                   20916975.1214
 -18154945.91448 -14141393.79747  20554836.1724                   20554833.7344
 -12983033.63748 -10101251.03546  22239786.4454                   22239786.2114
  -7549762.82046  -5875878.29344  24261217.1564                   24261215.0204
  -9585810.26648  -7452575.03946  21152301.0084                   21152296.1764
 11  8 20  1 27 30.0000000  0  8G10G04G30G12G05G25G29G02
  -7272144.71548  -5652264.71145  21766024.5314                   21766021.9264
   8065334.98446   6305630.67643  23619146.4384                   23619146.4694
 -13929996.82448 -10840342.55545  21717147.6254                   21717145.8324
 -15932666.67248 -12400825.27046  20628163.4384                   20628160.2584
 -19712875.02048 -15355364.50046  20258372.2194                   20258369.5514
 -14565772.00448 -11334553.63346  21938601.4144                   21938601.3014
  -9160761.02746  -7131201.51244  23954654.1094                   23954652.2544
 -11086937.46148  -8622284.55546  20866645.7424                   20866640.4804
 11  8 20  1 28  0.0000000  0  8G10G04G30G12G05G25G29G02
  -7150137.39847  -5557194.10545  21789241.8284                   21789238.7624
   8192979.86346   6405094.21543  23643436.6094                   23643436.2934
 -13923563.56248 -10835329.62545  21718372.1174                   21718369.9964
 -15874382.47748 -12355409.02346  20639254.8134                   20639251.6214
 -19694798.45348 -15341278.84447  20261812.2274                   20261809.0594
 -14572570.79348 -11339851.37146  21937307.7034                   21937307.7034
  -9196374.47346  -7158952.21544  23947877.0944                   23947875.9144
 -11012489.66848  -8564273.30946  20880812.3524                   20880807.6684
 11  8 20  1 28 30.0000000  0  8G10G04G30G12G05G25G29G02
  -7027684.67647  -5461776.41845  21812543.2504                   21812541.1054
   8320597.34847   6504536.35944  23667722.0084                   23667721.6094
 -13916540.19548 -10829856.87545  21719708.7734                   21719706.6844
 -15815504.52348 -12309530.09846  20650458.8054                   20650455.9414
 -19676139.65648 -15326739.50047  20265362.3524                   20265360.0864
 -14578852.48448 -11344746.17646  21936112.2504                   21936112.1844
  -9232027.34046  -7186733.65244  23941092.1334                   23941091.9694
 -10937889.04748  -8506142.95746  20895008.7584                   20895003.7774
 11  8 20  1 29  0.0000000  0  8G10G04G30G12G05G25G29G02
  -6904787.02047  -5366012.02045  21835930.5784                   21835927.3284
   8448188.49246   6603958.03143  23692001.5864                   23692000.6094
 -13908923.42648 -10823921.72745  21721157.7734                   21721155.8164
 -15756031.11348 -12263187.18746  20661776.1884                   20661772.9384
 -19656895.68748 -15311744.18047  20269024.4454                   20269021.6954
 -14584613.11748 -11349234.96146  21935016.0634                   21935015.9924
  -9267716.86747  -7214543.60244  23934300.9924                   23934299.8954
 -10863134.37948  -8447892.57046  20909233.9614                   20909229.0864
 11  8 20  1 29 30.0000000  0  8G10G04G30G12G05G25G29G02
  -6781453.53547  -5269908.03145  21859400.1334                   21859397.3204
   8575746.43846   6703353.79343  23716275.2584                   23716274.1174
 -13900718.25448 -10817528.08645  21722719.4774                   21722717.5004
 -15695969.16448 -12216385.67246  20673205.4144                   20673202.3674
 -19637072.01648 -15296297.13747  20272797.1174                   20272794.3134
 -14589857.29348 -11353321.32046  21934018.1024                   21934017.9494
  -9303448.17247  -7242386.16444  23927501.5084                   23927500.0234
 -10788233.14848  -8389527.98846  20923487.4774                   20923482.3984
 11  8 20  1 30  0.0000000  0  8G10G04G30G12G05G25G29G02
  -6657673.46547  -5173456.03545  21882954.1804                   21882951.4774
   8703284.07846   6802733.74643  23740544.4064                   23740542.8594
 -13891910.03948 -10810664.54745  21724395.3284                   21724393.8204
 -15635305.73448 -12169115.46146  20684749.4774                   20684746.5474
 -19616654.64148 -15280387.47347  20276682.3134                   20276679.1174
 -14594569.66048 -11356993.27346  21933121.0474                   21933121.4264
  -9339207.00047  -7270250.12544  23920696.9384                   23920695.7034
 -10713172.16048  -8331038.91046  20937771.0164                   20937766.4064
 11  8 20  1 30 30.0000000  0  8G10G04G30G12G05G25G29G02
  -6533456.21547  -5076663.39845  21906591.6644                   21906589.9774
   8830793.82446   6902091.92643  23764808.6174                   23764808.1884
 -13882504.62148 -10803335.64545  21726185.5234                   21726183.4104
 -15574048.63748 -12121382.66846  20696406.3914                   20696403.3054
 -19595649.82048 -15264020.05547  20280679.4064                   20280676.3014
 -14598755.48848 -11360254.94546  21932324.6804                   21932324.9344
  -9374999.50846  -7298140.34844  23913885.3984                   23913884.1724
 -10637959.90248  -8272431.96546  20952083.4384                   20952078.4184
 11  8 20  1 31  0.0000000  0  8G10G04G30G12G05G25G29G02
  -6408807.43447  -4979534.50845  21930312.1254                   21930309.1294
   8958272.22346   7001425.71943  23789067.6024                   23789066.3524
 -13872503.49248 -10795542.55545  21728088.3674                   21728086.2894
 -15512200.93048 -12073189.65646  20708175.4924                   20708172.2854
 -19574060.34848 -15247197.07047  20284787.6954                   20284784.8594
 -14602415.80948 -11363107.13346  21931628.1174                   21931628.2384
  -9410827.55146  -7326058.25044  23907067.3054                   23907066.4574
 -10562600.02048  -8213709.98046  20966424.0474                   20966419.1024
 11  8 20  1 31 30.0000000  0  8G10G04G30G12G05G25G29G02
  -6283728.53947  -4882070.44545  21954113.6024                   21954111.3284
   9085720.09447   7100735.71943  23813319.8674                   23813319.1094
 -13861904.16048 -10787283.32045  21730105.4614                   21730103.3324
 -15449761.17648 -12024535.30946  20720057.2814                   20720054.2584
 -19551883.98848 -15229916.77046  20289007.6414                   20289004.7544
 -14605547.45348 -11365547.34846  21931032.3284                   21931032.2974
  -9446688.74246  -7354001.98844  23900243.6804                   23900242.3164
 -10487091.25448  -8154871.98046  20980792.9454                   20980788.3164
 11  8 20  1 32  0.0000000  0  8G10G04G30G12G05G25G29G02
  -6158227.18047  -4784277.18745  21977995.8984                   21977993.5554
   9213132.30147   7200017.94143  23837565.8054                   23837564.2274
 -13850710.18448 -10778560.73045  21732235.8054                   21732233.3524
 -15386735.35548 -11975424.28946  20732050.4224                   20732047.6764
 -19529124.88348 -15212182.37947  20293338.6954                   20293335.7584
 -14608153.42248 -11367577.96146  21930536.2734                   21930536.3014
  -9482586.62547  -7381974.30944  23893412.1884                   23893411.3714
 -10411439.33248  -8095922.43446  20995189.0474                   20995184.0594
 11  8 20  1 32 30.0000000  0  8G10G04G30G12G05G25G29G02
  -6032302.34847  -4686153.95345  22001958.7274                   22001955.7504
   9340511.89146   7299274.73443  23861804.8834                   23861803.4104
 -13838916.65648 -10769370.94545  21734479.8284                   21734477.8054
 -15323120.08648 -11925853.94546  20744156.1724                   20744153.1994
 -19505778.54348 -15193990.39847  20297781.4064                   20297778.2114
 -14610228.18748 -11369194.64146  21930141.2974                   21930141.4384
  -9518516.42647  -7409971.52744  23886575.3754                   23886573.5594
 -10335641.48848  -8036859.16846  21009612.5394                   21009607.7544
 11  8 20  1 33  0.0000000  0  8G10G04G30G12G05G25G29G02
  -5905954.52747  -4587701.11345  22026001.6484                   22025999.2734
   9467860.36746   7398507.27343  23886039.0234                   23886037.1254
 -13826520.55547 -10759711.62945  21736839.1174                   21736836.7424
 -15258914.16048 -11875823.36746  20756374.2974                   20756371.1684
 -19481842.99248 -15175339.30147  20302335.8054                   20302332.9224
 -14611768.15648 -11370394.60546  21929848.2974                   21929848.5434
  -9554475.44947  -7437991.50044  23879732.9844                   23879730.8984
 -10259696.52748  -7977681.26646  21024064.4774                   21024060.0084
 11  8 20  1 33 30.0000000  0  8G10G04G30G12G05G25G29G02
  -5779185.04747  -4488919.70345  22050125.2664                   22050123.1564
   9595178.52346   7497716.21543  23910267.0004                   23910264.5394
 -13813519.45347 -10749580.87545  21739312.9064                   21739310.5554
 -15194116.79748 -11825331.91046  20768704.6564                   20768701.9414
 -19457316.39548 -15156227.64847  20307003.1884                   20307000.2114
 -14612770.29748 -11371175.47746  21929657.4924                   21929657.9414
  -9590461.55947  -7466032.59844  23872884.8524                   23872883.0004
 -10183603.94148  -7918388.33646  21038544.5164                   21038539.8094
 11  8 20  1 34  0.0000000  0  8G10G04G30G12G05G25G29G02
  -5652004.07447  -4389817.67245  22074327.1334                   22074324.5274
   9722458.44147   7596895.34043  23934487.9224                   23934485.9024
 -13799919.74247 -10738983.68045  21741900.4774                   21741898.3594
 -15128736.01248 -11774385.85946  20781146.3984                   20781143.0164
 -19432205.46548 -15136660.66047  20311781.3754                   20311778.6994
 -14613240.30948 -11371541.69946  21929568.3594                   21929568.4024
  -9626480.55947  -7494099.32844  23866030.5784                   23866028.5474
 -10107371.94148  -7858986.76646  21053051.0314                   21053045.9964
 11  8 20  1 34 30.0000000  0  8G10G04G30G12G05G25G29G02
  -5524409.62547  -4290393.44545  22098607.3134                   22098604.8444
   9849704.84047   7696048.36743  23958701.6564                   23958701.0984
 -13785715.20347 -10727915.17645  21744603.7114                   21744601.6214
 -15062767.57448 -11722981.88746  20793699.9304                   20793696.8714
 -19406504.98848 -15116634.28547  20316672.1724                   20316669.5824
 -14613171.43448 -11371488.00446  21929581.4304                   21929581.2734
  -9662526.67647  -7522187.18444  23859170.9534                   23859168.9654
 -10030995.90648  -7799472.97346  21067584.8984                   21067579.7074
 11  8 20  1 35  0.0000000  0  8G10G04G30G12G05G25G29G02
  -5396410.33247  -4190653.75045  22122965.1414                   22122962.7974
   9976910.96947   7795169.98843  23982908.3284                   23982906.6094
 -13770911.00447 -10716379.40245  21747420.7114                   21747418.8244
 -14996218.37148 -11671125.37546  20806363.7034                   20806360.4024
 -19380220.61748 -15096152.93447  20321673.9064                   20321670.9734
 -14612568.18048 -11371017.92246  21929696.0314                   21929696.2034
  -9698604.94946  -7550300.12944  23852305.3984                   23852304.0204
  -9954483.10548  -7739852.60546  21082144.8754                   21082140.3014
 11  8 20  1 35 30.0000000  0  8G10G04G30G12G05G25G29G02
  -5268006.21547  -4090598.59845  22147399.3834                   22147397.1294
  10104079.25047   7894262.13743  24007107.9144                   24007106.0274
 -13755503.27347 -10704373.35245  21750352.8054                   21750350.8594
 -14929086.05148 -11618814.48446  20819138.4534                   20819135.2074
 -19353349.02348 -15075214.00447  20326787.4224                   20326784.6604
 -14611426.05548 -11370127.91846  21929913.1804                   21929912.8954
  -9734711.63346  -7578435.19144  23845433.8834                   23845433.1844
  -9877831.27348  -7680123.89846  21096731.2504                   21096726.3874
 11  8 20  1 36  0.0000000  0  8G10G04G30G12G05G25G29G02
  -5139198.46947  -3990228.95745  22171910.7734                   22171908.4344
  10231210.75446   7993325.60243  24031299.7424                   24031299.0784
 -13739489.68748 -10691895.20745  21753400.3594                   21753398.2624
 -14861370.25448 -11566048.93446  20832024.1884                   20832021.5984
 -19325888.59048 -15053816.23447  20332012.9384                   20332010.0274
 -14609742.00848 -11368815.66046  21930233.9694                   21930233.3634
  -9770844.34046  -7606590.52344  23838557.9384                   23838557.6174
  -9801039.69548  -7620286.30946  21111344.1174                   21111339.1764
 11  8 20  1 36 30.0000000  0  8G10G04G30G12G05G25G29G02
  -5009989.38747  -3889546.57045  22196498.3364                   22196496.0594
  10358305.19946   8092360.18843  24055484.6174                   24055484.1994
 -13722868.84048 -10678943.86345  21756563.2034                   21756561.2814
 -14793070.80548 -11512828.60246  20845021.4304                   20845018.0004
 -19297838.60248 -15031959.06647  20337350.4694                   20337347.6174
 -14607514.09448 -11367079.59446  21930657.7504                   21930657.6094
  -9807001.19946  -7634764.66444  23831677.9224                   23831677.5864
  -9724108.78548  -7560340.14146  21125983.5864                   21125978.5084
 11  8 20  1 37  0.0000000  0  8G10G04G30G12G05G25G29G02
  -4880383.90247  -3788555.28545  22221161.3754                   22221159.3404
  10485360.07446   8191364.00043  24079662.3134                   24079661.2504
 -13705642.09447 -10665520.40645  21759840.9224                   21759839.1804
 -14724191.54348 -11459156.45346  20858128.5634                   20858125.3364
 -19269200.99248 -15009644.01647  20342800.0554                   20342797.8164
 -14604742.95348 -11364920.23846  21931185.2504                   21931184.6294
  -9843183.24247  -7662958.45344  23824792.9454                   23824791.3594
  -9647041.12948  -7500287.42246  21140648.7584                   21140644.0474
 11  8 20  1 37 30.0000000  0  8G10G04G30G12G05G25G29G02
  -4750384.15247  -3687256.81245  22245900.1884                   22245897.6914
  10612375.85546   8290337.27043  24103832.1564                   24103831.7274
 -13687807.79748 -10651623.52345  21763234.9224                   21763232.7274
 -14654732.08648 -11405032.21146  20871346.2344                   20871343.3714
 -19239974.83248 -14986870.35247  20348361.6954                   20348359.0944
 -14601426.35548 -11362335.85546  21931816.4304                   21931815.6994
  -9879388.87547  -7691170.60944  23817902.6024                   23817901.8984
  -9569837.21148  -7440128.52046  21155340.2894                   21155335.3674
 11  8 20  1 38  0.0000000  0  8G10G04G30G12G05G25G29G02
  -4619991.66047  -3585652.29745  22270712.7584                   22270710.3484
  10739353.32446   8389280.70343  24127996.2344                   24127995.3014
 -13669363.74248 -10637251.51245  21766744.9924                   21766742.5124
 -14584692.05548 -11350455.57046  20884674.8444                   20884671.5084
 -19210158.36348 -14963636.71147  20354035.4924                   20354032.5204
 -14597561.34848 -11359324.12546  21932551.7114                   21932551.4024
  -9915615.56647  -7719399.18744  23811009.6174                   23811008.0664
  -9492496.10948  -7379862.73446  21170058.2424                   21170053.0984
 11  8 20  1 38 30.0000000  0  8G10G04G30G12G05G25G29G02
  -4489209.70347  -3483744.28545  22295599.7814                   22295597.3634
  10866291.23446   8488193.35543  24152151.4304                   24152150.5124
 -13650309.71548 -10622404.19145  21770370.4304                   21770368.2304
 -14514073.10548 -11295427.82846  20898113.0944                   20898109.6914
 -19179752.17248 -14939943.55147  20359821.7584                   20359819.0164
 -14593147.16048 -11355884.46946  21933391.8834                   21933391.4384
  -9951862.91847  -7747643.82044  23804111.8284                   23804109.9454
  -9415019.13748  -7319491.07046  21184801.3134                   21184796.4844
 11  8 20  1 39  0.0000000  0  8G10G04G30G12G05G25G29G02
  -4358044.95347  -3381538.00045  22320559.4614                   22320557.1954
  10993185.23846   8587071.76643  24176298.0784                   24176297.4184
 -13630648.84447 -10607084.02045  21774111.6484                   21774109.4454
 -14442879.75848 -11239952.50846  20911660.6564                   20911657.4454
 -19148760.04748 -14915793.80947  20365719.5164                   20365716.7074
 -14588186.17248 -11352018.75046  21934336.2034                   21934335.5354
  -9988133.60247  -7775906.66444  23797209.7974                   23797208.3324
  -9337410.85248  -7259017.08246  21199569.5084                   21199564.7384
 11  8 20  1 39 30.0000000  0  8G10G04G30G12G05G25G29G02
  -4226500.89847  -3279036.15245  22345591.3674                   22345589.3244
  11120034.67246   8685915.46943  24200436.8914                   24200436.7074
 -13610380.98048 -10591290.86745  21777968.5004                   21777966.5744
 -14371113.74248 -11184030.94146  20925317.0314                   20925314.0164
 -19117182.26248 -14891187.72347  20371728.5634                   20371725.4614
 -14582677.50048 -11347726.25846  21935384.2734                   21935383.4264
 -10024427.13347  -7804187.29744  23790303.5314                   23790302.2274
  -9259672.80148  -7198441.97746  21214362.7424                   21214357.6994
 11  8 20  1 40  0.0000000  0  8G10G04G30G12G05G25G29G02
  -4094576.78147  -3176238.15645  22370696.0864                   22370693.4384
  11246842.49246   8784726.71943  24224567.7584                   24224566.9454
 -13589501.86748 -10575021.41045  21781941.6414                   21781939.4614
 -14298772.30948 -11127661.00846  20939083.5784                   20939080.2544
 -19085015.42248 -14866122.63747  20377849.5784                   20377846.5084
 -14576616.24248 -11343003.18446  21936537.2894                   21936536.6024
 -10060738.78147  -7832482.05944  23783393.6724                   23783392.0824
  -9181801.98448  -7137763.42646  21229181.0314                   21229175.9734
 11  8 20  1 40 30.0000000  0  8G10G04G30G12G05G25G29G02
  -3962276.50047  -3073147.04345  22395871.3674                   22395869.6334
  11373607.21947   8883504.40244  24248690.9224                   24248689.5784
 -13568011.87948 -10558275.94945  21786031.4224                   21786028.9614
 -14225857.75848 -11070844.48046  20952958.4384                   20952955.2584
 -19052260.22348 -14840599.07847  20384082.5394                   20384079.7504
 -14570002.11348 -11337849.30146  21937796.2664                   21937795.8754
 -10097068.57847  -7860790.91844  23776479.9064                   23776478.5474
  -9103800.03148  -7076982.68446  21244024.3284                   21244019.3444
 11  8 20  1 41  0.0000000  0  8G10G04G30G12G05G25G29G02
  -3829603.10547  -2969765.19945  22421118.3594                   22421116.2894
  11500328.21946   8982247.97743  24272804.7194                   24272804.6134
 -13545910.46948 -10541054.05945  21790237.0084                   21790234.6454
 -14152371.31248 -11013582.32846  20966942.7034                   20966939.5274
 -19018916.91048 -14814617.26247  20390427.7274                   20390424.6954
 -14562833.84848 -11332263.63346  21939160.3674                   21939159.8444
 -10133415.59847  -7889113.21544  23769562.6954                   23769561.7814
  -9025668.21148  -7016100.73846  21258892.2584                   21258887.1844
 11  8 20  1 41 30.0000000  0  8G10G04G30G12G05G25G29G02
  -3696560.28147  -2866095.46144  22446435.8444                   22446433.5124
  11627004.39146   9080956.65243  24296909.9384                   24296909.4454
 -13523197.74248 -10523355.82845  21794558.9064                   21794556.7974
 -14078314.46948 -10955875.68746  20981034.8364                   20981031.8874
 -18984986.16048 -14788177.69147  20396884.6954                   20396881.7974
 -14555110.87148 -11326245.72346  21940629.7114                   21940629.5084
 -10169779.00047  -7917448.27744  23762643.5634                   23762642.4614
  -8947407.62148  -6955118.45746  21273784.4454                   21273779.8754
 11  8 20  1 42  0.0000000  0  8G10G04G30G12G05G25G29G02
  -3563148.58647  -2762138.30945  22471823.0084                   22471821.0634
  11753637.48846   9179631.75843  24321008.5164                   24321006.8874
 -13499871.05148 -10505179.17646  21798997.6644                   21798995.5124
 -14003686.81648 -10897724.27046  20995236.1174                   20995233.2034
 -18950466.38748 -14761279.15247  20403453.0784                   20403450.2114
 -14546829.86348 -11319792.98046  21942205.5864                   21942205.1484
 -10206155.95347  -7945793.89544  23755721.1254                   23755719.5824
  -8869016.82448  -6894034.72346  21288701.9614                   21288697.0164
 11  8 20  1 42 30.0000000  0  8G10G04G30G12G05G25G29G02
  -3429379.78547  -2657902.88344  22497278.2194                   22497276.7154
  11880218.21946   9278266.06343  24345095.9144                   24345094.8204
 -13475938.68448 -10486530.57045  21803552.1334                   21803549.5634
 -13928498.14148 -10839135.69946  21009543.9844                   21009541.4344
 -18915365.91048 -14733928.11747  20410132.7734                   20410129.8794
 -14537998.30948 -11312911.24646  21943886.2114                   21943886.0474
 -10242554.04747  -7974156.01644  23748794.7274                   23748793.0664
  -8790505.50048  -6832857.07446  21303642.6174                   21303637.5164
 11  8 20  1 43  0.0000000  0  8G10G04G30G12G05G25G29G02
  -3295243.19547  -2553380.86345  22522804.0554                   22522801.4804
  12006759.64846   9376869.73043  24369175.6024                   24369174.8484
 -13451386.48848 -10467398.98045  21808223.9844                   21808221.8554
 -13852735.84848 -10780100.15646  21023961.3364                   21023958.3054
 -18879671.59448 -14706114.34047  20416925.2504                   20416922.1254
 -14528601.41448 -11305588.98846  21945674.3914                   21945673.8914
 -10278958.80147  -8002523.31644  23741867.2504                   23741865.2894
  -8711861.15248  -6771575.75846  21318607.6804                   21318602.6214
 11  8 20  1 43 30.0000000  0  8G10G04G30G12G05G25G29G02
  -3160753.09047  -2448583.40245  22548396.7344                   22548394.2194
  12133250.11346   9475433.66443  24393246.1094                   24393245.4144
 -13426225.37548 -10447792.90245  21813012.1174                   21813010.0124
 -13776412.41848 -10720627.35246  21038484.7344                   21038482.2974
 -18843394.59048 -14677846.52047  20423828.2584                   20423825.3794
 -14518649.26248 -11297834.06646  21947568.1174                   21947567.6054
 -10315380.09847  -8030903.47744  23734936.6884                   23734935.3054
  -8633095.11348  -6710199.62546  21333596.2194                   21333591.4774
 11  8 20  1 44  0.0000000  0  8G10G04G30G12G05G25G29G02
  -3025903.72347  -2343505.98045  22574057.3754                   22574055.4344
  12259697.73046   9573964.21143  24417309.1644                   24417307.6914
 -13400446.33248 -10427705.34446  21817917.5554                   21817915.5704
 -13699520.63348 -10660711.68446  21053117.0554                   21053114.1454
 -18806526.58248 -14649118.17647  20430843.9694                   20430841.0554
 -14508132.23048 -11289638.96946  21949569.6174                   21949568.7304
 -10351808.32447  -8059289.02744  23728004.4454                   23728003.0394
  -8554199.87148  -6648722.80146  21348609.7894                   21348604.9384
 11  8 20  1 44 30.0000000  0  9G10G04G26G30G12G05G25G29G02
  -4466116.31647  -3465749.57844  22299994.3754                   22299991.7624
  10810683.64547   8444862.35243  24141570.2504                   24141569.7704
  -9516927.76256  -7406501.98853  24683630.2424                   24683630.7774
 -14949470.89548 -11634737.46545  21523148.3594                   21523146.1294
 -15197482.28548 -11827954.53146  20768064.4534                   20768061.4454
 -20344489.47348 -15847530.80147  20138179.4064                   20138176.6724
 -16072471.55548 -12508604.68046  21651885.7734                   21651885.1564
 -11963666.25047  -9315282.12944  23421278.0314                   23421276.0984
 -10050596.35548  -7814746.03946  21063854.5394                   21063850.2154
 11  8 20  1 45  0.0000000  0  9G10G04G26G30G12G05G25G29G02
  -4330568.92647  -3360128.24244  22325788.0634                   22325786.0664
  10937032.85247   8543316.35242  24165614.1954                   24165612.8984
  -9562510.15246  -7442020.58643  24674956.6954                   24674956.0474
 -14922466.44148 -11613695.03145  21528286.8204                   21528284.7194
 -15119469.59048 -11767165.42246  20782909.9534                   20782906.6134
 -20306452.09048 -15817891.24647  20145417.6094                   20145414.7114
 -16060832.90648 -12499535.59846  21654100.3754                   21654099.7074
 -12000116.41547  -9343684.78144  23414341.7424                   23414339.9264
  -9971456.53948  -7753078.63746  21078914.6644                   21078910.0514
 11  8 20  1 45 30.0000000  0  9G10G04G26G30G12G05G25G29G02
  -4194682.32047  -3254242.57845  22351646.2734                   22351644.2934
  11063326.96947   8641727.48043  24189647.1484                   24189645.1684
  -9608223.23446  -7477640.98443  24666257.5394                   24666257.0164
 -14894853.94948 -11592178.80145  21533541.4384                   21533538.9694
 -15040903.61748 -11705945.19146  20797860.4384                   20797857.4774
 -20267835.50848 -15787800.37547  20152766.1954                   20152763.2234
 -16048636.98848 -12490032.27746  21656421.1954                   21656420.8164
 -12036581.07447  -9372098.74644  23407402.4064                   23407400.7464
  -9892200.69148  -7691320.82446  21093996.8754                   21093992.3914
 11  8 20  1 46  0.0000000  0  9G10G04G26G30G12G05G25G29G02
  -4058461.15247  -3148096.22345  22377568.5474                   22377566.4804
  11189563.93746   8740094.02043  24213668.2194                   24213666.5274
  -9654065.71146  -7513362.21543  24657533.8914                   24657534.0554
 -14866634.83248 -11570189.88346  21538911.5314                   21538909.4654
 -14961787.66448 -11644296.39546  20812915.4454                   20812912.6134
 -20228641.74248 -15757259.74647  20160224.6174                   20160221.6414
 -16035884.52748 -12480095.29346  21658848.0234                   21658847.6564
 -12073060.84847  -9400524.47744  23400460.4614                   23400458.4964
  -9812831.35548  -7629474.58246  21109100.0554                   21109095.7114
 11  8 20  1 46 30.0000000  0  9G10G04G26G30G12G05G25G29G02
  -3921903.94947  -3041688.03544  22403554.1174                   22403552.5784
  11315747.56646   8838418.85243  24237680.0394                   24237679.4024
  -9700030.44946  -7549178.70343  24648786.7734                   24648786.8094
 -14837804.39848 -11547724.60545  21544397.8754                   21544395.1954
 -14882118.45748 -11582216.48846  20828076.2034                   20828072.9884
 -20188866.75448 -15726266.21547  20167793.3364                   20167790.2774
 -16022569.99648 -12469720.33246  21661381.4614                   21661380.9304
 -12109550.17247  -9428957.65644  23393517.2974                   23393515.9224
  -9733344.68848  -7567536.91046  21124226.1024                   21124221.1374
 11  8 20  1 47  0.0000000  0  9G10G04G26G30G12G05G25G29G02
  -3785011.71547  -2935018.77344  22429604.3914                   22429601.8244
  11441879.61746   8936703.55943  24261683.3674                   24261681.5164
  -9746112.73446  -7585086.82043  24640017.3754                   24640017.3054
 -14808360.49248 -11524781.30545  21550000.7584                   21549998.0164
 -14801895.52048 -11519705.10246  20843342.1564                   20843339.3984
 -20148509.05148 -15694818.62147  20175473.2424                   20175470.7034
 -16008690.58248 -12458905.19146  21664022.7894                   21664022.5004
 -12146045.93447  -9457395.86744  23386571.7344                   23386570.5514
  -9653739.55148  -7505506.92646  21139374.3134                   21139369.1134
 11  8 20  1 47 30.0000000  0  9G10G04G26G30G12G05G25G29G02
  -3647788.64547  -2828091.69944  22455716.4694                   22455714.6724
  11567958.24247   9034946.70743  24285674.8914                   24285673.5204
  -9792311.43046  -7621085.63744  24631226.2584                   24631226.2464
 -14778304.28548 -11501360.87546  21555720.2894                   21555718.4384
 -14721121.55148 -11456764.35246  20858713.2734                   20858710.0744
 -20107570.36748 -15662918.30947  20183263.3834                   20183260.6054
 -15994246.59448 -12447650.12546  21666771.2034                   21666771.3444
 -12182548.07447  -9485839.09044  23379625.8204                   23379624.5004
  -9574017.91848  -7443386.16046  21154544.7424                   21154539.9614
 11  8 20  1 48  0.0000000  0  9G10G04G26G30G12G05G25G29G02
  -3510233.86747  -2720906.17644  22481892.1484                   22481890.8554
  11693987.12946   9133151.13743  24309656.8134                   24309656.3594
  -9838619.24246  -7657169.48843  24622413.6334                   24622413.7814
 -14747631.68448 -11477460.14545  21561557.0554                   21561554.5984
 -14639794.46948 -11393392.59446  20874189.3444                   20874185.8634
 -20066047.01648 -15630562.41047  20191165.0554                   20191162.1954
 -15979233.26648 -12435951.41446  21669627.7974                   21669628.1334
 -12219051.82047  -9514283.51644  23372679.2274                   23372678.0044
  -9494176.57848  -7381172.11746  21169737.9534                   21169732.9264
 11  8 20  1 48 30.0000000  0  9G10G04G26G30G12G05G25G29G02
  -3372353.54347  -2613466.98844  22508130.2734                   22508128.0984
  11819962.47345   9231313.81643  24333628.5084                   24333629.0164
  -9885036.81646  -7693338.84043  24613580.2424                   24613581.0864
 -14716345.61748 -11453081.39145  21567510.3984                   21567508.3164
 -14557918.46548 -11329593.11346  20889769.6334                   20889766.7194
 -20023942.41448 -15597753.59447  20199177.2504                   20199174.6374
 -15963652.69948 -12423810.71946  21672593.0704                   21672593.0664
 -12255558.87947  -9542730.54744  23365732.4384                   23365730.7974
  -9414219.43848  -7318867.84846  21184953.0004                   21184948.3524
 11  8 20  1 49  0.0000000  0  9G10G04G26G30G12G05G25G29G02
  -3234147.76647  -2505774.16444  22534429.9844                   22534428.0084
  11945887.05555   9329436.70352  24357590.5864                   24357591.9734
  -9931558.67246  -7729589.50043  24604727.5474                   24604728.0314
 -14684443.47348 -11428222.57045  21573581.1804                   21573579.0204
 -14475492.91448 -11265365.40646  20905454.4614                   20905451.5744
 -19981254.89848 -15564490.55947  20207300.0704                   20207297.6334
 -15947501.50848 -12411225.36746  21675666.7504                   21675666.0904
 -12292065.57447  -9571177.31644  23358785.5474                   23358783.5164
  -9334144.59048  -7256471.84846  21200190.7274                   21200186.2114
 11  8 20  1 49 30.0000000  0  9G10G04G26G30G12G05G25G29G02
  -3095623.32447  -2397833.03944  22560790.4224                   22560788.9574
  12071756.07046   9427516.43043  24381544.8284                   24381543.5984
  -9978185.64146  -7765922.00043  24595855.0634                   24595854.7974
 -14651928.52348 -11402886.25445  21579768.7974                   21579766.2814
 -14392522.73848 -11200713.32246  20921243.0784                   20921240.6414
 -19937988.19948 -15530776.21947  20215533.6564                   20215530.8754
 -15930782.25448 -12398197.37146  21678848.0634                   21678847.8524
 -12328574.19147  -9599625.55144  23351838.1254                   23351836.0164
  -9253956.10948  -7193987.32046  21215450.3984                   21215445.6094
 11  8 20  1 50  0.0000000  0  9G10G04G26G30G12G05G25G29G02
  -2956784.94147  -2289647.27344  22587210.1644                   22587208.3324
  12197568.15246   9525551.83644  24405485.4454                   24405484.7304
 -10024916.44945  -7802335.45342  24586960.7344                   24586962.6524
 -14618802.46548 -11377073.74245  21586072.2344                   21586069.5124
 -14309011.16047 -11135639.35946  20937134.9614                   20937132.0354
 -19894144.57048 -15496612.31247  20223876.8834                   20223874.1644
 -15913495.82448 -12384727.41046  21682137.4924                   21682137.4614
 -12365085.13347  -9628075.60944  23344889.9924                   23344888.1764
  -9173656.41047  -7131416.11746  21230730.8134                   21230726.1174
 11  8 20  1 50 30.0000000  0  9G10G04G26G30G12G05G25G29G02
  -2817630.30947  -2181215.09844  22613690.4144                   22613688.7504
  12323327.41447   9623546.09444  24429416.8524                   24429415.8594
 -10071743.39845  -7838823.82042  24578049.7344                   24578052.1024
 -14585060.49248 -11350781.29745  21592493.2814                   21592490.4384
 -14224954.84448 -11070140.93446  20953130.3594                   20953127.3794
 -19849719.73048 -15461995.52047  20232330.4774                   20232327.8594
 -15895636.50848 -12370811.05546  21685535.9534                   21685535.7274
 -12401592.35947  -9656522.75044  23337943.0314                   23337941.2934
  -9093241.46148  -7068755.12146  21246033.4144                   21246028.7424
 11  8 20  1 51  0.0000000  0  9G10G04G26G30G12G05G25G29G02
  -2678167.33647  -2072542.63744  22640229.8204                   22640227.4144
  12449029.10246   9721495.51643  24453336.1564                   24453335.9064
 -10118668.03545  -7875388.30142  24569120.4224                   24569122.8164
 -14550707.08648 -11324012.41045  21599030.5004                   21599028.2504
 -14140360.51648 -11004223.26646  20969227.8054                   20969225.5004
 -19804718.80948 -15426929.82447  20240894.1174                   20240891.1604
 -15877208.14848 -12356451.28146  21689042.8134                   21689042.9964
 -12438099.42647  -9684969.76245  23330996.3134                   23330994.6174
  -9012716.35948  -7006008.27746  21261356.8134                   21261351.9344
 11  8 20  1 51 30.0000000  0  9G10G04G26G30G12G05G25G29G02
  -2538392.98447  -1963627.56344  22666827.8674                   22666826.1134
  12574679.91456   9819405.46153  24477246.4144                   24477246.1174
 -10165681.74646  -7912022.24242  24560174.1954                   24560176.3054
 -14515736.35548 -11296762.49245  21605685.0864                   21605682.7344
 -14055223.39848 -10937882.64846  20985429.2814                   20985425.7664
 -19759136.39148 -15391411.01247  20249568.3594                   20249565.0664
 -15858204.02048 -12341642.88346  21692659.3834                   21692658.8594
 -12474598.63747  -9713410.65244  23324050.4454                   23324048.5664
  -8932075.67648  -6943171.37946  21276702.1334                   21276697.9574
 11  8 20  1 52  0.0000000  0  9G10G04G26G30G12G05G25G29G02
  -2398315.96947  -1854476.61344  22693483.8594                   22693481.0594
  12700271.65247   9917269.16443  24501147.0314                   24501144.7544
 -10212787.42246  -7948727.78142  24551211.3284                   24551211.6374
 -14480154.04348 -11269036.01245  21612456.2814                   21612453.4774
 -13969550.91448 -10871124.87146  21001731.9924                   21001728.9414
 -19712978.92248 -15355444.12547  20258351.5784                   20258348.2464
 -15838629.09448 -12326389.68746  21696384.2344                   21696384.3404
 -12511094.72746  -9741849.10544  23317105.3594                   23317103.7274
  -8851326.05548  -6880249.59046  21292068.2424                   21292063.8714
 11  8 20  1 52 30.0000000  0  9G10G04G26G30G12G05G25G29G02
  -2257932.02347  -1745086.51644  22720197.4304                   22720195.5634
  12825812.42647  10015093.19544  24525036.7034                   24525035.1254
 -10259974.72746  -7985496.99242  24542230.3364                   24542231.8444
 -14443952.94548 -11240827.37546  21619345.1564                   21619343.1414
 -13883337.55548 -10803945.64146  21018138.2504                   21018135.2974
 -19666239.66848 -15319023.88747  20267245.5314                   20267242.7854
 -15818475.30548 -12310685.43446  21700219.5164                   21700218.7854
 -12547579.07046  -9770278.42244  23310162.1954                   23310160.8404
  -8770460.63748  -6817237.58646  21307456.6804                   21307451.7974
 11  8 20  1 53  0.0000000  0  9G10G04G26G30G12G05G25G29G02
  -2117250.86347  -1635464.83644  22746968.5704                   22746966.5514
  12951294.84447  10112871.73444  24548915.1954                   24548914.4144
 -10307247.53546  -8022332.87143  24533235.1724                   24533235.6684
 -14407139.97748 -11212141.94945  21626350.3054                   21626348.2344
 -13796591.65248 -10736351.42646  21034645.5004                   21034642.0234
 -19618926.31648 -15282156.30947  20276249.0944                   20276246.5664
 -15797748.76648 -12294534.87546  21704163.3134                   21704163.1604
 -12584057.20746  -9798702.89544  23303220.8054                   23303219.1484
  -8689486.89148  -6754141.16446  21322865.3284                   21322860.5274
 11  8 20  1 53 30.0000000  0  9G10G04G26G30G12G05G25G29G02
  -1976274.23047  -1525612.90644  22773795.7034                   22773793.2234
  13076720.18747  10210605.78143  24572782.6644                   24572782.3164
 -10354601.51246  -8059231.95743  24524223.9844                   24524223.1994
 -14369713.91048 -11182978.78145  21633472.2274                   21633469.9024
 -13709313.43448 -10668342.42246  21051253.6884                   21051250.5634
 -19571037.85248 -15244840.58247  20285361.8674                   20285359.0664
 -15776447.45348 -12277936.43746  21708217.2584                   21708217.1294
 -12620526.50046  -9827120.46944  23296281.1024                   23296279.2424
  -8608404.06348  -6690959.73446  21338294.9614                   21338290.2274
 11  8 20  1 54  0.0000000  0  9G10G04G26G30G12G05G25G29G02
  -1835002.36747  -1415530.94144  22800678.9694                   22800676.0354
  13202090.94146  10308297.20743  24596638.9454                   24596639.0314
 -10402031.26247  -8096190.07043  24515198.4844                   24515197.8324
 -14331672.25848 -11153335.93045  21640711.0634                   21640709.0204
 -13621502.34048 -10599918.19146  21067963.6024                   21067960.4494
 -19522572.57448 -15207075.41047  20294584.4144                   20294581.5274
 -15754568.07448 -12260887.55146  21712380.4304                   21712380.1254
 -12656982.91047  -9855528.00444  23289343.7504                   23289341.3404
  -8527210.16047  -6627691.74246  21353745.2274                   21353740.7424
 11  8 20  1 54 30.0000000  0  9G10G04G26G30G12G05G25G29G02
  -1693443.68447  -1305225.44144  22827616.1094                   22827613.9224
  13327401.48846  10405941.73842  24620485.3134                   24620484.8484
 -10449539.02746  -8133209.00043  24506157.7814                   24506158.2814
 -14293020.44148 -11123217.62945  21648066.2114                   21648064.5784
 -13533165.44148 -10531084.25446  21084773.5784                   21084770.2234
 -19473536.33248 -15168865.32047  20303915.5704                   20303912.8364
 -15732115.22748 -12243391.81246  21716653.4224                   21716652.9344
 -12693430.39147  -9883928.61344  23282408.2274                   23282405.3554
  -8445910.93047  -6564341.66846  21369216.2504                   21369211.3984
 11  8 20  1 55  0.0000000  0  9G10G04G26G30G12G05G25G29G02
  -1551591.28947  -1194691.13344  22854610.2504                   22854607.7154
  13452661.04346  10503546.45342  24644321.4384                   24644320.9694
 -10497112.05146  -8170278.75844  24497104.3754                   24497105.2664
 -14253749.03948 -11092616.54745  21655539.8674                   21655537.5664
 -13444295.23848 -10461834.74646  21101685.2114                   21101682.0704
 -19423920.17648 -15130203.35247  20313357.3594                   20313354.3324
 -15709078.68048 -12225441.23446  21721036.8594                   21721036.8984
 -12729858.11747  -9912313.80545  23275475.8204                   23275473.9614
  -8364497.54347  -6500902.63746  21384708.3914                   21384703.9064
 11  8 20  1 55 30.0000000  0  9G10G04G26G30G12G05G25G29G02
  -1409459.94546  -1083939.44144  22881656.2194                   22881653.9694
  13577857.625 6                  24668145.383
 -10544759.08647  -8207406.18444  24488038.4694                   24488038.0004
 -14213870.01248 -11061541.98845  21663128.4144                   21663126.5904
 -13354904.82448 -10392179.87146  21118695.4224                   21118692.2234
 -19373736.80548 -15091099.40647  20322906.8134                   20322903.9844
 -15685469.57448 -12207044.51646  21725529.4534                   21725529.1254
 -12766276.58647  -9940691.77744  23268545.9534                   23268543.6994
  -8282982.23447  -6437384.19546  21400220.3204                   21400215.9104
 11  8 20  1 56  0.0000000  0  9G10G04G26G30G12G05G25G29G02
  -1267044.23847   -972966.16844  22908757.3134                   22908754.9264
  13702999.504 6                  24691958.898
 -10592469.10546  -8244582.69144  24478959.0004                   24478959.5314
 -14173375.24248 -11029987.61746  21670834.1334                   21670832.0744
 -13264987.43048 -10322114.38346  21135806.2504                   21135802.8834
 -19322978.50448 -15051547.46147  20332566.3204                   20332562.8714
 -15661278.94948 -12188194.65646  21730132.9454                   21730132.5784
 -12802675.75847  -9969054.73445  23261618.8444                   23261617.5704
  -8201356.96147  -6373780.07046  21415753.3754                   21415748.6334
 11  8 20  1 56 30.0000000  0  9G10G04G26G30G12G05G25G29G02
  -1124345.93847   -861772.68844  22935912.1254                   22935909.4694
  13828087.29746  10582170.70753  24715762.4224                   24715761.4494
 -10640237.69146  -8281804.81343  24469868.8674                   24469868.7504
 -14132263.96948 -10997952.85545  21678657.3134                   21678655.1724
 -13174544.09848 -10251639.05946  21153016.9064                   21153014.4104
 -19271645.19548 -15011547.46947  20342334.2664                   20342331.0004
 -15636505.26248 -12168890.46546  21734846.8364                   21734846.8634
 -12839053.42647  -9997400.92244  23254696.0864                   23254694.6994
  -8119621.48448  -6310090.07846  21431307.1414                   21431302.3984
 11  8 20  1 57  0.0000000  0  9G10G04G26G30G12G05G25G29G02
   -981366.72347   -750360.34844  22963119.6414                   22963117.5434
  13953122.43446  10679600.59043  24739555.1094                   24739555.1954
 -10688060.48846  -8319069.18843  24460767.7034                   24460769.0354
 -14090535.01648 -10965436.78145  21686598.4144                   21686595.7934
 -13083575.51248 -10180754.45746  21170327.6724                   21170324.6884
 -19219736.07848 -14971098.79347  20352212.1414                   20352209.1484
 -15611146.49248 -12149130.36346  21739672.8674                   21739672.5744
 -12875406.46147 -10025727.92645  23247778.9144                   23247776.8834
  -8037774.94948  -6246313.54746  21446882.0864                   21446876.9184
 11  8 20  1 57 30.0000000  0  9G10G04G26G30G12G05G25G29G02
   -838123.46547   -638742.24644  22990377.7734                   22990376.2504
  14078090.47346  10776978.23442  24763336.3524                   24763335.4224
 -10735948.46546  -8356384.37543  24451654.7974                   24451655.8404
 -14048202.80148 -10932450.62945  21694653.4614                   21694651.4344
 -12992097.27048 -10109472.71946  21187735.4064                   21187732.1214
 -19167266.12948 -14930213.09847  20362196.8444                   20362193.9494
 -15585216.20348 -12128924.91846  21744607.0554                   21744606.4884
 -12911747.58047 -10054045.67345  23240863.3524                   23240860.9454
  -7955831.89848  -6182461.79346  21462475.0314                   21462469.9734
 11  8 20  1 58  0.0000000  0  8G10G26G30G12G05G25G29G02
   -694604.21147   -526909.11744  23017689.0004                   23017686.9774
 -10783883.76646  -8393736.38343  24442533.2194                   24442533.9654
 -14005252.79348 -10898983.08646  21702826.8444                   21702824.7624
 -12900096.13748 -10037783.52346  21205242.5234                   21205239.3874
 -19114221.29748 -14888879.44947  20372291.1804                   20372288.3484
 -15558699.03948 -12108262.16446  21749653.4224                   21749652.8284
 -12948060.48047 -10082341.42244  23233953.3204                   23233951.1094
  -7873777.66048  -6118523.40646  21478089.4454                   21478084.5124
 11  8 20  1 58 30.0000000  0  8G10G26G30G12G05G25G29G02
   -550822.46147   -414871.39544  23045050.4694                   23045048.0514
 -10831873.79746  -8431131.04343  24433400.8834                   24433401.7234
 -13961695.80548 -10865042.57046  21711115.5864                   21711113.1564
 -12807584.95348  -9965696.89146  21222846.9844                   21222843.9574
 -19060612.58248 -14847106.40647  20382492.5394                   20382489.3794
 -15531604.97348 -12087149.87146  21754808.8204                   21754808.3524
 -12984354.39547 -10110622.39844  23227046.6254                   23227044.6724
  -7791623.41048  -6054507.09446  21493722.9304                   21493718.1294
 11  8 20  1 59  0.0000000  0  8G10G26G30G12G05G25G29G02
   -406772.07847   -302624.37544  23072462.1724                   23072459.6564
 -10879906.51246  -8468558.94143  24424260.7194                   24424260.8794
 -13917523.31648 -10830622.44145  21719521.5944                   21719518.8874
 -12714556.61348  -9893207.28146  21240549.8834                   21240546.5634
 -19006432.57448 -14804888.20747  20392802.4224                   20392799.5314
 -15503924.64148 -12065580.75446  21760075.9924                   21760075.6564
 -13020618.89147 -10138880.42645  23220146.1334                   23220144.0554
  -7709360.65248  -5990406.23446  21509376.8054                   21509372.5824
 11  8 20  1 59 30.0000000  0  8G10G26G30G12G05G25G29G02
   -262465.43847   -190177.68844  23099922.7664                   23099919.9534
 -10927987.69946  -8506024.67243  24415110.7034                   24415110.5474
 -13872745.05148 -10795730.28145  21728042.6024                   21728040.2974
 -12621022.10948  -9820323.26246  21258348.3594                   21258345.3984
 -18951691.24248 -14762232.60547  20403219.5234                   20403216.4694
 -15475666.93048 -12043561.73446  21765453.5474                   21765453.1484
 -13056861.72347 -10167121.58644  23213248.8444                   23213246.7154
  -7626999.35248  -5926228.58246  21525049.8444                   21525045.2854
 11  8 20  2  0  0.0000000  0  8G10G26G30G12G05G25G29G02
   -117904.51247    -77532.84044  23127431.6564                   23127429.3524
 -10976113.95746  -8543525.54343  24405953.5314                   24405952.2274
 -13827360.63348 -10760365.78545  21736678.7034                   21736676.4494
 -12526982.98848  -9747046.03146  21276243.7034                   21276240.1764
 -18896388.64548 -14719139.65247  20413743.1174                   20413739.7464
 -15446830.61348 -12021091.85246  21770940.8134                   21770940.3054
 -13093080.55947 -10195344.03544  23206356.3284                   23206354.9694
  -7544539.17248  -5861973.89546  21540741.4694                   21540736.4454
 11  8 20  2  0 30.0000000  0  8G10G26G30G12G05G25G29G02
     26919.54347     35317.05144  23154990.5784                   23154988.2234
 -11024270.48047  -8581049.98043  24396789.1804                   24396787.8754
 -13781358.91448 -10724520.27345  21745432.3834                   21745430.2734
 -12432429.44948  -9673367.94946  21294236.6644                   21294233.1764
 -18840514.16048 -14675601.07847  20424375.6024                   20424372.5124
 -15417403.70748 -11998161.78146  21776540.7194                   21776540.5314
 -13129262.12547 -10223537.40645  23199471.4224                   23199469.2934
  -7461968.78148  -5797633.32046  21556453.9454                   21556449.1174
 11  8 20  2  1  0.0000000  0  8G10G26G30G12G05G25G29G02
  -1403420.50047  -1079233.67244  22882805.7814                   22882803.2304
 -12647884.61347  -9846203.71543  24087825.0634                   24087825.9064
 -15310167.84448 -11915799.93045  21454509.4774                   21454507.2504
 -13912789.27348 -10826895.08646  21012533.4924                   21012530.4694
 -20359495.79348 -15859223.09847  20135322.9534                   20135320.0984
 -16962813.80148 -13202377.41046  21482458.9614                   21482458.5554
 -14740835.46547 -11479308.81344  22892799.2424                   22892796.7894
  -8954714.89848  -6960812.10946  21272393.9454                   21272388.8324
 11  8 20  2  1 30.0000000  0  8G10G26G30G12G05G25G29G02
  -1258094.28547   -965992.49644  22910460.4304                   22910458.0904
 -12696106.88747  -9883779.41843  24078649.2034                   24078649.4964
 -15262948.13748 -11879005.35545  21463495.4924                   21463493.3444
 -13817227.68448 -10752431.50846  21030718.3674                   21030715.2274
 -20302495.48048 -15814807.24247  20146169.6954                   20146167.0824
 -16932219.68048 -13178537.80546  21488280.2734                   21488280.4064
 -14776953.24247 -11507452.48444  22885926.4454                   22885924.0514
  -8871940.53548  -6896312.59446  21288145.3834                   21288140.4844
 11  8 20  2  2  0.0000000  0  8G10G26G30G12G05G25G29G02
  -1112521.52746   -852559.23044  22938162.5394                   22938160.0704
 -12744357.86747  -9921377.44943  24069466.4614                   24069467.4804
 -15215120.73048 -11841737.22745  21472596.2734                   21472594.1994
 -13721165.63348 -10677577.96946  21048998.3444                   21048995.5204
 -20244934.32448 -15769954.36347  20157123.3834                   20157120.1564
 -16901042.00048 -13154243.48446  21494213.5864                   21494213.1134
 -14813037.62947 -11535570.09844  22879059.6334                   22879057.7584
  -8789065.19548  -6831734.41046  21303915.8134                   21303911.1334
 11  8 20  2  2 30.0000000  0  8G10G26G30G12G05G25G29G02
   -966704.78546   -738935.78944  22965909.5864                   22965907.9844
 -12792634.03547  -9958995.12143  24060280.3754                   24060280.1844
 -15166685.72347 -11803995.63745  21481813.6484                   21481811.2774
 -13624604.73848 -10602335.71946  21067372.9614                   21067370.2304
 -20186812.82848 -15724664.85947  20168183.5004                   20168180.3364
 -16869280.00448 -13129493.85246  21500257.8524                   21500257.3484
 -14849086.13747 -11563659.76645  22872199.6644                   22872198.5394
  -8706089.07848  -6767077.68846  21319705.8914                   21319701.1804
 11  8 20  2  3  0.0000000  0  8G10G26G30G12G05G25G29G02
   -820650.41446   -625127.23444  22993703.7114                   22993701.3484
 -12840935.00446  -9996632.10943  24051088.3914                   24051088.7424
 -15117646.81648 -11765783.49245  21491145.2664                   21491143.0944
 -13527550.15248 -10526708.76646  21085841.8674                   21085838.7704
 -20128135.07448 -15678941.90247  20179349.2814                   20179346.2234
 -16836936.53148 -13104291.12546  21506412.5704                   21506412.4224
 -14885100.64547 -11591722.93845  22865346.3134                   22865344.9184
  -8623015.70748  -6702345.18046  21335514.2814                   21335509.4414
 11  8 20  2  3 30.0000000  0  8G10G26G30G12G05G25G29G02
   -674357.89546   -511133.07844  23021542.3754                   23021539.7974
 -12889254.93447 -10034283.85543  24041893.0164                   24041893.8794
 -15068001.78547 -11727099.04745  21500592.3914                   21500590.0004
 -13430001.05148 -10450696.48046  21104404.8674                   21104402.1254
 -20068899.24248 -15632784.07047  20190621.7664                   20190618.7154
 -16804008.42248 -13078632.83646  21512678.6724                   21512678.5164
 -14921076.43847 -11619755.93845  22858500.1954                   22858497.9144
  -8539842.22748  -6637534.66846  21351341.6884                   21351336.7274
 11  8 20  2  4  0.0000000  0  8G10G26G30G12G05G25G29G02
   -527831.46146   -396956.66444  23049425.2424                   23049423.5594
 -12937591.91046 -10071948.94943  24032695.8134                   24032695.1484
 -15017752.46548 -11687943.70745  21510154.3834                   21510152.6454
 -13331960.95748 -10374301.59846  21123061.5394                   21123058.4654
 -20009107.83248 -15586193.33247  20201999.7114                   20201996.3714
 -16770496.78948 -13052519.85946  21519055.3754                   21519055.1374
 -14957013.32047 -11647758.61345  22851662.0554                   22851659.7624
  -8456570.65648  -6572647.71946  21367187.9064                   21367182.9264
 11  8 20  2  4 30.0000000  0  8G10G26G30G12G05G25G29G02
   -381071.51646   -282598.31344  23077352.5784                   23077350.6024
 -12985939.91846 -10109622.62143  24023494.8134                   24023494.3834
 -14966897.07048 -11648316.11745  21519832.1094                   21519829.6954
 -13233429.14148 -10297523.56346  21141811.3204                   21141808.3054
 -19948759.65248 -15539168.74647  20213483.4224                   20213480.2424
 -16736398.84448 -13025950.01646  21525544.0394                   21525543.6804
 -14992907.26247 -11675727.83245  22844831.0474                   22844828.9534
  -8373198.77348  -6507682.60246  21383052.4694                   21383047.6134
 11  8 20  2  5  0.0000000  0  8G10G26G30G12G05G25G29G02
   -234083.61347   -168062.28144  23105323.7344                   23105321.4614
 -13034298.57446 -10147304.60243  24014292.3364                   24014292.2274
 -14915438.91047 -11608218.83646  21529624.2034                   21529621.9964
 -13134410.42248 -10220366.12146  21160653.7734                   21160651.0234
 -19887858.19948 -15491713.03147  20225072.3754                   20225069.1254
 -16701717.14148 -12998925.29746  21532143.7664                   21532143.6914
 -15028759.33347 -11703664.41845  22838008.9224                   22838006.5664
  -8289729.44948  -6442641.56646  21398936.5784                   21398931.8674
 11  8 20  2  5 30.0000000  0  8G10G26G30G12G05G25G29G02
    -86871.36747    -53351.46544  23133336.8594                   23133335.0944
 -13082665.19546 -10184992.80943  24005088.4064                   24005087.9654
 -14863379.46148 -11567653.02045  21539530.5084                   21539528.3914
 -13034907.82848 -10142831.62946  21179588.7424                   21179585.6994
 -19826405.23448 -15443827.57047  20236766.7424                   20236763.4804
 -16666452.21548 -12971446.10546  21538854.5164                   21538854.0234
 -15064568.39847 -11731567.50045  22831194.3754                   22831192.3324
  -8206163.89848  -6377525.53946  21414838.3524                   21414833.3364
 11  8 20  2  6  0.0000000  0  8G10G26G30G12G05G25G29G02
     60566.61747     61535.22744  23161393.4844                   23161391.9264
 -13131032.51246 -10222681.51243  23995884.1484                   23995884.1484
 -14810715.39848 -11526616.06345  21549552.2664                   21549549.8874
 -12934919.21148 -10064918.41846  21198616.2584                   21198613.2974
 -19764398.12148 -15395510.31647  20248566.4064                   20248563.1374
 -16630599.90248 -12943509.21546  21545676.9534                   21545677.0904
 -15100329.06647 -11759432.86745  22824389.1804                   22824387.1684
  -8122498.35248  -6312331.58646  21430759.6484                   21430754.7424
 11  8 20  2  6 30.0000000  0  8G10G26G30G12G05G25G29G02
    208221.74247    176591.15244  23189491.8204                   23189489.2304
 -13179403.01646 -10260372.68043  23986680.1954                   23986679.2934
 -14757453.27748 -11485113.08246  21559687.5634                   21559685.3444
 -12834452.85248  -9986632.94546  21217734.1094                   21217731.2624
 -19701843.79748 -15346766.65647  20260469.9844                   20260466.7424
 -16594165.85948 -12915119.03146  21552609.8834                   21552609.4884
 -15136045.13347 -11787263.47345  22817592.2734                   22817590.7344
  -8038738.77048  -6247064.35946  21446698.3284                   21446693.3014
 11  8 20  2  7  0.0000000  0  8G10G26G30G12G05G25G29G02
    356095.80947    291817.68444  23217630.9844                   23217628.5354
 -13227768.53946 -10298060.00843  23977475.8284                   23977475.5084
 -14703589.14848 -11443141.00445  21569937.5634                   21569934.9264
 -12733506.10548  -9907973.14546  21236944.1644                   21236940.8134
 -19638738.68448 -15297593.80947  20272478.2034                   20272475.1644
 -16557145.26248 -12886271.79746  21559655.2114                   21559654.3834
 -15171710.32447 -11815054.46145  22810805.8524                   22810803.6684
  -7954881.16048  -6181720.76246  21462655.4304                   21462651.0124
 11  8 20  2  7 30.0000000  0  8G10G26G30G12G05G25G29G02
    504180.66447    407208.46944  23245809.7504                   23245809.0864
 -13276131.48446 -10335745.34443  23968272.8284                   23968272.9304
 -14649129.24248 -11400704.68845  21580301.0394                   21580298.3914
 -12632086.46148  -9828944.85246  21256243.0864                   21256239.7734
 -19575089.29748 -15247996.85947  20284590.4064                   20284587.0124
 -16519543.52348 -12856971.71146  21566810.3754                   21566809.8364
 -15207328.31647 -11842808.66845  22804027.7114                   22804025.4024
  -7870930.89848  -6116304.95346  21478630.7344                   21478626.3444
 11  8 20  2  8  0.0000000  0  8G10G26G30G12G05G25G29G02
    652474.37547    522761.94944  23274030.0944                   23274028.5784
 -13324487.41446 -10373425.19143  23959070.3284                   23959070.5234
 -14594073.69948 -11357804.24645  21590777.6564                   21590775.1054
 -12530195.38348  -9749549.20346  21275632.3364                   21275629.3634
 -19510896.30148 -15197976.32047  20296806.0234                   20296803.1174
 -16481359.85548 -12827218.18446  21574075.8594                   21574075.6804
 -15242896.70747 -11870524.23845  22797259.2894                   22797256.8834
  -7786887.60548  -6050816.64846  21494623.8674                   21494619.5554
 11  8 20  2  8 30.0000000  0  8G10G26G30G12G05G25G29G02
    800978.69147    638479.55944  23302289.5634                   23302287.4414
 -13372828.73446 -10411093.67243  23949871.0944                   23949871.9304
 -14538418.69947 -11314436.67645  21601368.1954                   21601366.4804
 -12427830.36748  -9669784.25446  21295111.7584                   21295108.7074
 -19446156.14848 -15147529.41847  20309125.6564                   20309122.5594
 -16442589.56648 -12797007.55546  21581454.1484                   21581453.6604
 -15278409.34847 -11898196.35945  22790501.2114                   22790499.6804
  -7702746.88348  -5985252.43446  21510635.5944                   21510630.6254
 11  8 20  2  9  0.0000000  0  8G10G26G30G12G05G25G29G02
    949691.73447    754359.84443  23330588.2274                   23330586.4964
 -13421151.02746 -10448747.33644  23940675.9144                   23940676.3524
 -14482164.32048 -11270602.08246  21612073.5474                   21612071.1054
 -12324992.98848  -9589651.24646  21314680.7114                   21314678.3054
 -19380869.41848 -15096656.62147  20321549.2504                   20321546.0664
 -16403231.88748 -12766339.20346  21588943.7424                   21588943.0514
 -15313863.51247 -11925822.90245  22783754.7734                   22783753.1994
  -7618508.11748  -5919611.81346  21526665.5864                   21526660.4224
 11  8 20  2  9 30.0000000  0  8G10G26G30G12G05G25G29G02
   1098609.00447    870399.20743  23358926.9064                   23358925.2114
 -13469452.66047 -10486384.88344  23931484.5554                   23931484.5164
 -14425313.16847 -11226302.46145  21622891.9844                   21622889.4184
 -12221687.34848  -9509153.33646  21334339.6564                   21334336.7814
 -19315038.98048 -15045360.15247  20334076.0704                   20334073.0044
 -16363288.55548 -12735214.52046  21596544.6954                   21596543.7114
 -15349259.24247 -11953403.95345  22777018.8754                   22777017.5864
  -7534173.47348  -5853896.50046  21542714.1884                   21542708.9614
 11  8 20  2 10  0.0000000  0  8G10G26G30G12G05G25G29G02
   1247723.89447    986592.63443  23387302.7664                   23387300.3714
 -13517733.95646 -10524006.61944  23922297.0944                   23922296.8204
 -14367869.84447 -11181541.40245  21633822.9774                   21633820.2934
 -12117918.76647  -9428294.70746  21354086.2424                   21354082.9844
 -19248669.72748 -14993643.83247  20346705.9534                   20346702.8754
 -16322763.19148 -12703636.30146  21604256.2974                   21604255.7344
 -15384598.32847 -11980940.84045  22770294.0084                   22770292.8954
  -7449746.94148  -5788109.58646  21558779.7814                   21558774.9344
 11  8 20  2 10 30.0000000  0  8G10G26G30G12G05G25G29G02
   1397034.99247   1102938.94143  23415715.6644                   23415712.9534
 -13565990.20746 -10561608.83644  23913113.7194                   23913113.7234
 -14309834.16048 -11136318.77345  21644866.6254                   21644863.6524
 -12013689.02347  -9347076.72746  21373920.2504                   21373917.3134
 -19181762.17648 -14941508.05947  20359437.8754                   20359434.8524
 -16281654.88348 -12671603.84046  21612078.9774                   21612078.6804
 -15419878.09447 -12008431.50445  22763580.4064                   22763578.9304
  -7365227.35948  -5722250.15646  21574863.3834                   21574858.6174
 11  8 20  2 11  0.0000000  0  8G10G26G30G12G05G25G29G02
   1546542.21547   1219438.03143  23444165.9614                   23444163.8444
 -13614215.34447 -10599186.80544  23903936.6254                   23903936.3874
 -14251204.10548 -11090633.01245  21656023.3834                   21656021.3244
 -11908996.96548  -9265498.50846  21393842.7424                   21393839.7624
 -19114314.51248 -14888951.42647  20372272.7894                   20372269.7304
 -16239960.62948 -12639114.81346  21620012.8134                   21620012.4494
 -15455093.59847 -12035872.09845  22756879.0864                   22756877.6644
  -7280612.04348  -5656316.12946  21590965.3914                   21590960.4304
 11  8 20  2 11 30.0000000  0  8G10G26G30G12G05G25G29G02
   1696242.64147   1336087.70344  23472652.4454                   23472650.4264
 -13662406.10246 -10636737.94944  23894766.5474                   23894765.6914
 -14191981.25048 -11044485.32045  21667293.4614                   21667290.5434
 -11803845.57848  -9183562.35946  21413852.1954                   21413849.4384
 -19046328.41448 -14835975.23447  20385210.1564                   20385206.9344
 -16197681.10948 -12606169.71946  21628058.6024                   21628057.8404
 -15490243.56347 -12063261.62945  22750190.5704                   22750188.3834
  -7195901.74648  -5590308.09446  21607084.5394                   21607080.1254
 11  8 20  2 12  0.0000000  0  8G10G26G30G12G05G25G29G02
   1846133.45347   1452885.76243  23501176.1024                   23501173.8914
 -13710559.23446 -10674259.85543  23885603.0944                   23885602.4414
 -14132166.69548 -10997876.57846  21678675.8054                   21678672.9614
 -11698237.39547  -9101270.27746  21433948.5784                   21433945.6564
 -18977805.35548 -14782580.62947  20398249.6884                   20398246.2734
 -16154816.60948 -12572768.81346  21636215.3134                   21636214.9264
 -15525326.38747 -12090598.86345  22743514.7664                   22743512.7274
  -7111096.75448  -5524226.26246  21623222.4924                   21623217.7584
 11  8 20  2 12 30.0000000  0  8G10G26G30G12G05G25G29G02
   1996205.42247   1569824.95543  23529734.3284                   23529732.0314
 -13758677.77346 -10711754.73843  23876445.8594                   23876445.8284
 -14071767.77048 -10950812.47745  21690169.3444                   21690166.6134
 -11592180.77048  -9018628.75046  21454130.8054                   21454127.6414
 -18908753.39148 -14728773.87947  20411389.8754                   20411386.4344
 -16111373.55148 -12538917.06646  21644482.3754                   21644481.3834
 -15560346.47747 -12117887.18845  22736850.4534                   22736848.7544
  -7026203.49248  -5458075.66446  21639376.9064                   21639372.5354
 11  8 20  2 13  0.0000000  0  8G10G26G30G12G05G25G29G02
   2146458.26647   1686905.11744  23558326.1254                   23558323.9144
 -13806755.69946 -10749217.97743  23867297.7584                   23867296.9184
 -14010783.14548 -10903291.98445  21701774.1804                   21701771.6994
 -11485675.81648  -8935637.87946  21474397.7194                   21474394.6994
 -18839171.30948 -14674554.05147  20424630.6724                   20424627.5204
 -16067349.73448 -12504612.79346  21652859.6724                   21652859.0554
 -15595299.48847 -12145123.25045  22730199.0004                   22730196.1914
  -6941219.91848  -5391854.67246  21655548.8364                   21655544.4964
 11  8 20  2 13 30.0000000  0  8G10G26G30G12G05G25G29G02
   2296897.05946   1804130.14544  23586953.3754                   23586951.7664
 -13854782.46146 -10786641.27743  23858157.5944                   23858157.2154
 -13949206.53148 -10855310.21945  21713491.8204                   21713489.3914
 -11378717.41847  -8852293.67646  21494751.1484                   21494748.7774
 -18769053.09048 -14619916.46547  20437973.8914                   20437970.2664
 -16022738.00848 -12469850.39546  21661348.8444                   21661348.6094
 -15630176.23047 -12172299.89545  22723562.0554                   22723559.6724
  -6856139.15648  -5325557.96946  21671739.2274                   21671734.8054
 11  8 20  2 14  0.0000000  0  8G10G26G30G12G05G25G29G02
   2447512.27047   1921492.66444  23615615.0474                   23615612.4614
 -13902760.99246 -10824027.02743  23849027.5084                   23849027.4144
 -13887045.68448 -10806873.18845  21725320.7344                   21725318.2074
 -11271314.78548  -8768603.30946  21515189.3364                   21515186.6484
 -18698406.83248 -14564867.41047  20451417.1884                   20451414.1254
 -15977545.20748 -12434635.21546  21669948.8204                   21669948.2544
 -15664981.78547 -12199421.05545  22716938.8204                   22716936.7304
  -6770967.30548  -5259190.28946  21687947.0164                   21687941.9804
 11  8 20  2 14 30.0000000  0  8G10G26G30G12G05G25G29G02
   2598304.41946   2038993.06144  23644309.7664                   23644307.4264
 -13950684.30047 -10861369.75843  23839907.9924                   23839908.0084
 -13824298.36248 -10757979.17145  21737260.9144                   21737258.4224
 -11163466.48447  -8684565.68746  21535712.3524                   21535709.5124
 -18627230.31548 -14509405.16547  20464961.4144                   20464958.1564
 -15931768.28848 -12398964.88846  21678659.9774                   21678659.3984
 -15699710.75847 -12226482.54445  22710330.0704                   22710327.7234
  -6685701.50748  -5192749.41846  21704172.4774                   21704167.5744
 11  8 20  2 15  0.0000000  0  8G10G26G30G12G05G25G29G02
   2749266.53147   2156625.88344  23673036.0234                   23673034.7624
 -13998553.38347 -10898670.25044  23830799.2664                   23830798.1994
 -13760970.09048 -10708632.48045  21749312.0004                   21749309.2664
 -11055179.58047  -8600186.28146  21556318.3364                   21556315.3524
 -18555529.65748 -14453534.50747  20478605.7344                   20478602.6454
 -15885411.81148 -12362842.95146  21687481.0474                   21687480.7464
 -15734365.36747 -12253486.08645  22703735.5164                   22703732.9304
  -6600345.98848  -5126238.60946  21720415.3834                   21720410.1604
 11  8 20  2 15 30.0000000  0  9G10G15G26G30G12G05G25G29G02
   2900400.16047   2274392.33644  23701796.7504                   23701794.8634
 -11082083.58656  -8625827.31653  24729970.6254                   24729970.1254
 -14046360.45746 -10935922.37144  23821701.7664                   23821701.7624
 -13697057.82848 -10658830.72746  21761474.2274                   21761471.9024
 -10946452.12148  -8515463.59846  21577008.9694                   21577006.1954
 -18483302.27048 -14397253.41047  20492350.5864                   20492346.7504
 -15838471.93048 -12326266.42246  21696413.6804                   21696413.2504
 -15768939.84847 -12280427.17245  22697155.1174                   22697153.2154
  -6514896.71948  -5059654.76246  21736675.8364                   21736670.8244
 11  8 20  2 16  0.0000000  0  9G10G15G26G30G12G05G25G29G02
   3051696.66447   2392285.69144  23730587.3364                   23730585.5474
 -11128297.91446  -8661838.34042  24721174.9614                   24721175.9924
 -14094108.37147 -10973128.42244  23812615.5944                   23812615.4654
 -13632569.15648 -10608579.82045  21773745.4534                   21773743.2894
 -10837292.82448  -8430404.40646  21597781.1174                   21597778.2624
 -18410555.86348 -14340567.86747  20506193.3204                   20506190.3164
 -15790955.22748 -12289240.39846  21705455.8674                   21705455.6844
 -15803438.35947 -12307309.06345  22690590.6884                   22690588.1094
  -6429360.35548  -4993003.03145  21752952.1484                   21752947.6374
 11  8 20  2 16 30.0000000  0  9G10G15G26G30G12G05G25G29G02
   3203156.27347   2510306.19544  23759408.3524                   23759407.5084
 -11174638.26246  -8697947.42242  24712357.8054                   24712357.9574
 -14141790.52347 -11010283.23444  23803542.5784                   23803541.4844
 -13567502.25848 -10557878.33645  21786127.3834                   21786125.3284
 -10727701.10948  -8345008.26246  21618635.3834                   21618632.9574
 -18337288.83648 -14283476.65247  20520135.8984                   20520132.3364
 -15742859.04748 -12251762.85246  21714608.2584                   21714607.7504
 -15837855.85947 -12334127.83645  22684041.5084                   22684039.0634
  -6343733.87148  -4926281.07446  21769246.9144                   21769241.8634
 11  8 20  2 17  0.0000000  0  9G10G15G26G30G12G05G25G29G02
   3354778.37947   2628453.25844  23788261.5314                   23788260.2344
 -11221100.28146  -8734151.37542  24703515.5864                   24703516.4144
 -14189401.36347 -11047382.49244  23794481.8134                   23794481.2814
 -13501856.21148 -10506725.57845  21798619.7344                   21798617.4774
 -10617677.23447  -8259275.37946  21639572.4534                   21639569.8134
 -18263500.42248 -14225979.16047  20534177.3834                   20534173.8794
 -15694181.70348 -12213832.43846  21723871.1644                   21723870.7894
 -15872188.71148 -12360880.64545  22677508.2344                   22677505.8834
  -6258015.25048  -4859487.33245  21785558.3674                   21785553.5274
 11  8 20  2 17 30.0000000  0  9G10G15G26G30G12G05G25G29G02
   3506549.59047   2746716.54343  23817142.8444                   23817141.4694
 -11267692.06646  -8770456.40243  24694649.2894                   24694649.7704
 -14236948.00447 -11084431.72344  23785434.1024                   23785432.7704
 -13435643.05148 -10455130.91045  21811219.4614                   21811217.2854
 -10507234.42248  -8173216.05146  21660589.4224                   21660586.3324
 -18189203.09448 -14168085.11747  20548315.5234                   20548312.3874
 -15644934.33248 -12175457.84846  21733242.6724                   21733242.4144
 -15906445.53147 -12387574.19545  22670989.3054                   22670986.9964
  -6172215.55948  -4792630.42645  21801885.6884                   21801880.5204
 11  8 20  2 18  0.0000000  0  9G10G15G26G30G12G05G25G29G02
   2083066.39846   1637508.80543  23546262.8204                   23546261.7704
 -12889818.49246 -10034450.83243  24385968.9694                   24385968.1054
 -15859834.54746 -12349018.55944  23476609.0634                   23476608.0124
 -14944267.89848 -11630682.73445  21524137.7974                   21524135.2464
 -11971777.38748  -9314418.35546  21381896.1724                   21381893.0164
 -19689801.89148 -15337382.85947  20262761.1334                   20262757.7734
 -17170521.68448 -13364227.19146  21442932.8364                   21442932.3594
 -17516031.54747 -13641796.99245  22364695.1804                   22364693.7154
  -7661737.70748  -5953297.01646  21518439.0704                   21518433.7664
 11  8 20  2 18 30.0000000  0  9G10G15G26G30G12G05G25G29G02
   2235153.27047   1756018.05943  23575203.8204                   23575202.3404
 -12936636.64546 -10070932.26643  24377059.1954                   24377058.2974
 -15907216.83747 -12385939.70344  23467592.2194                   23467591.2624
 -14876899.21148 -11578187.64146  21536957.8204                   21536955.5434
 -11860478.85248  -9227692.23046  21403075.2664                   21403072.3954
 -19614466.14148 -15278679.64847  20277096.8834                   20277093.7584
 -17120110.23448 -13324945.52046  21452525.7584                   21452525.4494
 -17550105.14147 -13668347.78545  22358210.8444                   22358208.5704
  -7575750.56648  -5886294.03946  21534801.8754                   21534796.9804
 11  8 20  2 19  0.0000000  0  9G10G15G26G30G12G05G25G29G02
   2387389.25846   1874643.45343  23604173.6254                   23604171.7304
 -12983568.90646 -10107502.66844  24368128.3364                   24368128.1374
 -15954516.57047 -12422796.53944  23458591.5864                   23458590.2854
 -14808959.77048 -11525247.81245  21549886.3594                   21549884.0554
 -11748760.90248  -9140639.28546  21424334.4774                   21424331.5434
 -19538618.44148 -15219577.52047  20291530.5004                   20291526.5824
 -17069122.38748 -13285214.71946  21462229.0864                   21462228.3094
 -17584089.12947 -13694828.73845  22351744.1024                   22351741.4574
  -7489674.58648  -5819221.82046  21551181.3914                   21551176.4964
 11  8 20  2 19 30.0000000  0  9G10G15G26G30G12G05G25G29G02
   2539776.64546   1993386.91443  23633172.2114                   23633170.2424
 -13030607.59847 -10144155.98444  24359177.7664                   24359176.6954
 -16001725.03147 -12459582.25444  23449608.4614                   23449606.6644
 -14740445.72348 -11471860.23445  21562923.9454                   21562921.6254
 -11636620.91848  -9053257.48046  21445673.8984                   21445671.2074
 -19462255.12548 -15160073.61346  20306061.7194                   20306058.3444
 -17017553.52048 -13245031.16846  21472041.6414                   21472041.2774
 -17617976.28547 -13721234.25045  22345295.6334                   22345293.2814
  -7403504.64548  -5752076.39146  21567578.7194                   21567574.1914
 11  8 20  2 20  0.0000000  0  9G10G15G26G30G12G05G25G29G02
   2692307.64547   2112242.24643  23662197.7344                   23662195.5944
 -13077755.17646 -10180894.14544  24350204.8754                   24350204.4184
 -16048843.60247 -12496297.93443  23440641.5394                   23440639.6804
 -14671363.57448 -11418029.96945  21576069.8054                   21576067.3444
 -11524066.79748  -8965552.97746  21467092.4614                   21467089.7464
 -19385383.03548 -15100173.25847  20320689.8984                   20320686.7504
 -16965409.27048 -13204399.25846  21481964.3054                   21481964.2734
 -17651769.79747 -13747566.79345  22338865.2274                   22338862.8834
  -7317245.91048  -5684861.76646  21583993.7114                   21583988.9454
 11  8 20  2 20 30.0000000  0  9G10G15G26G30G12G05G25G29G02
   2844977.84847   2231206.05543  23691249.6094                   23691247.2544
 -13125011.21946 -10217716.84044  24341212.6954                   24341211.6294
 -16095870.89547 -12532942.52043  23431692.6414                   23431690.5004
 -14601716.96548 -11363759.86345  21589323.4844                   21589320.8914
 -11411102.93448  -8877529.18446  21488589.0634                   21488585.6764
 -19308005.98048 -15039879.43046  20335414.1414                   20335411.0124
 -16912692.30548 -13163321.09046  21491996.3834                   21491995.6844
 -17685469.80947 -13773826.48445  22332451.8134                   22332449.8524
  -7230900.63348  -5617579.70345  21600424.4304                   21600419.4024
 11  8 20  2 21  0.0000000  0  9G10G15G26G30G12G05G25G29G02
   2997791.54346   2350281.63343  23720328.8444                   23720327.0904
 -13172366.44546 -10254616.81643  24332199.8914                   24332200.0354
 -16142796.65647 -12569507.98044  23422763.0704                   23422761.2234
 -14531500.68448 -11309045.85545  21602684.6644                   21602682.8404
 -11297725.37547  -8789183.03946  21510163.9224                   21510161.3094
 -19230119.18748 -14979188.40647  20350235.7274                   20350232.2464
 -16859396.64548 -13121791.97746  21502137.7974                   21502137.9024
 -17719067.73847 -13800006.62145  22326058.7894                   22326056.1954
  -7144462.50447  -5550225.30145  21616873.2114                   21616867.9184
 11  8 20  2 21 30.0000000  0  9G10G15G26G30G12G05G25G29G02
   3150739.87147   2469462.16443  23749434.8594                   23749432.9414
 -13219824.46546 -10291596.91043  24323169.7584                   24323168.6684
 -16189623.47747 -12605996.32444  23413852.3524                   23413850.6684
 -14460722.37548 -11253893.89845  21616153.7114                   21616151.2544
 -11183942.71148  -8700521.23046  21531815.7274                   21531813.1454
 -19151730.34848 -14918106.17247  20365152.3134                   20365148.9384
 -16805529.05148 -13079817.20746  21512388.7974                   21512388.1094
 -17752567.78547 -13826110.48445  22319683.4924                   22319681.5514
  -7057937.33247  -5482803.06645  21633337.9304                   21633333.2974
 11  8 20  2 22  0.0000000  0  9G10G15G26G30G12G05G25G29G02
   3303816.46947   2588742.61343  23778564.3364                   23778562.1764
 -13267386.31647 -10328657.96143  24314118.4614                   24314117.6914
 -16236351.40247 -12642407.60544  23404960.0394                   23404958.1994
 -14389387.31648 -11198308.11745  21629728.1254                   21629725.7624
 -11069761.28948  -8611548.70346  21553543.9454                   21553540.8164
 -19072844.69948 -14856636.82447  20380164.0474                   20380160.5944
 -16751093.89148 -13037400.16446  21522747.3834                   21522746.8554
 -17785971.67647 -13852139.43045  22313326.7974                   22313324.3954
  -6971328.96547  -5415316.02345  21649819.0084                   21649814.4534
 11  8 20  2 22 30.0000000  0  9G10G15G26G30G12G05G25G29G02
   3457025.02047   2708125.89543  23807718.5554                   23807716.2734
 -13315042.93447 -10365792.82843  24305050.9064                   24305049.3444
 -16282970.46546 -12678734.03543  23396088.0164                   23396086.5234
 -14317490.69548 -11142284.75845  21643409.4144                   21643407.2114
 -10955177.25847  -8522262.44946  21575348.6254                   21575345.9454
 -18993457.66048 -14794776.78147  20395270.8524                   20395267.2424
 -16696085.50448 -12994536.47346  21533215.1174                   21533214.5084
 -17819270.73447 -13878086.68745  22306989.8134                   22306987.5904
  -6884631.19547  -5347759.30545  21666317.5314                   21666312.2424
 11  8 20  2 23  0.0000000  0  9G10G15G26G30G12G05G25G29G02
   3610367.16847   2827613.30143  23836898.7504                   23836896.7464
 -13362787.16847 -10402996.01643  24295964.7034                   24295964.4884
 -16329472.89547 -12714969.57444  23387239.5164                   23387238.2734
 -14245029.72748 -11085821.62945  21657198.2664                   21657195.9614
 -10840188.93448  -8432661.16846  21597229.9144                   21597227.2464
 -18913566.83648 -14732524.17246  20410473.6334                   20410470.3834
 -16640500.34848 -12951223.34046  21543792.5394                   21543791.7894
 -17852458.74247 -13903947.43045  22300674.8984                   22300672.1334
  -6797839.73048  -5280129.57446  21682832.9844                   21682828.6094
 11  8 20  2 23 30.0000000  0  9G10G15G26G30G12G05G25G29G02
   3763838.90247   2947201.63743  23866103.4304                   23866101.5124
 -13410618.34046 -10440266.94143  24286862.9144                   24286861.1214
 -16375856.52047 -12751112.61344  23378412.8594                   23378411.2074
 -14172007.75848 -11028921.37145  21671094.1724                   21671091.6414
 -10724800.85948  -8342748.38746  21619187.5944                   21619185.0164
 -18833175.60248 -14669881.63747  20425771.6094                   20425768.0634
 -16584340.66448 -12907462.52346  21554479.5864                   21554478.9224
 -17885535.51647 -13929721.48045  22294380.3364                   22294378.0314
  -6710956.10548  -5212428.02746  21699366.8364                   21699361.9454
 11  8 20  2 24  0.0000000  0  9G10G15G26G30G12G05G25G29G02
   3917433.18446   3066885.49243  23895331.4694                   23895329.3014
 -13458538.18046 -10477606.99243  24277743.3134                   24277741.4804
 -16422122.64547 -12787164.09444  23369608.5004                   23369605.8244
 -14098431.03948 -10971588.84045  21685095.1254                   21685092.7154
 -10609019.85647  -8252529.44146  21641220.2584                   21641217.4064
 -18752290.42648 -14606854.21147  20441163.4384                   20441160.0704
 -16527612.07048 -12863258.41046  21565274.4614                   21565273.7344
 -17918503.75847 -13955410.98245  22288106.5084                   22288104.4614
  -6623985.30948  -5144658.55546  21715916.9614                   21715911.5164
 11  8 20  2 24 30.0000000  0  9G10G15G26G30G12G05G25G29G02
   4071148.98046   3186664.03143  23924582.0234                   23924580.3554
 -13506542.26246 -10515012.66043  24268608.2034                   24268606.6954
 -16468265.74247 -12823119.64544  23360827.4224                   23360825.9534
 -14024299.35248 -10913823.87545  21699201.6564                   21699198.9534
 -10492847.11747  -8162005.23446  21663326.7504                   21663323.9964
 -18670910.94148 -14543441.60546  20456649.2504                   20456646.0434
 -16470313.50048 -12818610.16046  21576178.0084                   21576178.0044
 -17951359.67247 -13981012.95345  22281854.2424                   22281851.3754
  -6536925.51648  -5076819.74246  21732483.5634                   21732478.4064
 11  8 20  2 25  0.0000000  0  9G10G15G26G30G12G05G25G29G02
   4224976.32046   3306529.44143  23953854.4304                   23953853.0274
 -13554635.73446 -10552487.97743  24259456.4304                   24259455.5664
 -16514289.66447 -12858982.36744  23352069.8054                   23352067.9774
 -13949622.09048 -10855633.78945  21713412.4694                   21713410.1644
 -10376292.99648  -8071183.85946  21685506.6954                   21685503.8714
 -18589046.94548 -14479651.46947  20472227.3594                   20472224.2234
 -16412453.31648 -12773524.28946  21587188.4224                   21587188.0204
 -17984108.61747 -14006531.57445  22275622.6024                   22275619.6374
  -6449784.00048  -5008917.25445  21749065.7504                   21749060.8984
 11  8 20  2 25 30.0000000  0  9G10G15G26G30G12G05G25G29G02
   4378921.84447   3426486.98443  23983149.9924                   23983147.7194
 -13602806.06246 -10590023.16443  24250290.1564                   24250289.1564
 -16560181.45347 -12894742.11744  23343336.7424                   23343335.2034
 -13874391.38348 -10797012.45745  21727728.3204                   21727725.9924
 -10259350.40248  -7980059.77046  21707760.2034                   21707757.0594
 -18506690.73448 -14415477.79347  20487899.4064                   20487896.0664
 -16354022.92648 -12727994.10946  21598307.2974                   21598306.6524
 -18016739.05147 -14031957.86745  22269413.6174                   22269410.5904
  -6362551.55148  -4940943.91045  21765665.8284                   21765660.6334
 11  8 20  2 26  0.0000000  0  9G10G15G26G30G12G05G25G29G02
   4532974.60546   3546528.09843  24012464.7114                   24012462.9224
 -13651059.05146 -10627622.76243  24241107.4614                   24241106.8874
 -16605946.02747 -12930402.77344  23334627.4384                   23334625.6024
 -13798617.61348 -10737967.94945  21742147.7274                   21742145.1454
 -10142030.65247  -7888641.78546  21730085.0084                   21730082.1374
 -18423852.57848 -14350928.56246  20503663.3364                   20503659.7584
 -16295031.84048 -12682027.01646  21609533.1804                   21609532.3324
 -18049257.78547 -14057297.10945  22263225.5164                   22263222.0784
  -6275236.63748  -4872906.30545  21782281.1484                   21782276.3244
 11  8 20  2 26 30.0000000  0  9G10G15G26G30G12G05G25G29G02
   4687143.66447   3666659.81343  24041802.4614                   24041801.0044
 -13699380.77347 -10665275.92644  24231912.6024                   24231911.9264
 -16651568.34047 -12965952.56244  23325945.6644                   23325944.1374
 -13722291.10248 -10678492.72745  21756672.1174                   21756669.8954
 -10024324.96947  -7796923.07846  21752484.0474                   21752480.7704
 -18340523.23848 -14285996.58247  20519520.1644                   20519516.4414
 -16235469.52048 -12635614.82446  21620867.3914                   21620866.7974
 -18081651.07447 -14082538.62145  22257060.6884                   22257058.2154
  -6187827.91047  -4804795.60545  21798914.6724                   21798909.5554
 11  8 20  2 27  0.0000000  0  9G10G15G26G30G12G05G25G29G02
   4841417.02046   3786872.82043  24071159.7344                   24071157.8984
 -13747777.88747 -10702987.83244  24222703.0634                   24222701.8054
 -16697054.05946 -13001395.89144  23317289.7814                   23317288.9924
 -13645422.99648 -10618595.48845  21771300.1174                   21771297.4574
  -9906245.53947  -7704913.13346  21774953.8444                   21774950.5084
 -18256713.71148 -14220690.43446  20535468.4534                   20535464.9064
 -16175346.21948 -12588765.50046  21632308.1484                   21632308.0824
 -18113926.13747 -14107687.98445  22250918.8984                   22250916.4224
  -6100334.68447  -4736619.05945  21815563.7664                   21815558.8324
 11  8 20  2 27 30.0000000  0  9G10G15G26G30G12G05G25G29G02
   4995795.40246   3907167.66443  24100537.1094                   24100535.1524
 -13796244.49647 -10740753.88344  24213479.7584                   24213478.9654
 -16742396.26647 -13036727.41444  23308661.4534                   23308660.4884
 -13568011.78548 -10558275.06245  21786030.8444                   21786028.0944
  -9787791.77048  -7612611.50446  21797494.7664                   21797492.0704
 -18172422.62948 -14155009.05146  20551508.1174                   20551505.0704
 -16114659.74248 -12541477.34046  21643856.6254                   21643856.5474
 -18146077.69947 -14132741.12545  22244800.4454                   22244798.1604
  -6012753.92247  -4668374.29745  21832230.3834                   21832224.7624
 11  8 20  2 28  0.0000000  0  9G10G15G26G30G12G05G25G29G02
   5150269.99246   4027537.49643  24129932.8134                   24129930.6054
 -13844784.47347 -10778577.11744  24204242.3984                   24204241.7894
 -16787597.76647 -13071949.27344  23300060.3834                   23300059.2074
 -13490065.85547 -10497537.96545  21800863.0704                   21800860.4024
  -9668972.75447  -7520025.26646  21820105.3134                   21820102.2154
 -18087658.62548 -14088959.16446  20567638.4774                   20567635.1454
 -16053417.46948 -12493756.09046  21655510.6804                   21655509.8134
 -18178110.24647 -14157701.51645  22238705.2584                   22238702.4384
  -5925091.91847  -4600066.24245  21848911.3754                   21848906.7504
 11  8 20  2 28 30.0000000  0  9G10G15G26G30G12G05G25G29G02
   5304839.30947   4147981.14543  24159346.4844                   24159343.4574
 -13893393.39547 -10816454.07444  24194992.5394                   24194991.4344
 -16832653.83647 -13107057.80144  23291485.9384                   23291485.2074
 -13411585.77347 -10436384.65245  21815797.1644                   21815794.6564
  -9549790.10947  -7427155.67646  21842784.7894                   21842782.2464
 -18002422.14848 -14022541.10946  20583858.4304                   20583855.1564
 -15991619.21148 -12445601.60946  21667270.5474                   21667270.2814
 -18210020.62147 -14182566.69545  22232632.7734                   22232630.3594
  -5837347.37547  -4531693.86345  21865608.4064                   21865603.4534
 11  8 20  2 29  0.0000000  0  9G10G15G26G30G12G05G25G29G02
   5459510.21147   4268503.93043  24188779.6254                   24188776.1334
 -13942059.46547 -10854375.57844  24185731.6644                   24185730.1524
 -16877551.41847 -13142042.84444  23282942.7114                   23282941.2584
 -13332564.08648 -10374809.31645  21830834.9224                   21830832.3914
  -9430237.34047  -7333997.68746  21865534.8754                   21865532.2464
 -17916705.64548 -13955749.01246  20600169.8594                   20600166.5204
 -15929256.62148 -12397007.39146  21679137.2974                   21679137.1604
 -18241797.02047 -14207327.48045  22226585.9774                   22226583.2274
  -5749510.77047  -4463249.75445  21882323.5704                   21882318.5514
 11  8 20  2 29 30.0000000  0  9G10G15G26G30G12G05G25G29G02
   5614275.38346   4389100.18843  24218230.5784                   24218227.2974
 -13990784.56647 -10892343.08644  24176459.6414                   24176458.4104
 -16922291.17247 -13176904.93044  23274429.2894                   23274427.0514
 -13253007.25048 -10312816.96945  21845974.0084                   21845971.3204
  -9310321.64147  -7240556.88346  21888354.4534                   21888351.5474
 -17830515.67248 -13888587.98446  20616571.4064                   20616568.0274
 -15866335.35248 -12347977.83646  21691111.0784                   21691110.8484
 -18273442.03547 -14231985.89145  22220563.9534                   22220561.2074
  -5661586.82048  -4394737.59445  21899054.7274                   21899049.9774
 11  8 20  2 30  0.0000000  0  9G10G15G26G30G12G05G25G29G02
   5769130.90646   4509766.82443  24247698.1094                   24247694.8364
 -14039567.71547 -10930355.78544  24167176.1564                   24167175.0864
 -16966871.81247 -13211643.03144  23265946.0784                   23265943.7624
 -13172919.12548 -10250410.63345  21861213.9144                   21861211.5704
  -9190047.84847  -7146837.05546  21911241.1954                   21911238.7344
 -17743856.60248 -13821061.41846  20633061.5704                   20633058.5634
 -15802858.49648 -12298515.35946  21703190.4064                   21703189.9104
 -18304955.50847 -14256541.77745  22214567.1334                   22214564.3094
  -5573577.45748  -4326158.87145  21915802.6254                   21915797.0634
 11  8 20  2 30 30.0000000  0  9G10G15G26G30G12G05G25G29G02
   5924075.10246   4630502.54743  24277181.9064                   24277180.6884
 -14088405.43747 -10968411.06244  24157882.9454                   24157881.1914
 -17011288.83647 -13246253.61344  23257492.2344                   23257491.3594
 -13092301.03548 -10187591.35245  21876555.1254                   21876552.9734
  -9069417.89847  -7052839.69946  21934196.3444                   21934193.8984
 -17656729.26648 -13753169.97746  20649641.3444                   20649638.1024
 -15738826.48848 -12248620.29746  21715375.1174                   21715374.6134
 -18336334.82447 -14280993.13345  22208595.7424                   22208593.2774
  -5485482.01647  -4257513.08245  21932566.2114                   21932561.6884
 11  8 20  2 31  0.0000000  0  9G10G15G26G30G12G05G25G29G02
   6079110.07447   4751309.01642  24306685.3054                   24306682.4804
 -14137290.34846 -11006503.09044  24148578.9844                   24148578.9224
 -17055533.65247 -13280730.00444  23249073.1644                   23249071.7344
 -13011150.08648 -10124356.84845  21891997.7504                   21891995.4264
  -8948429.86747  -6958563.33646  21957219.8914                   21957217.3984
 -17569131.17248 -13684911.71146  20666310.9614                   20666307.3554
 -15674235.59448 -12198289.73046  21727666.8834                   21727666.0664
 -18367573.05947 -14305334.55945  22202651.2974                   22202648.8874
  -5397295.46547  -4188796.27745  21949347.7424                   21949343.2814
 11  8 20  2 31 30.0000000  0  9G10G15G26G30G12G05G25G29G02
   6234228.37246   4872180.45942  24336202.2424                   24336200.6294
 -14186224.38746 -11044633.35544  24139267.9224                   24139267.6024
 -17099607.33247 -13315073.09044  23240686.0394                   23240684.2464
 -12929472.90648 -10060712.29345  21907540.0704                   21907537.7774
  -8827091.26247  -6864013.78546  21980309.8134                   21980306.8094
 -17481068.72348 -13616291.60946  20683068.9454                   20683065.3714
 -15609091.63748 -12147528.21146  21740063.0164                   21740062.6804
 -18398672.52747 -14329567.84445  22196733.3754                   22196730.4144
  -5309022.52048  -4120012.14545  21966145.0554                   21966140.4184
 11  8 20  2 32  0.0000000  0  9G10G15G26G30G12G05G25G29G02
   6389431.35546   4993117.81642  24365736.8674                   24365734.3834
 -14235201.10946 -11082796.91044  24129947.6334                   24129946.7894
 -17143503.02447 -13349277.43744  23232333.4224                   23232331.6334
 -12847268.30148  -9996656.77045  21923183.3444                   21923181.2274
  -8705401.68047  -6769190.74646  22003466.3364                   22003463.8164
 -17392540.99248 -13547308.94946  20699914.8364                   20699911.4694
 -15543392.62148 -12096334.18046  21752565.1564                   21752564.5784
 -18429627.90247 -14353688.85945  22190842.4844                   22190840.2154
  -5220659.91848  -4051158.17245  21982960.6174                   21982955.3714
 11  8 20  2 32 30.0000000  0  9G10G15G26G30G12G05G25G29G02
   6544707.06346   5114111.92243  24395285.3054                   24395282.5594
 -14284227.35247 -11120999.08643  24120619.1024                   24120617.3364
 -17187226.17647 -13383347.34844  23224012.6884                   23224011.0864
 -12764547.61748  -9932199.11345  21938924.8524                   21938922.6214
  -8583372.86747  -6674103.37146  22026687.8674                   22026684.9574
 -17303559.22748 -13477972.50046  20716847.5004                   20716844.2544
 -15477149.10248 -12044715.86346  21765170.8204                   21765170.2624
 -18460446.46147 -14377703.25445  22184978.0234                   22184975.8484
  -5132216.67648  -3982241.37145  21999790.5314                   21999785.8594
 11  8 20  2 33  0.0000000  0  9G10G15G26G30G12G05G25G29G02
   6700060.27046   5235166.36743  24424847.0084                   24424844.8244
 -14333292.93447 -11159231.90643  24111282.2504                   24111279.6724
 -17230766.23447 -13417274.57444  23215727.7194                   23215725.3014
 -12681305.73048  -9867335.31645  21954765.2584                   21954762.8554
  -8461000.93047  -6578748.62946  22049974.6884                   22049972.1174
 -17214118.05148 -13408278.07046  20733867.5784                   20733864.2034
 -15410355.10948 -11992668.59446  21777881.3134                   21777881.0744
 -18491118.94547 -14401603.82045  22179141.2974                   22179138.6414
  -5043685.84048  -3913256.29745  22016637.4924                   22016632.9264
 11  8 20  2 33 30.0000000  0  9G10G15G26G30G12G05G25G29G02
   6855483.15645   5356275.13743  24454422.4454                   24454421.1884
 -14382400.49247 -11197497.46544  24101936.9774                   24101935.6684
 -17274124.52347 -13451060.17644  23207476.8754                   23207474.9024
 -12597550.00048  -9802071.11345  21970703.3524                   21970700.7814
  -8338293.97747  -6483132.82846  22073324.9774                   22073322.4304
 -17124224.88348 -13338231.43046  20750973.7114                   20750970.1134
 -15343017.17248 -11940197.46946  21790695.3364                   21790694.7074
 -18521648.24647 -14425392.80945  22173331.6254                   22173328.6294
  -4955072.38748  -3844206.84445  22033500.4454                   22033495.2814
 11  8 20  2 34  0.0000000  0  9G10G15G26G30G12G05G25G29G02
   7010978.53146   5477440.29343  24484012.8284                   24484011.7074
 -14431542.12947 -11235789.54744  24092585.0784                   24092583.8054
 -17317292.32847 -13484697.34044  23199262.4384                   23199260.3634
 -12513277.44948  -9736404.19545  21986739.7814                   21986737.7114
  -8215249.33247  -6387253.89146  22096739.6724                   22096736.8284
 -17033877.12948 -13267830.56246  20768166.2664                   20768162.6564
 -15275131.60248 -11887299.62146  21803613.4534                   21803612.9734
 -18552027.35547 -14449064.78545  22167550.6484                   22167547.7774
  -4866371.18748  -3775089.01645  22050379.8364                   22050374.0234
 11  8 20  2 34 30.0000000  0  9G10G15G26G30G12G05G25G29G02
   7166535.12546   5598653.23843  24513614.2504                   24513613.2544
 -14480723.72347 -11274112.76244  24083226.2664                   24083224.8014
 -17360274.71147 -13518190.03544  23191083.1094                   23191080.3484
 -12428498.98048  -9670343.06245  22002872.6884                   22002870.6564
  -8091879.19148  -6291121.33646  22120216.1954                   22120213.6134
 -16943085.28548 -13197083.66046  20785443.2114                   20785439.9924
 -15206708.44148 -11833982.86746  21816633.7894                   21816633.6334
 -18582262.79747 -14472624.80145  22161796.9384                   22161794.0274
  -4777591.01247  -3705909.63345  22067273.3834                   22067268.5634
 11  8 20  2 35  0.0000000  0  9G10G15G26G30G12G05G25G29G02
   5746741.30546   4492320.37543  24243437.3054                   24243435.9654
 -16105358.72346 -12540062.00044  23774068.2034                   23774066.5634
 -18978483.97347 -14779132.24644  22883148.0864                   22883145.1954
 -13918628.34448 -10831482.82845  21719310.7504                   21719307.9184
  -9543596.50848  -7422329.64146  21843963.6414                   21843961.0744
 -18427262.85248 -14353585.64546  20503013.3284                   20503010.3834
 -16713161.20748 -13007842.16846  21529965.4384                   21529965.2464
 -20187767.93047 -15723667.70745  21856279.4844                   21856276.6914
  -6264143.28948  -4864262.03545  21784391.6564                   21784387.4384
 11  8 20  2 35 30.0000000  0  9G10G15G26G30G12G05G25G29G02
   5902429.81247   4613636.14843  24273063.6804                   24273061.8794
 -16154595.18847 -12578427.96944  23764699.2344                   23764696.4774
 -19021067.99247 -14812314.52044  22875044.1884                   22875041.8054
 -13832827.67247 -10764625.15645  21735637.6644                   21735635.4774
  -9419566.72747  -7325683.06346  21867565.5314                   21867563.0084
 -18335572.39848 -14282138.52746  20520461.7894                   20520458.5084
 -16643650.12548 -12953677.68046  21543193.1254                   21543192.2704
 -20217692.73847 -15746985.69145  21850584.6804                   21850581.8484
  -6175188.25847  -4794946.39845  21801319.6484                   21801314.7544
 11  8 20  2 36  0.0000000  0  9G10G15G26G30G12G05G25G29G02
   6058177.27347   4734997.85543  24302702.0394                   24302699.5354
 -16203858.30147 -12616814.69144  23755324.6644                   23755322.2624
 -19063450.74247 -14845339.96944  22866978.8284                   22866977.0164
 -13746522.85948 -10697374.64545  21752060.9224                   21752058.9414
  -9295215.29348  -7228785.85546  21891228.8524                   21891225.9654
 -18243439.58648 -14210346.71546  20537994.3134                   20537991.1374
 -16573600.84048 -12899093.81346  21556522.8834                   21556522.6914
 -20247462.64047 -15770182.95845  21844919.7194                   21844917.0514
  -6086149.16848  -4725565.28145  21818263.2194                   21818258.2034
 11  8 20  2 36 30.0000000  0  9G10G15G26G30G12G05G25G29G02
   6213976.13347   4856399.62943  24332349.2734                   24332346.8754
 -16253150.61347 -12655224.17644  23745944.0704                   23745942.0784
 -19105633.93447 -14878209.92644  22858951.7194                   22858949.6174
 -13659721.11347 -10629736.92245  21768579.0474                   21768576.6644
  -9170550.01648  -7131644.09045  21914952.1564                   21914948.8594
 -18150871.63348 -14138215.82846  20555609.4694                   20555605.9844
 -16503019.91048 -12844095.66846  21569954.0554                   21569953.5984
 -20277080.47747 -15793261.73846  21839283.6094                   21839280.9654
  -5997030.92647  -4656122.46945  21835222.4144                   21835217.1604
 11  8 20  2 37  0.0000000  0  9G10G15G26G30G12G05G25G29G02
   6369836.59047   4977849.35943  24362008.8364                   24362005.9694
 -16302456.60947 -12693644.26644  23736560.9844                   23736560.0004
 -19147600.96947 -14910911.43844  22850965.3284                   22850962.8984
 -13572412.32047 -10561704.10245  21785193.6414                   21785191.2344
  -9045561.27748  -7034250.28145  21938736.6564                   21938733.4454
 -18057858.10948 -14065737.73846  20573309.3674                   20573305.2344
 -16431896.26648 -12788674.63746  21583488.3674                   21583488.1374
 -20306531.74647 -15816210.73846  21833679.4614                   21833677.0394
  -5907821.00847  -4586608.23845  21852198.0084                   21852192.6604
 11  8 20  2 37 30.0000000  0  9G10G15G26G30G12G05G25G29G02
   6525752.98446   5099342.68742  24391678.0634                   24391675.9494
 -16351776.56647 -12732075.28544  23727175.9924                   23727173.6844
 -19189351.87947 -14943444.55544  22843020.3444                   22843018.6994
 -13484601.85948 -10493280.35545  21801903.0474                   21801901.0394
  -8920255.17247  -6936609.16845  21962581.7664                   21962578.4534
 -17964404.55148 -13992916.77346  20591092.9144                   20591089.0164
 -16360234.59848 -12732834.37546  21597124.9304                   21597125.1954
 -20335817.46147 -15839030.72746  21828106.3524                   21828103.6294
  -5818522.70748  -4517025.13745  21869190.8754                   21869185.7854
 11  8 20  2 38  0.0000000  0 10G10G15G26G30G12G05G25G29G02G21
   6681720.38346   5220875.66842  24421357.4614                   24421355.2814
 -16401110.32447 -12770517.04344  23717789.0554                   23717786.0164
 -19230885.33247 -14975808.21145  22835117.3754                   22835114.7624
 -13396294.78147 -10424469.64545  21818707.4384                   21818705.0514
  -8794637.37148  -6838725.16445  21986485.7034                   21986482.7194
 -17870515.67648 -13919756.59046  20608959.2424                   20608955.7704
 -16288039.16048 -12676578.18446  21610863.1094                   21610863.1094
 -20364938.12147 -15861722.10546  21822564.7664                   21822562.2344
  -5729138.53947  -4447375.10245  21886199.9694                   21886194.6764
 -14192879.25056 -11057429.83653  25082496.5634                   25082495.1094
 11  8 20  2 38 30.0000000  0 10G10G15G26G30G12G05G25G29G02G21
   6837737.71146   5342447.57442  24451047.4064                   24451045.5044
 -16450453.71146 -12808966.31644  23708398.3984                   23708397.0944
 -19272196.30547 -15007998.51244  22827255.4774                   22827253.6994
 -13307491.93048 -10355272.61345  21835605.9534                   21835603.5704
  -8668709.56647  -6740599.60945  22010449.0084                   22010446.3634
 -17776192.35248 -13846257.88346  20626908.3914                   20626904.7774
 -16215310.03148 -12619906.13746  21624703.4844                   21624703.1954
 -20393889.98847 -15884281.96946  21817055.4924                   21817052.7854
  -5639666.91447  -4377656.93045  21903226.1884                   21903220.8874
 -14202288.49646 -11064761.65643  25080705.7034                   25080705.4224
 11  8 20  2 39  0.0000000  0 10G10G15G26G30G12G05G25G29G02G21
   6993803.137 5                  24480744.398
 -16499803.44146 -12847420.51644  23699007.3284                   23699005.8874
 -19313280.83247 -15040012.38744  22819437.2734                   22819435.2114
 -13218195.22748 -10285690.75845  21852598.4534                   21852596.1134
  -8542474.09448  -6642234.29745  22034470.7734                   22034467.8754
 -17681436.47748 -13772422.12146  20644939.5084                   20644935.8404
 -16142048.39148 -12562819.13346  21638644.7274                   21638644.1604
 -20422670.68047 -15906708.44946  21811578.6334                   21811575.9654
  -5550107.00047  -4307869.95745  21920268.3594                   21920263.3794
 -14211685.62146 -11072084.01242  25078917.1334                   25078916.4454
 11  8 20  2 39 30.0000000  0 10G10G15G26G30G12G05G25G29G02G21
   7149909.293 5                  24510449.844
 -16549161.68846 -12885881.34044  23689614.2974                   23689612.5744
 -19354140.00047 -15071850.62544  22811662.2584                   22811660.1994
 -13128411.98848 -10215729.80545  21869683.7424                   21869681.4694
  -8415938.95347  -6543635.49645  22058549.6484                   22058546.8204
 -17586255.43048 -13698255.05546  20663052.2034                   20663048.3674
 -16068260.78548 -12505322.29346  21652686.1644                   21652685.7934
 -20451282.84447 -15929003.59446  21806133.4144                   21806130.9924
  -5460464.22748  -4238018.41845  21937327.2194                   21937321.9734
 -14221075.96946 -11079401.09443  25077130.1884                   25077129.3554
 11  8 20  2 40  0.0000000  0  9G15G26G30G12G05G25G29G02G21
 -16598522.75046 -12924344.35544  23680221.6254                   23680220.2464
 -19394767.44547 -15103508.30144  22803931.4304                   22803928.9574
 -13038141.55548 -10145389.20345  21886861.6484                   21886859.0554
  -8289104.21547  -6444803.23845  22082685.3364                   22082682.5784
 -17490647.83648 -13623755.62546  20681245.9144                   20681242.1764
 -15993945.80548 -12447414.51646  21666827.3754                   21666827.3484
 -20479721.16048 -15951163.29346  21800721.9694                   21800719.4924
  -5370735.17648  -4168099.65245  21954402.0394                   21954396.6914
 -14230457.19546 -11086711.09442  25075344.7424                   25075343.7664
 11  8 20  2 40 30.0000000  0  9G15G26G30G12G05G25G29G02G21
 -16647884.42647 -12962807.87144  23670828.4064                   23670826.6684
 -19435160.35247 -15134983.21944  22796244.2424                   22796242.6454
 -12947387.42247 -10074671.68445  21904132.1024                   21904129.1804
  -8161973.66847  -6345740.48845  22106877.8134                   22106874.8674
 -17394617.18848 -13548926.54746  20699519.6174                   20699515.9024
 -15919106.13348 -12389097.89546  21681069.3524                   21681068.5744
 -20507984.57447 -15973186.69146  21795343.6564                   21795341.0044
  -5280920.71947  -4098114.33645  21971493.1564                   21971487.6954
 -14239830.78546 -11094015.10542  25073560.7344                   25073559.6804
 11  8 20  2 41  0.0000000  0  9G15G26G30G12G05G25G29G02G21
 -16697237.73047 -13001264.89844  23661436.3444                   23661434.8204
 -19475308.73447 -15166267.60544  22788604.2584                   22788602.5634
 -12856145.66047 -10003574.20745  21921494.3444                   21921492.1884
  -8034544.00447  -6246444.64545  22131126.4064                   22131123.8874
 -17298159.76648 -13473764.91046  20717875.1564                   20717871.3524
 -15843737.14548 -12330368.80546  21695411.6254                   21695410.7544
 -20536064.48848 -15995067.10546  21790000.1644                   21789997.7814
  -5191014.59847  -4028057.59445  21988601.7504                   21988595.9064
 -14249190.86746 -11101308.56643  25071779.4774                   25071779.1994
 11  8 20  2 41 30.0000000  0  9G15G26G30G12G05G25G29G02G21
 -16746586.90647 -13039718.70344  23652045.2664                   23652044.2194
 -19515215.88347 -15197364.02344  22781010.2114                   22781008.5394
 -12764425.89148  -9932104.27045  21938947.9384                   21938946.0824
  -7906825.73847  -6146923.92245  22155430.6024                   22155427.7544
 -17201284.71548 -13398277.85246  20736309.6094                   20736305.8404
 -15767847.69948 -12271234.16846  21709852.6024                   21709852.4844
 -20563965.97748 -16016808.48446  21784691.2274                   21784688.0744
  -5101023.79348  -3957934.89145  22005726.1024                   22005720.1134
 -14258545.51646 -11108597.78942  25069999.6334                   25069998.2504
 11  8 20  2 42  0.0000000  0  9G15G26G30G12G05G25G29G02G21
 -16795919.96947 -13078159.94944  23642658.0004                   23642656.1214
 -19554869.41447 -15228262.82444  22773464.6414                   22773462.3754
 -12672221.46947  -9860256.66045  21956494.0234                   21956491.8484
  -7778812.64547  -6047173.46545  22179790.8524                   22179787.9344
 -17103985.45348 -13322460.23846  20754824.8984                   20754821.6484
 -15691430.46148 -12211688.27346  21724394.4694                   21724394.1334
 -20591677.77748 -16038402.06346  21779417.0704                   21779414.5904
  -5010939.27747  -3887739.14845  22022868.3984                   22022863.8834
 -14267886.41046 -11115876.31342  25068222.8364                   25068220.9414
 11  8 20  2 42 30.0000000  0  9G15G26G30G12G05G25G29G02G21
 -16845231.81647 -13116584.71144  23633274.1724                   23633272.6644
 -19594263.23047 -15258959.22744  22765967.9064                   22765966.1954
 -12579532.64148  -9788031.60245  21974132.0394                   21974129.7734
  -7650505.50447  -5947193.87945  22204207.2504                   22204204.1764
 -17006261.90248 -13246312.00846  20773421.0004                   20773417.6644
 -15614484.93048 -12151730.70746  21739036.6414                   21739036.2774
 -20619195.23048 -16059844.20346  21774181.1414                   21774178.3524
  -4920758.39547  -3817468.31345  22040029.3834                   22040024.2624
 -14277211.63746 -11123142.65642  25066447.0474                   25066446.0204
 11  8 20  2 43  0.0000000  0  9G15G26G30G12G05G25G29G02G21
 -16894527.19546 -13154996.61344  23623892.8834                   23623891.2734
 -19633401.40247 -15289456.44144  22758520.1954                   22758518.3244
 -12486369.45347  -9715436.91845  21991860.2664                   21991857.6954
  -7521914.63348  -5846993.18445  22228677.0634                   22228674.1334
 -16908124.05148 -13169840.94146  20792096.5084                   20792092.6414
 -15537020.35948 -12091368.69946  21753777.8674                   21753777.4384
 -20646523.85248 -16081139.19546  21768980.8834                   21768978.0394
  -4830488.63747  -3747128.21945  22057206.7344                   22057202.2584
 -14286529.38746 -11130403.11742  25064673.6024                   25064672.6684
 11  8 20  2 43 30.0000000  0  9G15G26G30G12G05G25G29G02G21
 -16943803.86746 -13193393.98044  23614516.3444                   23614513.6994
 -19672280.85947 -15319752.06345  22751121.7344                   22751119.5664
 -12392735.23047  -9642475.18845  22009678.2814                   22009675.5704
  -7393044.05147  -5746574.55545  22253200.1254                   22253197.4694
 -16809574.97748 -13093049.44546  20810849.3204                   20810846.2234
 -15459039.45748 -12030604.35246  21768617.0314                   21768616.7154
 -20673662.31648 -16102286.00846  21763816.3364                   21763813.0864
  -4740130.51647  -3676719.27345  22074401.8444                   22074397.0904
 -14295840.94546 -11137658.80542  25062902.3914                   25062901.7074
 11  8 20  2 44  0.0000000  0  9G15G26G30G12G05G25G29G02G21
 -16993052.98847 -13231769.85544  23605144.6884                   23605142.2424
 -19710892.19947 -15349838.79345  22743774.6484                   22743771.9884
 -12298626.62147  -9569143.80545  22027586.8364                   22027584.3404
  -7263891.02747  -5645935.83645  22277777.5314                   22277774.5664
 -16710611.09048 -13015934.71946  20829681.6804                   20829678.2704
 -15380538.06348 -11969434.43046  21783555.0864                   21783555.4104
 -20700602.09048 -16123278.00446  21758689.7734                   21758686.7194
  -4649678.16447  -3606236.91445  22091614.4064                   22091609.2114
 -14305141.44146 -11144905.80943  25061132.6484                   25061131.1054
 11  8 20  2 44 30.0000000  0  9G15G26G30G12G05G25G29G02G21
 -17042273.94546 -13270123.74644  23595777.8594                   23595775.6914
 -19749233.62547 -15379715.18845  22736478.0474                   22736476.0044
 -12204048.02048  -9495446.19545  22045583.9924                   22045581.9414
  -7134460.50447  -5545080.90245  22302406.8444                   22302404.2544
 -16611236.48448 -12938499.95346  20848592.0394                   20848588.6724
 -15301519.91048 -11907861.84446  21798591.9144                   21798591.2304
 -20727343.44548 -16144115.37546  21753601.2734                   21753598.4654
  -4559133.35548  -3535682.51245  22108844.4774                   22108839.0204
 -14314432.82046 -11152145.74643  25059364.2894                   25059363.4064
 11  8 20  2 45  0.0000000  0  9G15G26G30G12G05G25G29G02G21
 -17091474.59047 -13308461.83644  23586415.1414                   23586412.6564
 -19787312.74647 -15409387.17644  22729232.1254                   22729229.2304
 -12109013.25047  -9421393.12145  22063668.7034                   22063666.6024
  -7004766.52047  -5444020.65645  22327086.6564                   22327084.0944
 -16511464.87548 -12860755.83246  20867577.8754                   20867574.1954
 -15221998.09048 -11845896.78146  21813724.5234                   21813723.7464
 -20753895.18848 -16164805.00846  21748548.3364                   21748545.2894
  -4468507.37147  -3465064.84045  22126090.0394                   22126084.4654
 -14323727.07046 -11159387.83643  25057595.0084                   25057594.1604
 11  8 20  2 45 30.0000000  0  9G15G26G30G12G05G25G29G02G21
 -17140642.43447 -13346774.38744  23577059.1484                   23577057.0084
 -19825115.94147 -15438844.15645  22722038.5004                   22722036.2894
 -12013514.98847  -9346978.89845  22081841.6334                   22081839.1094
  -6874802.29347  -5342749.84045  22351818.3834                   22351815.3014
 -16411288.67648 -12782696.44946  20886640.8204                   20886636.8914
 -15141964.60948 -11783533.02346  21828954.1804                   21828954.1414
 -20780245.08648 -16185337.35546  21743534.3594                   21743531.1884
  -4377789.94947  -3394375.93845  22143352.3204                   22143347.7344
 -14333015.10546 -11166625.12943  25055828.4534                   25055826.6174
 11  8 20  2 46  0.0000000  0  9G15G26G30G12G05G25G29G02G21
 -17189781.19147 -13385064.22344  23567708.3834                   23567706.6484
 -19862646.45347 -15468088.68445  22714896.6254                   22714894.1914
 -11917562.64147  -9272210.82445  22100100.4694                   22100098.5634
  -6744577.73847  -5241276.17645  22376598.9454                   22376596.6094
 -16310717.10548 -12704328.96946  20905778.6564                   20905775.3134
 -15061428.16048 -11720777.33646  21844279.8444                   21844279.1954
 -20806397.57448 -16205715.88346  21738557.5314                   21738554.5824
  -4286987.43447  -3323620.73045  22160631.3914                   22160626.9614
 -14342304.20746 -11173863.27343  25054060.1094                   25054058.8594
 11  8 20  2 46 30.0000000  0  9G15G26G30G12G05G25G29G02G21
 -17238878.59847 -13423321.83644  23558364.6024                   23558362.4184
 -19899891.27047 -15497110.57045  22707808.8134                   22707806.3594
 -11821149.52747  -9197083.71545  22118447.4064                   22118445.2424
  -6614086.64147  -5139594.80145  22401430.6254                   22401427.9224
 -16209743.57848 -12625648.28946  20924993.6094                   20924990.3204
 -14980381.34048 -11657623.97746  21859702.2664                   21859701.9964
 -20832341.36348 -16225931.80146  21733620.6094                   21733617.1914
  -4196090.65247  -3252792.05545  22177928.9534                   22177924.5204
 -14351585.73346 -11181095.51542  25052294.5314                   25052292.1094
 11  8 20  2 47  0.0000000  0  9G15G26G30G12G05G25G29G02G21
 -17287934.24247 -13461546.93444  23549030.5004                   23549026.8054
 -19936849.16047 -15525908.88745  22700776.3134                   22700773.4534
 -11724280.69947  -9121601.50845  22136880.8054                   22136878.3094
  -6483334.43447  -5037709.96945  22426311.7504                   22426309.3794
 -16108372.05948 -12546657.48046  20944283.7424                   20944280.5234
 -14898828.52348 -11594076.32046  21875221.3754                   21875220.8914
 -20858076.51248 -16245985.12146  21728723.1024                   21728720.0164
  -4105101.89148  -3181891.73845  22195243.7974                   22195238.7934
 -14360862.63346 -11188324.12542  25050528.2114                   25050526.8164
 11  8 20  2 47 30.0000000  0  9G15G26G30G12G05G25G29G02G21
 -17336950.05147 -13499741.00044  23539702.6174                   23539700.2074
 -19973521.19547 -15554484.44945  22693797.4224                   22693794.9344
 -11626963.66447  -9045770.03945  22155399.5944                   22155397.1644
  -6352328.96147  -4935627.79345  22451241.7114                   22451238.4614
 -16006610.14848 -12467362.46546  20963648.3834                   20963644.9144
 -14816776.51648 -11530139.68446  21890835.6024                   21890834.7034
 -20883605.47748 -16265877.77746  21723865.3284                   21723861.9804
  -4014025.60248  -3110923.20745  22212575.1564                   22212569.8634
 -14370140.35246 -11195553.39143  25048763.1024                   25048760.9224
 11  8 20  2 48  0.0000000  0  9G15G26G30G12G05G25G29G02G21
 -17385924.02047 -13537902.44144  23530382.8204                   23530381.0554
 -20009905.08247 -15582835.46945  22686874.5234                   22686871.0514
 -11529202.03147  -8969592.13345  22174003.3444                   22174000.2854
  -6221074.25847  -4833351.42645  22476218.7504                   22476215.9024
 -15904461.14548 -12387765.84446  20983086.6414                   20983083.3834
 -14734228.32048 -11465816.41446  21906543.8674                   21906543.3524
 -20908926.99648 -16285608.80146  21719046.6884                   21719043.5204
  -3922862.57048  -3039887.09445  22229922.6644                   22229917.8714
 -14379420.44146 -11202784.57843  25046996.8984                   25046995.5594
 11  8 20  2 48 30.0000000  0  9G15G26G30G12G05G25G29G02G21
 -17434847.80547 -13576024.76245  23521073.4844                   23521071.3674
 -20045991.33647 -15610954.57045  22680006.3204                   22680004.7114
 -11430993.06347  -8893065.65645  22192691.7424                   22192688.5784
  -6089568.10547  -4730879.10545  22501243.4304                   22501240.4414
 -15801922.36348 -12307865.48846  21002599.3594                   21002595.9184
 -14651180.43048 -11401103.77046  21922347.3594                   21922346.5274
 -20934033.42648 -16305172.20746  21714268.6644                   21714266.1134
  -3831607.60947  -2968779.35245  22247287.7344                   22247283.3634
 -14388698.12146 -11210013.82843  25045231.8284                   25045230.5594
 11  8 20  2 49  0.0000000  0  9G15G26G30G12G05G25G29G02G21
 -17483717.26247 -13614104.74645  23511773.8444                   23511771.2544
 -20081775.58247 -15638838.33645  22673197.0164                   22673195.5164
 -11332338.64147  -8816192.06645  22211464.7114                   22211462.7704
  -5957812.60247  -4628212.49645  22526315.4144                   22526313.0164
 -15698995.39148 -12227662.63346  21022185.4924                   21022182.1174
 -14567634.05548 -11336002.68846  21938245.6564                   21938245.1334
 -20958921.76648 -16324565.66846  21709532.7274                   21709530.0944
  -3740259.32847  -2897598.87545  22264670.9454                   22264666.3014
 -14397973.14546 -11217241.04743  25043466.1094                   25043464.6484
 11  8 20  2 49 30.0000000  0  9G15G26G30G12G05G25G29G02G21
 -17532531.94547 -13652142.08244  23502483.8134                   23502481.9734
 -20117256.57047 -15666485.79345  22666444.8284                   22666443.4454
 -11233243.77047  -8738975.28945  22230322.0314                   22230319.9064
  -5825813.20747  -4525355.84045  22551435.0164                   22551431.8204
 -15595684.47348 -12147160.60546  21041845.0314                   21041841.4964
 -14483593.60548 -11270516.61746  21954238.3134                   21954237.4614
 -20983591.82048 -16343789.04346  21704838.0704                   21704835.6174
  -3648820.03548  -2826347.48445  22282071.2344                   22282066.6294
 -14407248.44146 -11224468.46943  25041700.2424                   25041700.2234
 11  8 20  2 50  0.0000000  0  9G15G26G30G12G05G25G29G02G21
 -17581288.04747 -13690133.76245  23493205.9064                   23493204.3484
 -20152429.66847 -15693893.33645  22659751.7974                   22659749.8594
 -11133710.00447  -8661416.49645  22249262.8364                   22249260.5634
  -5693571.81647  -4422310.60545  22576599.0704                   22576595.6134
 -15491990.96548 -12066360.46546  21061577.2974                   21061573.4574
 -14399059.98448 -11204646.26646  21970324.1804                   21970323.6724
 -21008040.38348 -16362839.84046  21700185.6484                   21700182.7774
  -3557288.19148  -2755023.97745  22299489.0554                   22299484.5864
 -14416523.47746 -11231695.69543  25039935.5944                   25039934.7664
 11  8 20  2 50 30.0000000  0  9G15G26G30G12G05G25G29G02G21
 -17629984.32047 -13728078.82045  23483939.7894                   23483937.2074
 -20187292.93847 -15721059.46145  22653117.2114                   22653114.9884
 -11033742.05547  -8583519.39145  22268286.0084                   22268283.3404
  -5561093.55947  -4319080.80945  22601808.8674                   22601805.7774
 -15387919.50848 -11985265.81646  21081381.3834                   21081378.0124
 -14314037.19548 -11138394.73846  21986503.6174                   21986502.8674
 -21032267.26248 -16381717.88746  21695575.3984                   21695572.8404
  -3465665.53947  -2683629.70345  22316924.6724                   22316919.9024
 -14425800.64846 -11238924.58643  25038170.6804                   25038169.1644
 11  8 20  2 51  0.0000000  0  9G15G26G30G12G05G25G29G02G21
 -17678619.09047 -13765975.92644  23474684.2194                   23474682.0084
 -20221844.07847 -15747982.37545  22646542.6254                   22646540.5984
 -10933344.01247  -8505287.14145  22287391.3204                   22287388.7424
  -5428382.73047  -4215669.79345  22627063.2344                   22627060.1174
 -15283473.77048 -11903879.53146  21101256.6644                   21101253.4884
 -14228528.67648 -11071764.72746  22002775.3444                   22002774.7544
 -21056271.34048 -16400422.31646  21691007.5084                   21691005.0474
  -3373953.22748  -2612165.59045  22334376.4924                   22334371.5784
 -14435081.95346 -11246156.73043  25036404.3834                   25036402.9694
 11  8 20  2 51 30.0000000  0  9G15G26G30G12G05G25G29G02G21
 -19302609.60247 -15031423.00844  23165649.0704                   23165647.2854
 -21831499.54347 -17002259.31645  22340235.3594                   22340233.8014
 -12407933.79747  -9654318.13745  22006786.6884                   22006783.6134
  -6870856.77747  -5339675.55945  22352569.4064                   22352566.2664
 -16754071.19948 -13049799.60546  20821411.5944                   20821408.2274
 -15717952.26248 -12232354.53546  21719347.1644                   21719347.3094
 -22655469.64548 -17646550.81346  21386690.2114                   21386687.5984
  -4857566.37547  -3768227.80545  22052054.5784                   22052049.4344
 -16019786.64146 -12480991.46943  24734844.6334                   24734843.3714
 11  8 20  2 52  0.0000000  0  9G15G26G30G12G05G25G29G02G21
 -19351118.97747 -15069222.44944  23156418.5394                   23156415.8284
 -21865422.41447 -17028692.66445  22333779.4304                   22333779.0204
 -12306690.39847  -9575427.18045  22026052.0004                   22026049.9734
  -6737696.82847  -5235914.57845  22377908.5944                   22377905.7424
 -16648890.55548 -12967840.66846  20841426.5164                   20841423.6804
 -15631485.28548 -12164977.67646  21735801.7274                   21735801.2734
 -22679027.73048 -17664907.72346  21382207.2974                   21382204.5904
  -4765680.79347  -3696628.64845  22069539.8284                   22069534.6454
 -16029084.23446 -12488236.23843  24733075.1804                   24733074.2664
 11  8 20  2 52 30.0000000  0  9G15G26G30G12G05G25G29G02G21
 -19399559.25847 -15106968.05544  23147200.6024                   23147197.6804
 -21899023.79347 -17054875.50045  22327385.3834                   22327384.3014
 -12205026.45748  -9496208.52745  22045398.1254                   22045395.1884
  -6604314.79347  -5131980.52045  22403290.1804                   22403287.6374
 -16543344.03148 -12885596.62146  20861511.0944                   20861508.0634
 -15544540.18048 -12097228.25046  21752346.6884                   21752346.0314
 -22702357.37948 -17683086.64146  21377767.9924                   21377764.8794
  -4673706.16048  -3624960.11345  22087042.1024                   22087037.4264
 -16038388.62947 -12495486.32842  24731305.1954                   24731302.0124
 11  8 20  2 53  0.0000000  0  9G15G26G30G12G05G25G29G02G21
 -19447922.52047 -15144653.62544  23137997.2894                   23137994.4104
 -21932294.96547 -17080801.03145  22321054.0314                   22321052.6414
 -12102939.92248  -9416660.59045  22064824.5474                   22064822.2114
  -6470709.01247  -5027872.12545  22428714.6254                   22428712.1134
 -16437429.34448 -12803065.69546  20881666.2894                   20881662.9574
 -15457114.32048 -12029104.23046  21768982.9774                   21768982.6564
 -22725451.14848 -17701081.75046  21373373.1024                   21373369.8244
  -4581637.24247  -3553218.12545  22104562.3674                   22104557.3094
 -16047695.93847 -12502738.72743  24729534.1954                   24729531.1094
 11  8 20  2 53 30.0000000  0  9G15G26G30G12G05G25G29G02G21
 -19496206.01647 -15182277.07044  23128809.2424                   23128805.7384
 -21965232.56347 -17106466.64545  22314786.4064                   22314784.6724
 -12000433.67648  -9336785.59045  22084330.7274                   22084328.8754
  -6336882.82847  -4923592.00445  22454180.8674                   22454178.6524
 -16331149.03948 -12720249.86746  20901890.8204                   20901887.2034
 -15369210.10248 -11960607.44546  21785710.9534                   21785710.3484
 -22748307.19148 -17718891.62546  21369023.7734                   21369021.0164
  -4489474.05148  -3481402.64545  22122099.9384                   22122095.5474
 -16057006.58646 -12509993.62543  24727761.8754                   24727760.3594
 11  8 20  2 54  0.0000000  0  9G15G26G30G12G05G25G29G02G21
 -19544412.18847 -15219840.25044  23119635.2344                   23119632.6724
 -21997838.66447 -17131873.94945  22308581.6174                   22308579.7344
 -11897516.42648  -9256590.34045  22103914.8594                   22103913.4304
  -6202844.96547  -4819146.93045  22479687.6094                   22479685.0004
 -16224511.24648 -12637155.48846  20922183.3594                   20922179.9184
 -15280835.44148 -11891744.08646  21802528.0164                   21802528.0204
 -22770929.15248 -17736519.11746  21364719.3054                   21364716.0234
  -4397222.18448  -3409518.06345  22139655.4924                   22139650.4184
 -16066327.18046 -12517256.23843  24725988.3674                   24725986.2424
 11  8 20  2 54 30.0000000  0  9G15G26G30G12G05G25G29G02G21
 -19592529.32847 -15257334.04344  23110478.6094                   23110476.3634
 -22030100.91447 -17157013.31345  22302442.4384                   22302440.5234
 -11794182.03547  -9176070.04345  22123579.0004                   22123576.5744
  -6068589.46147  -4714532.25845  22505235.1884                   22505233.1024
 -16117509.61748 -12553777.59046  20942545.2194                   20942541.7734
 -15191983.65248 -11822508.94546  21819435.9614                   21819435.5124
 -22793305.44948 -17753955.15246  21360461.3054                   21360457.9654
  -4304872.27747  -3337557.11345  22157228.7424                   22157223.5514
 -16075649.02046 -12524519.82843  24724214.4304                   24724212.1804
 11  8 20  2 55  0.0000000  0  9G15G26G30G12G05G25G29G02G21
 -19640555.66847 -15294757.08245  23101339.4694                   23101337.4774
 -22062016.72747 -17181882.73045  22296369.4614                   22296367.3594
 -11690434.69147  -9095227.96945  22143321.5234                   22143319.4804
  -5934120.65247  -4609751.37545  22530824.1414                   22530821.5164
 -16010148.01648 -12470119.19946  20962975.3834                   20962971.5904
 -15102658.26648 -11752904.77746  21836434.2194                   21836433.4694
 -22815435.00048 -17771198.92646  21356249.8834                   21356246.9964
  -4212425.60547  -3265520.75045  22174820.7344                   22174815.0634
 -16084974.24246 -12531786.04743  24722439.7194                   24722437.2114
 11  8 20  2 55 30.0000000  0  9G15G26G30G12G05G25G29G02G21
 -19688491.37947 -15332109.52345  23092218.1174                   23092215.3634
 -22093585.93447 -17206482.04745  22290361.3834                   22290359.7464
 -11586280.42647  -9014068.80545  22163141.5554                   22163139.1484
  -5799445.19947  -4504809.45745  22556452.1414                   22556449.1484
 -15902431.87548 -12386184.55146  20983472.6644                   20983469.2584
 -15012864.80948 -11682935.85946  21853520.9064                   21853521.0004
 -22837318.87148 -17788251.26646  21352085.1954                   21352082.4184
  -4119884.97747  -3193411.17245  22192431.3204                   22192426.0594
 -16094306.44946 -12539057.72343  24720663.1484                   24720661.0984
 11  8 20  2 56  0.0000000  0  9G15G26G30G12G05G25G29G02G21
 -19736333.62547 -15369389.12544  23083113.9454                   23083111.4614
 -22124805.23447 -17230808.71945  22284420.6254                   22284418.8324
 -11481722.53947  -8932595.14845  22183038.0314                   22183036.5124
  -5664566.20347  -4399708.91845  22582118.8834                   22582115.8094
 -15794364.03548 -12301975.84846  21004037.5084                   21004033.9804
 -14922605.90648 -11612604.26246  21870696.8444                   21870696.5314
 -22858955.30948 -17805110.80546  21347968.0004                   21347964.6884
  -4027250.50047  -3121228.46945  22210058.5234                   22210053.5824
 -16103646.75446 -12546335.71543  24718885.8674                   24718883.9344
 11  8 20  2 56 30.0000000  0  9G15G26G30G12G05G25G29G02G21
 -19784078.94147 -15406593.20344  23074028.4774                   23074024.9304
 -22155670.48047 -17254859.50445  22278547.2894                   22278545.2504
 -11376763.17647  -8850808.66045  22203011.1174                   22203009.2664
  -5529486.52347  -4294452.02745  22607824.1954                   22607821.1054
 -15685946.43448 -12217494.59846  21024668.6884                   21024665.1994
 -14831883.15648 -11541911.23446  21887960.8524                   21887960.7034
 -22880341.18848 -17821775.10246  21343898.1804                   21343895.4734
  -3934521.25448  -3048971.90245  22227704.3754                   22227699.1604
 -16112995.05146 -12553619.88743  24717107.3754                   24717104.5744
 11  8 20  2 57  0.0000000  0  9G15G26G30G12G05G25G29G02G21
 -19831727.67247 -15443722.03545  23064961.3914                   23064958.1134
 -22186181.35547 -17278634.14845  22272741.5704                   22272738.7034
 -11271408.64847  -8768714.23445  22223059.8594                   22223057.7814
  -5394212.41447  -4189043.62945  22633565.1254                   22633562.2194
 -15577184.64548 -12132745.15646  21045365.6334                   21045361.8164
 -14740702.29748 -11470861.22746  21905312.3594                   21905311.5274
 -22901477.63748 -17838245.03946  21339876.1954                   21339873.1644
  -3841700.44547  -2976643.99245  22245367.3674                   22245362.5984
 -16122355.01646 -12560913.23443  24715325.8674                   24715323.3874
 11  8 20  2 57 30.0000000  0  9G15G26G30G12G05G25G29G02G21
 -19879273.14147 -15480770.37945  23055913.1174                   23055910.6884
 -22216330.69147 -17302127.09045  22267003.9844                   22267001.5704
 -11165658.22347  -8686311.30945  22243183.4844                   22243180.5434
  -5258743.35547  -4083483.32045  22659343.9844                   22659341.1684
 -15468077.76248 -12047726.80946  21066127.7734                   21066124.3444
 -14649062.05148 -11399453.26246  21922750.6724                   21922750.1454
 -22922358.46148 -17854515.78946  21335902.7194                   21335899.4144
  -3748784.09048  -2904241.64145  22263049.1644                   22263043.4734
 -16131723.72746 -12568213.36343  24713543.0704                   24713540.6764
 11  8 20  2 58  0.0000000  0  9G15G26G30G12G05G25G29G02G21
 -19926715.66847 -15517738.49245  23046885.2114                   23046882.8484
 -22246118.46147 -17325338.28145  22261335.6254                   22261332.8204
 -11059518.33247  -8603604.91045  22263380.9924                   22263378.3554
  -5123085.92247  -3977776.23445  22685159.1024                   22685156.3094
 -15358631.46948 -11962443.99246  21086954.6254                   21086951.1804
 -14556968.17248 -11327691.80146  21940275.3364                   21940274.9184
 -22942984.55548 -17870588.05546  21331977.5394                   21331974.6604
  -3655775.45747  -2831767.38345  22280747.6644                   22280741.9884
 -16141105.05146 -12575523.30543  24711757.7194                   24711755.3874
 11  8 20  2 58 30.0000000  0  9G15G26G30G12G05G25G29G02G21
 -19974059.40647 -15554629.64845  23037875.6024                   23037873.4964
 -22275548.00447 -17348270.34445  22255735.5314                   22255733.1764
 -10952998.85247  -8520602.74645  22283651.1804                   22283649.0234
  -4987250.25847  -3871930.25845  22711008.0314                   22711005.0044
 -15248855.50448 -11876904.27746  21107844.3984                   21107840.6484
 -14464430.01648 -11255584.16446  21957885.2274                   21957884.7074
 -22963361.11748 -17886465.85946  21328099.9144                   21328097.4924
  -3562681.02047  -2759226.27745  22298463.4224                   22298457.8874
 -16150506.84846 -12582849.24643  24709968.7504                   24709966.2814
 11  8 20  2 59  0.0000000  0  9G15G26G30G12G05G25G29G02G21
 -20021293.01247 -15591435.00445  23028887.5634                   23028885.5044
 -22304607.61347 -17370914.14145  22250205.5864                   22250203.6524
 -10846094.70347  -8437300.82045  22303994.0084                   22303991.8484
  -4851231.20747  -3765941.39545  22736891.7424                   22736888.1484
 -15138744.33648 -11791103.36746  21128797.7034                   21128794.2074
 -14371442.04348 -11183126.00846  21975579.8834                   21975579.1334
 -22983477.69148 -17902141.07846  21324271.8364                   21324268.9924
  -3469492.37147  -2686611.74245  22316196.5474                   22316191.4924
 -16159921.42246 -12590185.14843  24708176.3134                   24708174.7504
 11  8 20  2 59 30.0000000  0  9G15G26G30G12G05G25G29G02G21
 -20068410.29347 -15628149.69945  23019921.3444                   23019918.5554
 -22333290.95347 -17393264.73845  22244746.8984                   22244744.6024
 -10738805.62947  -8353698.96945  22324410.4774                   22324408.3404
  -4715028.98847  -3659809.78945  22762809.7034                   22762806.8874
 -15028296.97748 -11705040.48046  21149815.0864                   21149811.3244
 -14278003.36348 -11110316.65646  21993360.6884                   21993360.1994
 -23003328.53148 -17917609.22746  21320494.8834                   21320491.2774
  -3376206.17647  -2613921.18045  22333948.0314                   22333943.1254
 -16169346.15646 -12597528.93043  24706382.5314                   24706381.7034
 11  8 20  3  0  0.0000000  0  9G15G26G30G12G05G25G29G02G21
 -20115400.98047 -15664765.75844  23010979.2194                   23010976.8014
 -22361586.68047 -17415313.29345  22239362.3914                   22239359.9224
 -10631127.25047  -8269793.75045  22344901.1174                   22344898.8324
  -4578639.12947  -3553531.97345  22788763.5474                   22788760.8244
 -14917508.59048 -11618711.85946  21170897.5634                   21170894.3054
 -14184109.03148 -11037152.25046  22011228.2114                   22011227.5474
 -23022903.98448 -17932862.80946  21316769.7274                   21316766.4694
  -3282814.92648  -2541148.79345  22351720.0004                   22351715.1764
 -16178774.16046 -12604875.31643  24704588.4144                   24704586.9344
 11  8 20  3  0 30.0000000  0  9G15G26G30G12G05G25G29G02G21
 -20162270.68847 -15701287.53944  23002060.5944                   23002057.6764
 -22389500.28147 -17437064.11345  22234050.5704                   22234047.7544
 -10523071.33247  -8185594.35245  22365463.4774                   22365461.0744
  -4442073.52047  -3447117.23445  22814751.3134                   22814748.5784
 -14806390.60548 -11532126.40246  21192042.4064                   21192039.0824
 -14089770.34048 -10963641.58246  22029180.5554                   22029180.1294
 -23042210.60248 -17947906.89546  21313095.4774                   21313092.0904
  -3189327.10547  -2468301.14845  22369510.1334                   22369505.6414
 -16188214.88346 -12612231.57043  24702792.7344                   24702789.8914
 11  8 20  3  1  0.0000000  0 10G18G15G26G30G12G05G25G29G02G21
 -15806057.27756 -12283354.88353  24699237.6724                   24699234.5354
 -20209010.92247 -15737708.46544  22993165.9064                   22993163.4184
 -22417022.91447 -17458510.27045  22228813.0084                   22228810.2624
 -10414635.58247  -8101098.95745  22386098.5234                   22386095.8714
  -4305330.30947  -3340564.08245  22840773.1254                   22840769.8484
 -14694940.28948 -11445281.99646  21213250.9384                   21213247.7464
 -13994984.44948 -10889782.44146  22047217.3524                   22047217.0514
 -23061240.69148 -17962735.49646  21309474.2814                   21309471.5394
  -3095736.78147  -2395373.65645  22387319.5164                   22387314.9694
 -16197663.47746 -12619593.99243  24700994.3054                   24700991.5474
 11  8 20  3  1 30.0000000  0 10G18G15G26G30G12G05G25G29G02G21
 -15848592.53146 -12316499.09842  24691142.9774                   24691141.6604
 -20255625.13347 -15774031.16044  22984295.1254                   22984292.5824
 -22444157.35947 -17479653.95345  22223649.5314                   22223646.9384
 -10305829.23847  -8016314.79745  22406803.1254                   22406800.9024
  -4168418.44947  -3233879.49645  22866826.4144                   22866823.3674
 -14583166.15648 -11358185.26246  21234520.5864                   21234517.1414
 -13899759.97748 -10815581.55946  22065337.8914                   22065337.6174
 -23079998.19548 -17977351.68446  21305904.9534                   21305901.7624
  -3002050.35247  -2322371.22745  22405147.2814                   22405142.2734
 -16207126.57446 -12626967.71543  24699193.5944                   24699190.9654
 11  8 20  3  2  0.0000000  0 10G18G15G26G30G12G05G25G29G02G21
 -15890968.18846 -12349518.92642  24683078.4144                   24683078.0234
 -20302114.16847 -15810256.35544  22975449.1954                   22975445.8284
 -22470904.12147 -17500495.55545  22218559.8364                   22218558.2734
 -10196659.39147  -7931247.39145  22427577.7274                   22427575.4264
  -4031345.16447  -3127069.13745  22892910.2664                   22892907.3674
 -14471075.01248 -11270841.50846  21255850.9064                   21255847.5664
 -13804103.62548 -10741044.14846  22083540.8054                   22083540.5314
 -23098484.91448 -17991756.88346  21302386.6954                   21302383.8284
  -2908271.40247  -2249296.70745  22422993.1254                   22422988.4694
 -16216609.06346 -12634356.52743  24697388.9534                   24697386.0904
 11  8 20  3  2 30.0000000  0 10G18G15G26G30G12G05G25G29G02G21
 -15933184.00046 -12382414.21943  24675045.9614                   24675044.6374
 -20348476.14547 -15846382.52345  22966626.3444                   22966623.4924
 -22497260.77047 -17521033.16445  22213544.5394                   22213542.4184
 -10087130.12547  -7845899.92245  22448420.1804                   22448418.5864
  -3894114.71547  -3020136.32845  22919024.5944                   22919021.8874
 -14358670.24648 -11183253.37146  21277240.7114                   21277237.6374
 -13708018.90647 -10666172.93446  22101825.3444                   22101824.7814
 -23116699.44548 -18005949.98846  21298920.5554                   21298917.1134
  -2814400.57847  -2176150.62945  22440856.4454                   22440851.5904
 -16226112.39146 -12641761.66443  24695580.4384                   24695578.0704
 11  8 20  3  3  0.0000000  0 10G18G15G26G30G12G05G25G29G02G21
 -15975240.83646 -12415185.63743  24667042.3674                   24667041.0554
 -20394709.90647 -15882408.78145  22957828.2974                   22957825.4884
 -22523225.89547 -17541265.67645  22208603.3204                   22208601.1764
  -9977246.50047  -7760276.32045  22469330.7114                   22469329.0634
  -3756732.25447  -2913085.05545  22945167.6954                   22945164.6054
 -14245956.38748 -11095424.38746  21298689.6954                   21298685.8284
 -13611510.35548 -10590971.46546  22120189.9924                   22120189.5704
 -23134641.53548 -18019930.80546  21295506.4614                   21295503.5704
  -2720439.84847  -2102934.44945  22458736.3524                   22458731.7344
 -16235639.18046 -12649185.04343  24693766.7194                   24693764.9534
 11  8 20  3  3 30.0000000  0 10G18G15G26G30G12G05G25G29G02G21
 -16017128.11746 -12447824.93843  24659071.5474                   24659069.5204
 -20440803.08247 -15918325.47745  22949057.0704                   22949053.9024
 -22548786.82447 -17561183.24645  22203739.4694                   22203737.3054
  -9867002.35547  -7674371.79345  22490309.5864                   22490307.3754
  -3619191.83647  -2805910.69545  22971341.0314                   22971338.1914
 -14132926.72348 -11007349.30946  21320198.4924                   21320195.4344
 -13514571.30948 -10515434.54346  22138636.7584                   22138636.6884
 -23152299.60248 -18033690.29746  21292146.1804                   21292143.1334
  -2626379.26647  -2029640.48445  22476635.0864                   22476630.9264
 -16245180.89846 -12656620.07043  24691951.4924                   24691948.8674
 11  8 20  3  4  0.0000000  0 10G18G15G26G30G12G05G25G29G02G21
 -16058847.13346 -12480333.11343  24651132.2734                   24651130.7074
 -20486755.44947 -15954132.46945  22940312.6414                   22940309.4104
 -22573942.64147 -17580785.14545  22198951.9694                   22198949.8244
  -9756403.37147  -7588190.77045  22511356.4534                   22511353.5864
  -3481498.88747  -2698617.48445  22997542.8054                   22997539.7734
 -14019586.52348 -10919032.26646  21341766.1564                   21341762.8874
 -13417206.98448 -10439566.24646  22157164.8524                   22157164.3714
 -23169674.09048 -18047228.82446  21288840.1564                   21288836.8094
  -2532221.24647  -1956270.60945  22494553.4844                   22494548.6844
 -16254740.48846 -12664068.98843  24690132.3594                   24690129.8674
 11  8 20  3  4 30.0000000  0 10G18G15G26G30G12G05G25G29G02G21
 -16100395.81646 -12512708.54343  24643225.6254                   24643224.1484
 -20532563.20747 -15989826.75845  22931595.5164                   22931593.3364
 -22598689.19947 -17600068.14545  22194242.9694                   22194240.4184
  -9645451.92247  -7501735.09845  22532469.1484                   22532467.0744
  -3343655.61347  -2591207.14845  23023772.8914                   23023770.6764
 -13905937.59048 -10830474.66046  21363392.9304                   21363389.8284
 -13319419.21548 -10363367.97746  22175773.1094                   22175773.2304
 -23186761.73048 -18060543.84046  21285588.2664                   21285585.1454
  -2437964.91847  -1882824.11745  22512489.8754                   22512484.1994
 -16264317.53546 -12671531.52343  24688309.7894                   24688307.5164
 11  8 20  3  5  0.0000000  0 10G18G15G26G30G12G05G25G29G02G21
 -16141777.42246 -12544953.80943  24635350.7504                   24635349.4454
 -20578227.39547 -16025409.18845  22922906.0164                   22922903.3094
 -22623027.20747 -17619032.79345  22189611.5784                   22189609.0554
  -9534155.22347  -7415010.39545  22553648.0164                   22553646.0274
  -3205670.03147  -2483685.90245  23050031.5314                   23050027.8484
 -13791986.44548 -10741681.56646  21385077.2664                   21385074.1174
 -13221214.78148 -10286845.03146  22194461.0474                   22194460.9224
 -23203564.48048 -18073636.86346  21282390.6884                   21282387.5784
  -2343614.35547  -1809304.18845  22530443.7344                   22530438.2894
 -16273916.92246 -12679011.48043  24686483.0234                   24686480.8134
 11  8 20  3  5 30.0000000  0 10G18G15G26G30G12G05G25G29G02G21
 -16182979.46146 -12577059.09043  24627510.2664                   24627509.1954
 -20623734.01247 -16060868.84445  22914246.8754                   22914243.4264
 -22646942.16447 -17637667.78945  22185061.0944                   22185058.0514
  -9422505.26647  -7328010.41845  22574894.6724                   22574891.7504
  -3067533.77347  -2376047.24645  23076317.5944                   23076315.1764
 -13677724.68848 -10652646.43046  21406820.4534                   21406817.1174
 -13122585.17248 -10209990.79346  22213229.5634                   22213229.0864
 -23220068.75848 -18086497.31346  21279249.7814                   21279247.3134
  -2249157.75047  -1735701.65245  22548418.7664                   22548413.1994
 -16283528.32446 -12686500.79343  24684654.6024                   24684651.4734
 11  8 20  3  6  0.0000000  0 10G18G15G26G30G12G05G25G29G02G21
 -16224008.32446 -12609029.46143  24619702.9144                   24619701.5394
 -20669087.40247 -16096209.12145  22905616.0784                   22905613.1994
 -22670438.52747 -17655976.64145  22180589.7344                   22180587.4064
  -9310512.78947  -7240743.55545  22596205.8754                   22596203.6254
  -2929257.52047  -2268299.51644  23102629.9774                   23102627.5204
 -13563162.52348 -10563377.21546  21428620.8054                   21428617.8554
 -13023540.64548 -10132813.24246  22232077.1644                   22232076.7464
 -23236280.12948 -18099129.52346  21276164.9454                   21276162.0864
  -2154602.54747  -1662022.25445  22566411.8134                   22566406.1684
 -16293159.59847 -12694005.55944  24682821.5784                   24682819.0314
 11  8 20  3  6 30.0000000  0 10G18G15G26G30G12G05G25G29G02G21
 -16264863.98846 -12640864.85943  24611927.8054                   24611926.6214
 -20714285.62547 -16131428.44545  22897014.6954                   22897012.5204
 -22693513.57847 -17673957.15245  22176198.3594                   22176196.9144
  -9198181.95347  -7153213.04745  22617581.9064                   22617579.3674
  -2790845.40647  -2160445.92645  23128969.5944                   23128966.6414
 -13448303.07448 -10473876.34046  21450478.1954                   21450474.8014
 -12924084.88748 -10055315.25045  22251002.5864                   22251002.5354
 -23252197.37548 -18111532.55146  21273136.0474                   21273132.9574
  -2059949.47747  -1588266.59845  22584423.8524                   22584418.5434
 -16302812.32846 -12701527.07444  24680984.5864                   24680982.4304
 11  8 20  3  7  0.0000000  0 10G18G15G26G30G12G05G25G29G02G21
 -16305539.94546 -12672560.25043  24604186.2114                   24604186.1914
 -20759320.09047 -16166520.17645  22888445.2194                   22888442.6024
 -22716158.91847 -17691602.83645  22171889.3204                   22171886.9184
  -9085510.56647  -7065417.16445  22639022.8284                   22639020.1684
  -2652295.31647  -2052484.80945  23155335.3834                   23155331.7934
 -13333143.52748 -10384141.62946  21472391.9454                   21472388.6024
 -12824215.25448  -9977494.75846  22270007.3054                   22270006.9264
 -23267812.59048 -18123700.23846  21270164.5164                   21270161.4384
  -1965192.95347  -1514430.32045  22602455.2344                   22602450.4414
 -16312481.83247 -12709061.68443  24679144.6484                   24679141.7624
 11  8 20  3  7 30.0000000  0 10G18G15G26G30G12G05G25G29G02G21
 -16346040.46546 -12704118.93042  24596479.4614                   24596478.5984
 -20804193.76647 -16201486.65245  22879906.2734                   22879902.5664
 -22738376.54747 -17708915.22345  22167661.1484                   22167658.9964
  -8972507.46547  -6977362.80545  22660526.0314                   22660524.0164
  -2513616.11747  -1944423.07845  23181724.5394                   23181721.5824
 -13217692.77048 -10294179.99646  21494361.4304                   21494358.7464
 -12723940.14848  -9899358.30545  22289089.3984                   22289088.6524
 -23283129.09048 -18135635.15646  21267249.9454                   21267246.6724
  -1870338.34047  -1440517.64145  22620505.0234                   22620500.8014
 -16322174.36746 -12716614.23043  24677300.0704                   24677296.8404
 11  8 20  3  8  0.0000000  0 10G18G15G26G30G12G05G25G29G02G21
 -17961782.55146 -13963138.62942  24289013.9614                   24289012.8954
 -22424321.41447 -17463923.73045  22571605.9384                   22571602.6254
 -24335580.47747 -18953489.71145  21863723.1334                   21863721.0784
 -10434588.45347  -8116646.66845  22382301.4454                   22382298.9184
  -3950222.84047  -3063856.85945  22908347.5474                   22908344.5234
 -14677365.45748 -11431587.28146  21216594.9614                   21216592.1564
 -14198675.24248 -11048502.52346  22008456.4614                   22008456.0164
 -24873561.88748 -19374933.41846  20964600.7274                   20964597.6804
  -3350798.53147  -2594123.00445  22338782.9844                   22338777.7854
 -17907306.97746 -13951782.44143  24375658.4064                   24375655.6414
 11  8 20  3  8 30.0000000  0 10G18G15G26G30G12G05G25G29G02G21
 -18001919.60546 -13994414.08243  24281376.8914                   24281374.9574
 -22468854.48047 -17498624.78145  22563131.7034                   22563128.2624
 -24356923.25447 -18970120.40645  21859661.9144                   21859659.1374
 -10320921.43047  -8028074.96145  22403931.2194                   22403929.1524
  -3811284.92247  -2955593.55545  22934786.1414                   22934783.1484
 -14561329.18848 -11341169.41846  21238676.3834                   21238672.7344
 -14097587.34048 -10969732.73445  22027692.7814                   22027692.4614
 -24888264.83648 -19386390.25046  20961803.0784                   20961799.5554
  -3255736.93047  -2520049.03545  22356873.0004                   22356867.2814
 -17917037.07046 -13959364.24243  24373807.6334                   24373804.1214
 11  8 20  3  9  0.0000000  0 10G18G15G26G30G12G05G25G29G02G21
 -18041872.14546 -14025545.73843  24273773.2584                   24273772.4924
 -22513211.67247 -17533188.78145  22554690.5474                   22554687.4184
 -24377822.78547 -18986405.73045  21855684.6954                   21855681.1374
 -10206926.41447  -7939247.66845  22425624.4304                   22425621.6844
  -3672221.46947  -2847232.41445  22961249.0164                   22961246.4414
 -14445003.33648 -11250525.89846  21260812.5084                   21260809.1134
 -13996096.29348 -10890648.79745  22047006.0474                   22047005.4414
 -24902656.57448 -19397604.58246  20959064.0634                   20959060.7234
  -3160570.41847  -2445893.31345  22374982.0004                   22374976.4304
 -17926785.94546 -13966960.69143  24371952.0234                   24371949.2074
 11  8 20  3  9 30.0000000  0 10G18G15G26G30G12G05G25G29G02G21
 -18081645.53546 -14056537.79343  24266205.1804                   24266203.2624
 -22557396.48047 -17567618.46145  22546281.8594                   22546278.9694
 -24398282.37947 -19002348.26645  21851791.7584                   21851788.6564
 -10092613.22747  -7850172.45345  22447376.6564                   22447374.6254
  -3533042.18447  -2738781.02345  22987734.3594                   22987731.1054
 -14328396.97348 -11159663.78946  21283001.6564                   21282998.4104
 -13894211.54748 -10811258.09046  22066393.7974                   22066393.3054
 -24916741.57448 -19408579.89146  20956383.8594                   20956380.7814
  -3065305.26247  -2371660.75845  22393110.5164                   22393106.5784
 -17936560.63346 -13974577.22743  24370092.1174                   24370088.8554
 11  8 20  3 10  0.0000000  0 10G18G15G26G30G12G05G25G29G02G21
 -18121237.39146 -14087388.46942  24258670.5704                   24258668.9454
 -22601404.55947 -17601910.42645  22537907.4534                   22537904.9264
 -24418297.16447 -19017944.16445  21847983.3204                   21847980.3874
  -9977983.56647  -7760850.63345  22469190.2974                   22469188.5004
  -3393748.86747  -2630240.76245  23014240.7504                   23014238.2704
 -14211511.24648 -11068584.01246  21305244.4454                   21305240.9964
 -13791934.37548 -10731561.60246  22085856.7814                   22085856.6294
 -24930515.99248 -19419313.19546  20953762.5084                   20953759.5984
  -2969939.86348  -2297350.05145  22411258.4304                   22411253.2464
 -17946360.35546 -13982213.32843  24368226.8284                   24368224.4414
 11  8 20  3 10 30.0000000  0 10G18G15G26G30G12G05G25G29G02G21
 -18160650.46946 -14118099.82042  24251170.0314                   24251169.1484
 -22645236.85247 -17636065.41845  22529567.1174                   22529563.4534
 -24437867.75447 -19033193.93845  21844258.7114                   21844255.9414
  -9863044.46147  -7671287.69145  22491062.5554                   22491060.1884
  -3254348.50447  -2521617.08245  23040768.1254                   23040765.5084
 -14094352.37948 -10977291.39146  21327538.8204                   21327535.2814
 -13689271.39147 -10651564.46946  22105392.7734                   22105392.4884
 -24943981.35548 -19429805.66846  20951200.0864                   20951197.0164
  -2874477.81347  -2222964.05945  22429423.7424                   22429419.1684
 -17956189.27746 -13989872.14843  24366356.0944                   24366353.8164
 11  8 20  3 11  0.0000000  0 10G18G15G26G30G12G05G25G29G02G21
 -18199871.54346 -14148661.55143  24243707.2274                   24243705.4384
 -22688877.89847 -17670071.38745  22521262.1804                   22521259.4064
 -24456978.90647 -19048085.70745  21840622.0394                   21840618.4384
  -9747787.00047  -7581476.66045  22512995.4224                   22512992.8094
  -3114832.02747  -2412902.93845  23067316.6954                   23067314.3954
 -13976910.90248 -10885778.54746  21349887.3754                   21349883.9494
 -13586213.26647 -10571259.43845  22125003.8594                   22125003.6564
 -24957123.01648 -19440045.90246  20948699.2974                   20948696.2584
  -2778906.66047  -2148493.04345  22447610.7584                   22447606.0474
 -17966036.18446 -13997544.99243  24364482.4694                   24364480.0944
 11  8 20  3 11 30.0000000  0 10G18G15G26G30G12G05G25G29G02G21
 -18238908.90646 -14179080.12143  24236278.8834                   24236276.7304
 -22732334.14147 -17703933.35245  22512992.6954                   22512989.8324
 -24475636.77047 -19062624.25845  21837071.6484                   21837068.4734
  -9632223.82447  -7491427.42645  22534986.1804                   22534983.9344
  -2975211.87947  -2304108.02045  23093885.6254                   23093883.1134
 -13859198.64548 -10794054.71946  21372287.6254                   21372283.8594
 -13482772.15647 -10490655.98446  22144688.4304                   22144687.8164
 -24969948.52348 -19450039.79346  20946258.7894                   20946255.6254
  -2683235.52347  -2073944.11745  22465816.6724                   22465811.7584
 -17975910.69946 -14005239.33243  24362603.9064                   24362600.8524
 11  8 20  3 12  0.0000000  0 10G18G15G26G30G12G05G25G29G02G21
 -18277755.79746 -14209350.31343  24228886.4224                   24228884.5784
 -22775597.47347 -17737644.98445  22504759.9844                   22504756.8444
 -24493832.78547 -19076802.95745  21833608.7424                   21833606.1414
  -9516352.94147  -7401138.41445  22557036.0084                   22557032.8284
  -2835486.03547  -2195230.73045  23120474.7664                   23120472.1954
 -13741213.14148 -10702117.96146  21394738.8914                   21394735.6954
 -13378945.75048 -10409752.28146  22164446.0004                   22164445.4144
 -24982450.36748 -19459781.47746  20943879.6024                   20943876.6604
  -2587458.53947  -1999312.71545  22484041.8524                   22484036.7424
 -17985808.23446 -14012951.58643  24360720.4694                   24360717.2934
 11  8 20  3 12 30.0000000  0 10G18G15G26G30G12G05G25G29G02G21
 -18316405.46946 -14239466.75843  24221531.0314                   24221528.8324
 -22818658.21547 -17771198.76645  22496565.7344                   22496562.7234
 -24511557.30947 -19090614.22345  21830236.0084                   21830233.4264
  -9400171.07847  -7310607.06645  22579144.7274                   22579142.1804
  -2695651.23447  -2086268.54344  23147084.3134                   23147081.4844
 -13622950.41848 -10609965.18846  21417243.6174                   21417240.2154
 -13274730.41048 -10328545.50846  22184277.7274                   22184276.9924
 -24994619.58648 -19469263.97346  20941564.2344                   20941561.1764
  -2491569.01647  -1924593.62145  22502288.9534                   22502284.0274
 -17995722.75446 -14020677.08243  24358832.6094                   24358829.8324
 11  8 20  3 13  0.0000000  0 10G18G15G26G30G12G05G25G29G02G21
 -18354867.39846 -14269436.95743  24214211.8054                   24214209.7504
 -22861524.46147 -17804601.00845  22488408.6884                   22488405.3054
 -24528817.71947 -19104063.83645  21826951.1564                   21826948.2154
  -9283692.17247  -7219844.27745  22601309.6484                   22601307.5704
  -2555721.25847  -1977232.17644  23173712.3364                   23173709.1254
 -13504423.58648 -10517606.62146  21439798.7274                   21439795.5234
 -13170139.57847 -10247046.16446  22204180.4064                   22204180.3984
 -25006464.82448 -19478494.01246  20939310.0784                   20939306.8674
  -2395577.80947  -1849795.28145  22520555.9144                   22520551.4614
 -18005665.13746 -14028424.34043  24356940.6804                   24356937.3054
 11  8 20  3 13 30.0000000  0 10G18G15G26G30G12G05G25G29G02G21
 -18393139.45346 -14299259.18443  24206928.7344                   24206926.7934
 -22904191.88347 -17837848.31645  22480289.1174                   22480285.8754
 -24545610.18447 -19117148.84045  21823755.9614                   21823752.5784
  -9166918.68847  -7128851.93445  22623530.7034                   22623528.4344
  -2415698.41447  -1868123.45744  23200357.7194                   23200355.1994
 -13385634.58248 -10425043.75846  21462403.7424                   21462399.9924
 -13065175.42647 -10165255.93446  22224154.2584                   22224154.1484
 -25017982.85948 -19487469.08646  20937118.3284                   20937115.2814
  -2299483.18847  -1774916.35945  22538841.8834                   22538836.6294
 -18015635.80946 -14036193.58243  24355043.5864                   24355040.4184
 11  8 20  3 14  0.0000000  0 10G18G15G26G30G12G05G25G29G02G21
 -18431213.22346 -14328926.92643  24199683.1884                   24199681.3164
 -22946650.20747 -17870932.69145  22472209.5634                   22472206.8244
 -24561924.07047 -19129860.93445  21820651.6804                   21820648.2974
  -9049846.39847  -7037626.75445  22645808.9224                   22645806.6334
  -2275578.27047  -1758938.92644  23227022.0004                   23227019.0124
 -13266578.42248 -10332272.73446  21485058.9694                   21485055.3594
 -12959833.32047 -10083171.18045  22244200.3444                   22244199.6844
 -25029164.27048 -19496181.85546  20934990.2734                   20934987.3524
  -2203277.57847  -1699950.97345  22557148.8444                   22557143.7344
 -18025627.45346 -14043979.15643  24353143.2194                   24353139.4344
 11  8 20  3 14 30.0000000  0 10G18G15G26G30G12G05G25G29G02G21
 -18469093.45346 -14358443.83243  24192475.0004                   24192472.9344
 -22988902.06347 -17903856.17645  22464169.3914                   22464166.3834
 -24577762.02747 -19142202.17645  21817637.7584                   21817634.2584
  -8932484.41847  -6946175.85545  22668142.3284                   22668139.6914
  -2135369.81347  -1649685.56344  23253702.3364                   23253699.8204
 -13147263.56348 -10239300.12146  21507764.0394                   21507760.3244
 -12854121.98447 -10000798.70745  22264316.1954                   22264315.8524
 -25040012.04348 -19504634.64546  20932926.0234                   20932923.1214
  -2106966.51247  -1624903.39545  22575476.2344                   22575471.2974
 -18035646.43846 -14051786.04743  24351235.4694                   24351232.9384
 11  8 20  3 15  0.0000000  0 10G18G15G26G30G12G05G25G29G02G21
 -18506774.78146 -14387805.74643  24185303.9384                   24185302.1724
 -23030940.10547 -17936613.03545  22456169.7974                   22456166.8284
 -24593116.56647 -19154166.69545  21814715.4774                   21814712.0434
  -8814831.65247  -6854498.37945  22690530.4224                   22690528.4574
  -1995072.13747  -1540362.69544  23280400.3984                   23280397.5554
 -13027688.10548 -10146124.44946  21530518.5234                   21530515.0514
 -12748039.95747  -9918137.39145  22284502.7274                   22284502.5354
 -25050519.93048 -19512822.58646  20930926.5704                   20930923.6054
  -2010545.56647  -1549770.17645  22593824.5704                   22593819.8954
 -18045688.77746 -14059611.12943  24349324.2734                   24349321.8794
 11  8 20  3 15 30.0000000  0 10G18G15G26G30G12G05G25G29G02G21
 -18544260.82446 -14417015.53543  24178170.4144                   24178168.4614
 -23072766.03547 -17969204.62145  22448210.5944                   22448207.6684
 -24607989.03547 -19165755.60945  21811885.0944                   21811882.3594
  -8696895.79347  -6762600.31345  22712973.4454                   22712970.9924
  -1854692.34447  -1430975.80545  23307113.3834                   23307111.1454
 -12907859.05148 -10052751.16446  21553321.2664                   21553317.9144
 -12641594.66047  -9835193.01645  22304758.6094                   22304758.4614
 -25060690.39148 -19520747.59846  20928990.9224                   20928987.9454
  -1914018.73447  -1474554.48445  22612192.8834                   22612188.7854
 -18055759.52046 -14067458.36343  24347408.9534                   24347405.0904
 11  8 20  3 16  0.0000000  0 10G18G15G26G30G12G05G25G29G02G21
 -18581546.94946 -14446069.52043  24171076.0944                   24171073.5004
 -23114373.37947 -18001625.86745  22440292.3984                   22440290.0394
 -24622372.96947 -19176963.84445  21809148.1024                   21809145.2624
  -8578676.74647  -6670481.56645  22735469.6644                   22735467.1604
  -1714230.17247  -1321524.75044  23333842.5554                   23333839.7114
 -12787775.51248  -9959179.59446  21576172.2504                   21576168.9104
 -12534785.48847  -9751965.09445  22325083.8284                   22325083.6684
 -25070517.42648 -19528404.99646  20927121.1724                   20927118.0124
  -1817381.98447  -1399253.09045  22630582.5394                   22630577.6414
 -18065855.84846 -14075325.55544  24345487.1804                   24345484.4574
 11  8 20  3 16 30.0000000  0 10G18G15G26G30G12G05G25G29G02G21
 -18618638.27346 -14474971.68843  24164017.3134                   24164015.0864
 -23155764.51247 -18033878.66445  22432416.2504                   22432413.2734
 -24636271.08247 -19187793.51245  21806503.3204                   21806501.1644
  -8460183.46547  -6578149.14545  22758017.9844                   22758015.9384
  -1573694.88747  -1212016.71144  23360585.7114                   23360582.9224
 -12667445.78148  -9865416.18046  21599070.4064                   21599067.0004
 -12427621.18847  -9668460.43845  22345476.6564                   22345476.2304
 -25080004.72348 -19535797.68046  20925315.6254                   20925312.2274
  -1720640.97747  -1323870.46945  22648991.8984                   22648987.3284
 -18075983.88746 -14083217.48443  24343558.9224                   24343557.1174
